Eleven Point River (Missouri), Ravenden Springs (07072000)

StateMissouriLatestPoor (697 cfs)
RiverEleven Point RiverRatingObservedEstimated
Updated2026-05-10 11:45 (1 hour ago)Flood - The river is flooding. Obstacles can be treacherous or deadly. The river should be avoided at this stage for casual trips and definitely for the inexperienced. Trips should be attempted only with protective gear and equipment.Flood(none)3347
Discharge697 cfs (median: 1660 cfs)High - The river is high and potentially dangerous, especially for the young and / or inexperienced. Normal stream obstacles are sometimes difficult to navigate. Extended distances can be attempted, but canoe travel may not be advisable.High(none)1472
Height3.04 feetGood - Conditions are ideal for a canoe or kayak. Boats typically will drag on fewer than one-quarter of riffles, if at all, and portages are unnecessary or rare. Normal float lengths can be attempted without a problem.Good(none)1059
TrendRising (falling over 24 hours)Low - River is low but can still be floated. Some riffles are okay but most come with significant dragging and might need a portage. Float lengths should be reduced to accommodate low flow, dragging, and portages.Low(none)802
USGSExternal icon USGS Site (External icon Duck Duck Go Maps)Poor - River is too low to float comfortably. Most or all riffles will drag or must be portaged and some obstacles (such as slick shelf rock) cause undue problems. Avoid the river at this stage for casual paddling trips.Poor(none)423

Trending Data

Plot Image

Trips for Eleven Point River (Missouri), Ravenden Springs (07072000)

DateStartEndDistanceConditionDischargeHeightFishingDetails

A total of 0 rows are displayed.

Condition Descriptions

Fishing Conditions

Fish Species

Notes

Classic Trip List

The classic River Trips application is still available for use. It is updated with the new system using a data retrofit. It is no longer maintained. The original River Trips application is no longer updated (as of 1 Dec 2016) but can be checked for errors or for the condition of the data before it was converted to the new system.

Gauge Data Table

ObservationHeightDischargeMaximum
Discharge
Minimum
Discharge
Mean
Discharge
P05P10P20P25P50
(Median)
P75P80P90P95
2026-05-10 11:45 3.04 697 11400 (2002) 387 (1981) 2000 518 697 983 1060 1660 2200 2530 3510 4670
2026-05-10 10:45 3.03 690 11400 (2002) 387 (1981) 2000 518 697 983 1060 1660 2200 2530 3510 4670
2026-05-10 09:45 3.03 690 11400 (2002) 387 (1981) 2000 518 697 983 1060 1660 2200 2530 3510 4670
2026-05-10 08:45 3.03 690 11400 (2002) 387 (1981) 2000 518 697 983 1060 1660 2200 2530 3510 4670
2026-05-10 07:45 3.03 690 11400 (2002) 387 (1981) 2000 518 697 983 1060 1660 2200 2530 3510 4670
2026-05-10 06:45 3.03 690 11400 (2002) 387 (1981) 2000 518 697 983 1060 1660 2200 2530 3510 4670
2026-05-10 05:45 3.03 690 11400 (2002) 387 (1981) 2000 518 697 983 1060 1660 2200 2530 3510 4670
2026-05-10 04:45 3.03 690 11400 (2002) 387 (1981) 2000 518 697 983 1060 1660 2200 2530 3510 4670
2026-05-10 03:45 3.04 697 11400 (2002) 387 (1981) 2000 518 697 983 1060 1660 2200 2530 3510 4670
2026-05-10 02:45 3.04 697 11400 (2002) 387 (1981) 2000 518 697 983 1060 1660 2200 2530 3510 4670
2026-05-10 01:45 3.04 697 11400 (2002) 387 (1981) 2000 518 697 983 1060 1660 2200 2530 3510 4670
2026-05-10 00:45 3.04 697 11400 (2002) 387 (1981) 2000 518 697 983 1060 1660 2200 2530 3510 4670
2026-05-09 23:45 3.04 697 11400 (2002) 387 (1981) 2000 518 697 983 1060 1660 2200 2530 3510 4670
2026-05-09 22:45 3.04 697 16700 (2002) 380 (1981) 2130 526 717 976 1030 1510 2140 2400 3760 6840
2026-05-09 21:45 3.04 697 16700 (2002) 380 (1981) 2130 526 717 976 1030 1510 2140 2400 3760 6840
2026-05-09 20:45 3.05 705 16700 (2002) 380 (1981) 2130 526 717 976 1030 1510 2140 2400 3760 6840
2026-05-09 19:45 3.05 705 16700 (2002) 380 (1981) 2130 526 717 976 1030 1510 2140 2400 3760 6840
2026-05-09 18:45 3.05 705 16700 (2002) 380 (1981) 2130 526 717 976 1030 1510 2140 2400 3760 6840
2026-05-09 17:45 3.06 712 16700 (2002) 380 (1981) 2130 526 717 976 1030 1510 2140 2400 3760 6840
2026-05-09 16:45 3.06 712 16700 (2002) 380 (1981) 2130 526 717 976 1030 1510 2140 2400 3760 6840
2026-05-09 15:45 3.05 705 16700 (2002) 380 (1981) 2130 526 717 976 1030 1510 2140 2400 3760 6840
2026-05-09 14:45 3.05 705 16700 (2002) 380 (1981) 2130 526 717 976 1030 1510 2140 2400 3760 6840
2026-05-09 13:45 3.07 720 16700 (2002) 380 (1981) 2130 526 717 976 1030 1510 2140 2400 3760 6840
2026-05-09 12:45 3.07 720 16700 (2002) 380 (1981) 2130 526 717 976 1030 1510 2140 2400 3760 6840
2026-05-09 11:45 3.07 720 16700 (2002) 380 (1981) 2130 526 717 976 1030 1510 2140 2400 3760 6840
2026-05-09 10:45 3.06 712 16700 (2002) 380 (1981) 2130 526 717 976 1030 1510 2140 2400 3760 6840
2026-05-09 09:45 3.06 712 16700 (2002) 380 (1981) 2130 526 717 976 1030 1510 2140 2400 3760 6840
2026-05-09 08:45 3.06 712 16700 (2002) 380 (1981) 2130 526 717 976 1030 1510 2140 2400 3760 6840
2026-05-09 07:45 3.06 712 16700 (2002) 380 (1981) 2130 526 717 976 1030 1510 2140 2400 3760 6840
2026-05-09 06:45 3.06 712 16700 (2002) 380 (1981) 2130 526 717 976 1030 1510 2140 2400 3760 6840
2026-05-09 05:45 3.06 712 16700 (2002) 380 (1981) 2130 526 717 976 1030 1510 2140 2400 3760 6840
2026-05-09 04:45 3.06 712 16700 (2002) 380 (1981) 2130 526 717 976 1030 1510 2140 2400 3760 6840
2026-05-09 03:45 3.06 712 16700 (2002) 380 (1981) 2130 526 717 976 1030 1510 2140 2400 3760 6840
2026-05-09 02:45 3.06 712 16700 (2002) 380 (1981) 2130 526 717 976 1030 1510 2140 2400 3760 6840
2026-05-09 01:45 3.06 712 16700 (2002) 380 (1981) 2130 526 717 976 1030 1510 2140 2400 3760 6840
2026-05-09 00:45 3.06 712 16700 (2002) 380 (1981) 2130 526 717 976 1030 1510 2140 2400 3760 6840
2026-05-08 23:45 3.07 720 16700 (2002) 380 (1981) 2130 526 717 976 1030 1510 2140 2400 3760 6840
2026-05-08 22:45 3.07 720 24600 (1961) 380 (1981) 2110 549 732 952 1040 1580 2220 2440 3720 4840
2026-05-08 21:45 3.07 720 24600 (1961) 380 (1981) 2110 549 732 952 1040 1580 2220 2440 3720 4840
2026-05-08 20:45 3.07 720 24600 (1961) 380 (1981) 2110 549 732 952 1040 1580 2220 2440 3720 4840
2026-05-08 19:45 3.07 720 24600 (1961) 380 (1981) 2110 549 732 952 1040 1580 2220 2440 3720 4840
2026-05-08 18:45 3.08 727 24600 (1961) 380 (1981) 2110 549 732 952 1040 1580 2220 2440 3720 4840
2026-05-08 17:45 3.07 720 24600 (1961) 380 (1981) 2110 549 732 952 1040 1580 2220 2440 3720 4840
2026-05-08 16:45 3.07 720 24600 (1961) 380 (1981) 2110 549 732 952 1040 1580 2220 2440 3720 4840
2026-05-08 15:45 3.09 735 24600 (1961) 380 (1981) 2110 549 732 952 1040 1580 2220 2440 3720 4840
2026-05-08 14:45 3.08 727 24600 (1961) 380 (1981) 2110 549 732 952 1040 1580 2220 2440 3720 4840
2026-05-08 13:45 3.07 720 24600 (1961) 380 (1981) 2110 549 732 952 1040 1580 2220 2440 3720 4840
2026-05-08 12:45 3.06 712 24600 (1961) 380 (1981) 2110 549 732 952 1040 1580 2220 2440 3720 4840
2026-05-08 11:45 3.06 712 24600 (1961) 380 (1981) 2110 549 732 952 1040 1580 2220 2440 3720 4840
2026-05-08 10:45 3.07 720 24600 (1961) 380 (1981) 2110 549 732 952 1040 1580 2220 2440 3720 4840
2026-05-08 09:45 3.08 727 24600 (1961) 380 (1981) 2110 549 732 952 1040 1580 2220 2440 3720 4840
2026-05-08 08:45 3.08 727 24600 (1961) 380 (1981) 2110 549 732 952 1040 1580 2220 2440 3720 4840
2026-05-08 07:45 3.09 735 24600 (1961) 380 (1981) 2110 549 732 952 1040 1580 2220 2440 3720 4840
2026-05-08 06:45 3.09 735 24600 (1961) 380 (1981) 2110 549 732 952 1040 1580 2220 2440 3720 4840
2026-05-08 05:45 3.09 735 24600 (1961) 380 (1981) 2110 549 732 952 1040 1580 2220 2440 3720 4840
2026-05-08 04:45 3.09 735 24600 (1961) 380 (1981) 2110 549 732 952 1040 1580 2220 2440 3720 4840
2026-05-08 03:45 3.09 735 24600 (1961) 380 (1981) 2110 549 732 952 1040 1580 2220 2440 3720 4840
2026-05-08 02:45 3.10 742 24600 (1961) 380 (1981) 2110 549 732 952 1040 1580 2220 2440 3720 4840
2026-05-08 01:45 3.10 742 24600 (1961) 380 (1981) 2110 549 732 952 1040 1580 2220 2440 3720 4840
2026-05-08 00:45 3.10 742 24600 (1961) 380 (1981) 2110 549 732 952 1040 1580 2220 2440 3720 4840
2026-05-07 23:45 3.10 742 24600 (1961) 380 (1981) 2110 549 732 952 1040 1580 2220 2440 3720 4840
2026-05-07 22:45 3.10 742 11300 (1961) 381 (1981) 2020 575 639 912 1050 1690 2190 2460 3620 6100
2026-05-07 21:45 3.11 750 11300 (1961) 381 (1981) 2020 575 639 912 1050 1690 2190 2460 3620 6100
2026-05-07 20:45 3.11 750 11300 (1961) 381 (1981) 2020 575 639 912 1050 1690 2190 2460 3620 6100
2026-05-07 19:45 3.11 750 11300 (1961) 381 (1981) 2020 575 639 912 1050 1690 2190 2460 3620 6100
2026-05-07 18:45 3.11 750 11300 (1961) 381 (1981) 2020 575 639 912 1050 1690 2190 2460 3620 6100
2026-05-07 17:45 3.12 757 11300 (1961) 381 (1981) 2020 575 639 912 1050 1690 2190 2460 3620 6100
2026-05-07 16:45 3.12 757 11300 (1961) 381 (1981) 2020 575 639 912 1050 1690 2190 2460 3620 6100
2026-05-07 15:45 3.13 765 11300 (1961) 381 (1981) 2020 575 639 912 1050 1690 2190 2460 3620 6100
2026-05-07 14:45 3.14 773 11300 (1961) 381 (1981) 2020 575 639 912 1050 1690 2190 2460 3620 6100
2026-05-07 13:45 3.14 773 11300 (1961) 381 (1981) 2020 575 639 912 1050 1690 2190 2460 3620 6100
2026-05-07 12:45 3.14 773 11300 (1961) 381 (1981) 2020 575 639 912 1050 1690 2190 2460 3620 6100
2026-05-07 11:45 3.13 765 11300 (1961) 381 (1981) 2020 575 639 912 1050 1690 2190 2460 3620 6100
2026-05-07 10:45 3.13 765 11300 (1961) 381 (1981) 2020 575 639 912 1050 1690 2190 2460 3620 6100
2026-05-07 09:45 3.13 765 11300 (1961) 381 (1981) 2020 575 639 912 1050 1690 2190 2460 3620 6100
2026-05-07 08:45 3.13 765 11300 (1961) 381 (1981) 2020 575 639 912 1050 1690 2190 2460 3620 6100
2026-05-07 07:45 3.13 765 11300 (1961) 381 (1981) 2020 575 639 912 1050 1690 2190 2460 3620 6100
2026-05-07 06:45 3.13 765 11300 (1961) 381 (1981) 2020 575 639 912 1050 1690 2190 2460 3620 6100
2026-05-07 05:45 3.14 773 11300 (1961) 381 (1981) 2020 575 639 912 1050 1690 2190 2460 3620 6100
2026-05-07 04:45 3.14 773 11300 (1961) 381 (1981) 2020 575 639 912 1050 1690 2190 2460 3620 6100
2026-05-07 03:45 3.14 773 11300 (1961) 381 (1981) 2020 575 639 912 1050 1690 2190 2460 3620 6100
2026-05-07 02:45 3.14 773 11300 (1961) 381 (1981) 2020 575 639 912 1050 1690 2190 2460 3620 6100
2026-05-07 01:45 3.14 773 11300 (1961) 381 (1981) 2020 575 639 912 1050 1690 2190 2460 3620 6100
2026-05-07 00:45 3.14 773 11300 (1961) 381 (1981) 2020 575 639 912 1050 1690 2190 2460 3620 6100
2026-05-06 23:45 3.15 780 11300 (1961) 381 (1981) 2020 575 639 912 1050 1690 2190 2460 3620 6100
2026-05-06 22:45 3.15 780 12600 (1958) 393 (1981) 2160 567 630 915 1030 1600 2300 2610 3420 7330
2026-05-06 21:45 3.15 780 12600 (1958) 393 (1981) 2160 567 630 915 1030 1600 2300 2610 3420 7330
2026-05-06 20:45 3.15 780 12600 (1958) 393 (1981) 2160 567 630 915 1030 1600 2300 2610 3420 7330
2026-05-06 19:45 3.16 788 12600 (1958) 393 (1981) 2160 567 630 915 1030 1600 2300 2610 3420 7330
2026-05-06 18:45 3.16 788 12600 (1958) 393 (1981) 2160 567 630 915 1030 1600 2300 2610 3420 7330
2026-05-06 17:45 3.16 788 12600 (1958) 393 (1981) 2160 567 630 915 1030 1600 2300 2610 3420 7330
2026-05-06 16:45 3.17 795 12600 (1958) 393 (1981) 2160 567 630 915 1030 1600 2300 2610 3420 7330
2026-05-06 15:45 3.17 795 12600 (1958) 393 (1981) 2160 567 630 915 1030 1600 2300 2610 3420 7330
2026-05-06 14:45 3.17 795 12600 (1958) 393 (1981) 2160 567 630 915 1030 1600 2300 2610 3420 7330
2026-05-06 13:45 3.18 803 12600 (1958) 393 (1981) 2160 567 630 915 1030 1600 2300 2610 3420 7330
2026-05-06 12:45 3.19 810 12600 (1958) 393 (1981) 2160 567 630 915 1030 1600 2300 2610 3420 7330
2026-05-06 11:45 3.18 803 12600 (1958) 393 (1981) 2160 567 630 915 1030 1600 2300 2610 3420 7330
2026-05-06 10:45 3.18 803 12600 (1958) 393 (1981) 2160 567 630 915 1030 1600 2300 2610 3420 7330
2026-05-06 09:45 3.18 803 12600 (1958) 393 (1981) 2160 567 630 915 1030 1600 2300 2610 3420 7330
2026-05-06 08:45 3.19 810 12600 (1958) 393 (1981) 2160 567 630 915 1030 1600 2300 2610 3420 7330
2026-05-06 07:45 3.19 810 12600 (1958) 393 (1981) 2160 567 630 915 1030 1600 2300 2610 3420 7330
2026-05-06 06:45 3.19 810 12600 (1958) 393 (1981) 2160 567 630 915 1030 1600 2300 2610 3420 7330
2026-05-06 05:45 3.19 810 12600 (1958) 393 (1981) 2160 567 630 915 1030 1600 2300 2610 3420 7330
2026-05-06 04:45 3.20 818 12600 (1958) 393 (1981) 2160 567 630 915 1030 1600 2300 2610 3420 7330
2026-05-06 03:45 3.20 818 12600 (1958) 393 (1981) 2160 567 630 915 1030 1600 2300 2610 3420 7330
2026-05-06 02:45 3.21 826 12600 (1958) 393 (1981) 2160 567 630 915 1030 1600 2300 2610 3420 7330
2026-05-06 01:45 3.21 826 12600 (1958) 393 (1981) 2160 567 630 915 1030 1600 2300 2610 3420 7330
2026-05-06 00:45 3.22 833 12600 (1958) 393 (1981) 2160 567 630 915 1030 1600 2300 2610 3420 7330
2026-05-05 23:45 3.23 841 12600 (1958) 393 (1981) 2160 567 630 915 1030 1600 2300 2610 3420 7330
2026-05-05 22:45 3.23 841 13300 (1958) 391 (1981) 2180 543 647 929 1030 1590 2510 2590 4250 6420
2026-05-05 21:45 3.23 841 13300 (1958) 391 (1981) 2180 543 647 929 1030 1590 2510 2590 4250 6420
2026-05-05 20:45 3.23 841 13300 (1958) 391 (1981) 2180 543 647 929 1030 1590 2510 2590 4250 6420
2026-05-05 19:45 3.23 841 13300 (1958) 391 (1981) 2180 543 647 929 1030 1590 2510 2590 4250 6420
2026-05-05 18:45 3.20 818 13300 (1958) 391 (1981) 2180 543 647 929 1030 1590 2510 2590 4250 6420
2026-05-05 17:45 3.19 810 13300 (1958) 391 (1981) 2180 543 647 929 1030 1590 2510 2590 4250 6420
2026-05-05 16:45 3.19 810 13300 (1958) 391 (1981) 2180 543 647 929 1030 1590 2510 2590 4250 6420
2026-05-05 15:45 3.18 803 13300 (1958) 391 (1981) 2180 543 647 929 1030 1590 2510 2590 4250 6420
2026-05-05 14:45 3.18 803 13300 (1958) 391 (1981) 2180 543 647 929 1030 1590 2510 2590 4250 6420
2026-05-05 13:45 3.17 795 13300 (1958) 391 (1981) 2180 543 647 929 1030 1590 2510 2590 4250 6420
2026-05-05 12:45 3.19 810 13300 (1958) 391 (1981) 2180 543 647 929 1030 1590 2510 2590 4250 6420
2026-05-05 11:45 3.20 818 13300 (1958) 391 (1981) 2180 543 647 929 1030 1590 2510 2590 4250 6420
2026-05-05 10:45 3.20 818 13300 (1958) 391 (1981) 2180 543 647 929 1030 1590 2510 2590 4250 6420
2026-05-05 09:45 3.20 818 13300 (1958) 391 (1981) 2180 543 647 929 1030 1590 2510 2590 4250 6420
2026-05-05 08:45 3.21 826 13300 (1958) 391 (1981) 2180 543 647 929 1030 1590 2510 2590 4250 6420
2026-05-05 07:45 3.19 810 13300 (1958) 391 (1981) 2180 543 647 929 1030 1590 2510 2590 4250 6420
2026-05-05 06:45 3.18 803 13300 (1958) 391 (1981) 2180 543 647 929 1030 1590 2510 2590 4250 6420
2026-05-05 05:45 3.20 818 13300 (1958) 391 (1981) 2180 543 647 929 1030 1590 2510 2590 4250 6420
2026-05-05 04:45 3.20 818 13300 (1958) 391 (1981) 2180 543 647 929 1030 1590 2510 2590 4250 6420
2026-05-05 03:45 3.20 818 13300 (1958) 391 (1981) 2180 543 647 929 1030 1590 2510 2590 4250 6420
2026-05-05 02:45 3.20 818 13300 (1958) 391 (1981) 2180 543 647 929 1030 1590 2510 2590 4250 6420
2026-05-05 01:45 3.20 818 13300 (1958) 391 (1981) 2180 543 647 929 1030 1590 2510 2590 4250 6420
2026-05-05 00:45 3.20 818 13300 (1958) 391 (1981) 2180 543 647 929 1030 1590 2510 2590 4250 6420
2026-05-04 23:45 3.21 826 13300 (1958) 391 (1981) 2180 543 647 929 1030 1590 2510 2590 4250 6420
2026-05-04 22:45 3.21 826 10800 (2011) 380 (1981) 2280 543 677 943 1010 1660 2890 3120 4490 6990
2026-05-04 21:45 3.21 826 10800 (2011) 380 (1981) 2280 543 677 943 1010 1660 2890 3120 4490 6990
2026-05-04 20:45 3.21 826 10800 (2011) 380 (1981) 2280 543 677 943 1010 1660 2890 3120 4490 6990
2026-05-04 19:45 3.22 833 10800 (2011) 380 (1981) 2280 543 677 943 1010 1660 2890 3120 4490 6990
2026-05-04 18:45 3.22 833 10800 (2011) 380 (1981) 2280 543 677 943 1010 1660 2890 3120 4490 6990
2026-05-04 17:45 3.21 826 10800 (2011) 380 (1981) 2280 543 677 943 1010 1660 2890 3120 4490 6990
2026-05-04 16:45 3.24 848 10800 (2011) 380 (1981) 2280 543 677 943 1010 1660 2890 3120 4490 6990
2026-05-04 15:45 3.20 818 10800 (2011) 380 (1981) 2280 543 677 943 1010 1660 2890 3120 4490 6990
2026-05-04 14:45 3.23 841 10800 (2011) 380 (1981) 2280 543 677 943 1010 1660 2890 3120 4490 6990
2026-05-04 13:45 3.20 818 10800 (2011) 380 (1981) 2280 543 677 943 1010 1660 2890 3120 4490 6990
2026-05-04 12:45 3.21 826 10800 (2011) 380 (1981) 2280 543 677 943 1010 1660 2890 3120 4490 6990
2026-05-04 11:45 3.22 833 10800 (2011) 380 (1981) 2280 543 677 943 1010 1660 2890 3120 4490 6990
2026-05-04 10:45 3.22 833 10800 (2011) 380 (1981) 2280 543 677 943 1010 1660 2890 3120 4490 6990
2026-05-04 09:45 3.22 833 10800 (2011) 380 (1981) 2280 543 677 943 1010 1660 2890 3120 4490 6990
2026-05-04 08:45 3.24 848 10800 (2011) 380 (1981) 2280 543 677 943 1010 1660 2890 3120 4490 6990
2026-05-04 07:45 3.25 856 10800 (2011) 380 (1981) 2280 543 677 943 1010 1660 2890 3120 4490 6990
2026-05-04 06:45 3.25 856 10800 (2011) 380 (1981) 2280 543 677 943 1010 1660 2890 3120 4490 6990
2026-05-04 05:45 3.25 856 10800 (2011) 380 (1981) 2280 543 677 943 1010 1660 2890 3120 4490 6990
2026-05-04 04:45 3.25 856 10800 (2011) 380 (1981) 2280 543 677 943 1010 1660 2890 3120 4490 6990
2026-05-04 03:45 3.25 856 10800 (2011) 380 (1981) 2280 543 677 943 1010 1660 2890 3120 4490 6990
2026-05-04 02:45 3.25 856 10800 (2011) 380 (1981) 2280 543 677 943 1010 1660 2890 3120 4490 6990
2026-05-04 01:45 3.25 856 10800 (2011) 380 (1981) 2280 543 677 943 1010 1660 2890 3120 4490 6990
2026-05-04 00:45 3.26 863 10800 (2011) 380 (1981) 2280 543 677 943 1010 1660 2890 3120 4490 6990
2026-05-03 23:45 3.26 863 10800 (2011) 380 (1981) 2280 543 677 943 1010 1660 2890 3120 4490 6990
2026-05-03 22:45 3.26 863 22100 (2011) 382 (1981) 2420 543 713 969 1050 1690 2910 3180 4110 6220
2026-05-03 21:45 3.27 871 22100 (2011) 382 (1981) 2420 543 713 969 1050 1690 2910 3180 4110 6220
2026-05-03 20:45 3.27 871 22100 (2011) 382 (1981) 2420 543 713 969 1050 1690 2910 3180 4110 6220
2026-05-03 19:45 3.27 871 22100 (2011) 382 (1981) 2420 543 713 969 1050 1690 2910 3180 4110 6220
2026-05-03 18:45 3.27 871 22100 (2011) 382 (1981) 2420 543 713 969 1050 1690 2910 3180 4110 6220
2026-05-03 17:45 3.28 879 22100 (2011) 382 (1981) 2420 543 713 969 1050 1690 2910 3180 4110 6220
2026-05-03 16:45 3.29 886 22100 (2011) 382 (1981) 2420 543 713 969 1050 1690 2910 3180 4110 6220
2026-05-03 15:45 3.29 886 22100 (2011) 382 (1981) 2420 543 713 969 1050 1690 2910 3180 4110 6220
2026-05-03 14:45 3.26 863 22100 (2011) 382 (1981) 2420 543 713 969 1050 1690 2910 3180 4110 6220
2026-05-03 13:45 3.29 886 22100 (2011) 382 (1981) 2420 543 713 969 1050 1690 2910 3180 4110 6220
2026-05-03 12:45 3.28 879 22100 (2011) 382 (1981) 2420 543 713 969 1050 1690 2910 3180 4110 6220
2026-05-03 11:45 3.28 879 22100 (2011) 382 (1981) 2420 543 713 969 1050 1690 2910 3180 4110 6220
2026-05-03 10:45 3.28 879 22100 (2011) 382 (1981) 2420 543 713 969 1050 1690 2910 3180 4110 6220
2026-05-03 09:45 3.29 886 22100 (2011) 382 (1981) 2420 543 713 969 1050 1690 2910 3180 4110 6220
2026-05-03 08:45 3.30 894 22100 (2011) 382 (1981) 2420 543 713 969 1050 1690 2910 3180 4110 6220
2026-05-03 07:45 3.30 894 22100 (2011) 382 (1981) 2420 543 713 969 1050 1690 2910 3180 4110 6220
2026-05-03 06:45 3.30 894 22100 (2011) 382 (1981) 2420 543 713 969 1050 1690 2910 3180 4110 6220
2026-05-03 05:45 3.31 901 22100 (2011) 382 (1981) 2420 543 713 969 1050 1690 2910 3180 4110 6220
2026-05-03 04:45 3.31 901 22100 (2011) 382 (1981) 2420 543 713 969 1050 1690 2910 3180 4110 6220
2026-05-03 03:45 3.31 901 22100 (2011) 382 (1981) 2420 543 713 969 1050 1690 2910 3180 4110 6220
2026-05-03 02:45 3.32 909 22100 (2011) 382 (1981) 2420 543 713 969 1050 1690 2910 3180 4110 6220
2026-05-03 01:45 3.32 909 22100 (2011) 382 (1981) 2420 543 713 969 1050 1690 2910 3180 4110 6220
2026-05-03 00:45 3.32 909 22100 (2011) 382 (1981) 2420 543 713 969 1050 1690 2910 3180 4110 6220
2026-05-02 23:45 3.33 917 22100 (2011) 382 (1981) 2420 543 713 969 1050 1690 2910 3180 4110 6220
2026-05-02 22:45 3.33 917 25800 (2011) 387 (1981) 2460 564 731 983 1040 1620 2720 3060 3960 6930
2026-05-02 21:45 3.33 917 25800 (2011) 387 (1981) 2460 564 731 983 1040 1620 2720 3060 3960 6930
2026-05-02 20:45 3.33 917 25800 (2011) 387 (1981) 2460 564 731 983 1040 1620 2720 3060 3960 6930
2026-05-02 19:45 3.34 924 25800 (2011) 387 (1981) 2460 564 731 983 1040 1620 2720 3060 3960 6930
2026-05-02 18:45 3.35 932 25800 (2011) 387 (1981) 2460 564 731 983 1040 1620 2720 3060 3960 6930
2026-05-02 17:45 3.35 932 25800 (2011) 387 (1981) 2460 564 731 983 1040 1620 2720 3060 3960 6930
2026-05-02 16:45 3.36 939 25800 (2011) 387 (1981) 2460 564 731 983 1040 1620 2720 3060 3960 6930
2026-05-02 15:45 3.36 939 25800 (2011) 387 (1981) 2460 564 731 983 1040 1620 2720 3060 3960 6930
2026-05-02 14:45 3.37 947 25800 (2011) 387 (1981) 2460 564 731 983 1040 1620 2720 3060 3960 6930
2026-05-02 13:45 3.37 947 25800 (2011) 387 (1981) 2460 564 731 983 1040 1620 2720 3060 3960 6930
2026-05-02 12:45 3.34 924 25800 (2011) 387 (1981) 2460 564 731 983 1040 1620 2720 3060 3960 6930
2026-05-02 11:45 3.37 947 25800 (2011) 387 (1981) 2460 564 731 983 1040 1620 2720 3060 3960 6930
2026-05-02 10:45 3.37 947 25800 (2011) 387 (1981) 2460 564 731 983 1040 1620 2720 3060 3960 6930
2026-05-02 09:45 3.38 955 25800 (2011) 387 (1981) 2460 564 731 983 1040 1620 2720 3060 3960 6930
2026-05-02 08:45 3.38 955 25800 (2011) 387 (1981) 2460 564 731 983 1040 1620 2720 3060 3960 6930
2026-05-02 07:45 3.38 955 25800 (2011) 387 (1981) 2460 564 731 983 1040 1620 2720 3060 3960 6930
2026-05-02 06:45 3.38 955 25800 (2011) 387 (1981) 2460 564 731 983 1040 1620 2720 3060 3960 6930
2026-05-02 05:45 3.38 955 25800 (2011) 387 (1981) 2460 564 731 983 1040 1620 2720 3060 3960 6930
2026-05-02 04:45 3.39 962 25800 (2011) 387 (1981) 2460 564 731 983 1040 1620 2720 3060 3960 6930
2026-05-02 03:45 3.39 962 25800 (2011) 387 (1981) 2460 564 731 983 1040 1620 2720 3060 3960 6930
2026-05-02 02:45 3.40 970 25800 (2011) 387 (1981) 2460 564 731 983 1040 1620 2720 3060 3960 6930
2026-05-02 01:45 3.40 970 25800 (2011) 387 (1981) 2460 564 731 983 1040 1620 2720 3060 3960 6930
2026-05-02 00:45 3.40 970 25800 (2011) 387 (1981) 2460 564 731 983 1040 1620 2720 3060 3960 6930
2026-05-01 23:45 3.40 970 25800 (2011) 387 (1981) 2460 564 731 983 1040 1620 2720 3060 3960 6930
2026-05-01 22:45 3.41 978 65000 (2017) 394 (1981) 2710 554 719 989 1020 1630 2350 2650 3910 5390
2026-05-01 21:45 3.41 978 65000 (2017) 394 (1981) 2710 554 719 989 1020 1630 2350 2650 3910 5390
2026-05-01 20:45 3.42 985 65000 (2017) 394 (1981) 2710 554 719 989 1020 1630 2350 2650 3910 5390
2026-05-01 19:45 3.42 985 65000 (2017) 394 (1981) 2710 554 719 989 1020 1630 2350 2650 3910 5390
2026-05-01 18:45 3.43 993 65000 (2017) 394 (1981) 2710 554 719 989 1020 1630 2350 2650 3910 5390
2026-05-01 17:45 3.44 1000 65000 (2017) 394 (1981) 2710 554 719 989 1020 1630 2350 2650 3910 5390
2026-05-01 16:45 3.44 1000 65000 (2017) 394 (1981) 2710 554 719 989 1020 1630 2350 2650 3910 5390
2026-05-01 15:45 3.45 1010 65000 (2017) 394 (1981) 2710 554 719 989 1020 1630 2350 2650 3910 5390
2026-05-01 14:45 3.45 1010 65000 (2017) 394 (1981) 2710 554 719 989 1020 1630 2350 2650 3910 5390
2026-05-01 13:45 3.44 1000 65000 (2017) 394 (1981) 2710 554 719 989 1020 1630 2350 2650 3910 5390
2026-05-01 12:45 3.46 1020 65000 (2017) 394 (1981) 2710 554 719 989 1020 1630 2350 2650 3910 5390
2026-05-01 11:45 3.46 1020 65000 (2017) 394 (1981) 2710 554 719 989 1020 1630 2350 2650 3910 5390
2026-05-01 10:45 3.46 1020 65000 (2017) 394 (1981) 2710 554 719 989 1020 1630 2350 2650 3910 5390
2026-05-01 09:45 3.46 1020 65000 (2017) 394 (1981) 2710 554 719 989 1020 1630 2350 2650 3910 5390
2026-05-01 08:45 3.46 1020 65000 (2017) 394 (1981) 2710 554 719 989 1020 1630 2350 2650 3910 5390
2026-05-01 07:45 3.46 1020 65000 (2017) 394 (1981) 2710 554 719 989 1020 1630 2350 2650 3910 5390
2026-05-01 06:45 3.47 1020 65000 (2017) 394 (1981) 2710 554 719 989 1020 1630 2350 2650 3910 5390
2026-05-01 05:45 3.47 1020 65000 (2017) 394 (1981) 2710 554 719 989 1020 1630 2350 2650 3910 5390
2026-05-01 04:45 3.47 1020 65000 (2017) 394 (1981) 2710 554 719 989 1020 1630 2350 2650 3910 5390
2026-05-01 03:45 3.48 1030 65000 (2017) 394 (1981) 2710 554 719 989 1020 1630 2350 2650 3910 5390
2026-05-01 02:45 3.48 1030 65000 (2017) 394 (1981) 2710 554 719 989 1020 1630 2350 2650 3910 5390
2026-05-01 01:45 3.48 1030 65000 (2017) 394 (1981) 2710 554 719 989 1020 1630 2350 2650 3910 5390
2026-05-01 00:45 3.48 1030 65000 (2017) 394 (1981) 2710 554 719 989 1020 1630 2350 2650 3910 5390
2026-04-30 23:45 3.49 1040 65000 (2017) 394 (1981) 2710 554 719 989 1020 1630 2350 2650 3910 5390
2026-04-30 22:45 3.49 1040 60100 (2017) 406 (1981) 2550 557 701 1010 1050 1620 2180 2380 2880 6240
2026-04-30 21:45 3.49 1040 60100 (2017) 406 (1981) 2550 557 701 1010 1050 1620 2180 2380 2880 6240
2026-04-30 20:45 3.49 1040 60100 (2017) 406 (1981) 2550 557 701 1010 1050 1620 2180 2380 2880 6240
2026-04-30 19:45 3.50 1050 60100 (2017) 406 (1981) 2550 557 701 1010 1050 1620 2180 2380 2880 6240
2026-04-30 18:45 3.50 1050 60100 (2017) 406 (1981) 2550 557 701 1010 1050 1620 2180 2380 2880 6240
2026-04-30 17:45 3.51 1050 60100 (2017) 406 (1981) 2550 557 701 1010 1050 1620 2180 2380 2880 6240
2026-04-30 16:45 3.51 1050 60100 (2017) 406 (1981) 2550 557 701 1010 1050 1620 2180 2380 2880 6240
2026-04-30 15:45 3.50 1050 60100 (2017) 406 (1981) 2550 557 701 1010 1050 1620 2180 2380 2880 6240
2026-04-30 14:45 3.52 1060 60100 (2017) 406 (1981) 2550 557 701 1010 1050 1620 2180 2380 2880 6240
2026-04-30 13:45 3.52 1060 60100 (2017) 406 (1981) 2550 557 701 1010 1050 1620 2180 2380 2880 6240
2026-04-30 12:45 3.52 1060 60100 (2017) 406 (1981) 2550 557 701 1010 1050 1620 2180 2380 2880 6240
2026-04-30 11:45 3.52 1060 60100 (2017) 406 (1981) 2550 557 701 1010 1050 1620 2180 2380 2880 6240
2026-04-30 10:45 3.52 1060 60100 (2017) 406 (1981) 2550 557 701 1010 1050 1620 2180 2380 2880 6240
2026-04-30 09:45 3.51 1050 60100 (2017) 406 (1981) 2550 557 701 1010 1050 1620 2180 2380 2880 6240
2026-04-30 08:45 3.51 1050 60100 (2017) 406 (1981) 2550 557 701 1010 1050 1620 2180 2380 2880 6240
2026-04-30 07:45 3.51 1050 60100 (2017) 406 (1981) 2550 557 701 1010 1050 1620 2180 2380 2880 6240
2026-04-30 06:45 3.51 1050 60100 (2017) 406 (1981) 2550 557 701 1010 1050 1620 2180 2380 2880 6240
2026-04-30 05:45 3.51 1050 60100 (2017) 406 (1981) 2550 557 701 1010 1050 1620 2180 2380 2880 6240
2026-04-30 04:45 3.51 1050 60100 (2017) 406 (1981) 2550 557 701 1010 1050 1620 2180 2380 2880 6240
2026-04-30 03:45 3.51 1050 60100 (2017) 406 (1981) 2550 557 701 1010 1050 1620 2180 2380 2880 6240
2026-04-30 02:45 3.51 1050 60100 (2017) 406 (1981) 2550 557 701 1010 1050 1620 2180 2380 2880 6240
2026-04-30 01:45 3.51 1050 60100 (2017) 406 (1981) 2550 557 701 1010 1050 1620 2180 2380 2880 6240
2026-04-30 00:45 3.51 1050 60100 (2017) 406 (1981) 2550 557 701 1010 1050 1620 2180 2380 2880 6240
2026-04-29 23:45 3.50 1050 60100 (2017) 406 (1981) 2550 557 701 1010 1050 1620 2180 2380 2880 6240
2026-04-29 22:45 3.50 1050 11000 (2021) 414 (1981) 1990 557 722 997 1060 1560 2150 2300 3080 5440
2026-04-29 21:45 3.50 1050 11000 (2021) 414 (1981) 1990 557 722 997 1060 1560 2150 2300 3080 5440
2026-04-29 20:45 3.50 1050 11000 (2021) 414 (1981) 1990 557 722 997 1060 1560 2150 2300 3080 5440
2026-04-29 19:45 3.50 1050 11000 (2021) 414 (1981) 1990 557 722 997 1060 1560 2150 2300 3080 5440
2026-04-29 18:45 3.50 1050 11000 (2021) 414 (1981) 1990 557 722 997 1060 1560 2150 2300 3080 5440
2026-04-29 17:45 3.50 1050 11000 (2021) 414 (1981) 1990 557 722 997 1060 1560 2150 2300 3080 5440
2026-04-29 16:45 3.50 1050 11000 (2021) 414 (1981) 1990 557 722 997 1060 1560 2150 2300 3080 5440
2026-04-29 15:45 3.50 1050 11000 (2021) 414 (1981) 1990 557 722 997 1060 1560 2150 2300 3080 5440
2026-04-29 14:45 3.49 1040 11000 (2021) 414 (1981) 1990 557 722 997 1060 1560 2150 2300 3080 5440
2026-04-29 13:45 3.51 1050 11000 (2021) 414 (1981) 1990 557 722 997 1060 1560 2150 2300 3080 5440
2026-04-29 12:45 3.51 1050 11000 (2021) 414 (1981) 1990 557 722 997 1060 1560 2150 2300 3080 5440
2026-04-29 11:45 3.49 1040 11000 (2021) 414 (1981) 1990 557 722 997 1060 1560 2150 2300 3080 5440
2026-04-29 10:45 3.50 1050 11000 (2021) 414 (1981) 1990 557 722 997 1060 1560 2150 2300 3080 5440
2026-04-29 09:45 3.50 1050 11000 (2021) 414 (1981) 1990 557 722 997 1060 1560 2150 2300 3080 5440
2026-04-29 08:45 3.50 1050 11000 (2021) 414 (1981) 1990 557 722 997 1060 1560 2150 2300 3080 5440
2026-04-29 07:45 3.50 1050 11000 (2021) 414 (1981) 1990 557 722 997 1060 1560 2150 2300 3080 5440
2026-04-29 06:45 3.51 1050 11000 (2021) 414 (1981) 1990 557 722 997 1060 1560 2150 2300 3080 5440
2026-04-29 05:45 3.50 1050 11000 (2021) 414 (1981) 1990 557 722 997 1060 1560 2150 2300 3080 5440
2026-04-29 04:45 3.50 1050 11000 (2021) 414 (1981) 1990 557 722 997 1060 1560 2150 2300 3080 5440
2026-04-29 03:45 3.50 1050 11000 (2021) 414 (1981) 1990 557 722 997 1060 1560 2150 2300 3080 5440
2026-04-29 02:45 3.50 1050 11000 (2021) 414 (1981) 1990 557 722 997 1060 1560 2150 2300 3080 5440
2026-04-29 01:45 3.49 1040 11000 (2021) 414 (1981) 1990 557 722 997 1060 1560 2150 2300 3080 5440
2026-04-29 00:45 3.49 1040 11000 (2021) 414 (1981) 1990 557 722 997 1060 1560 2150 2300 3080 5440
2026-04-28 23:45 3.49 1040 11000 (2021) 414 (1981) 1990 557 722 997 1060 1560 2150 2300 3080 5440
2026-04-28 22:45 3.49 1040 19000 (2014) 418 (1981) 2230 544 690 1020 1090 1560 2290 2500 3220 7030
2026-04-28 21:45 3.49 1040 19000 (2014) 418 (1981) 2230 544 690 1020 1090 1560 2290 2500 3220 7030
2026-04-28 20:45 3.48 1030 19000 (2014) 418 (1981) 2230 544 690 1020 1090 1560 2290 2500 3220 7030
2026-04-28 19:45 3.49 1040 19000 (2014) 418 (1981) 2230 544 690 1020 1090 1560 2290 2500 3220 7030
2026-04-28 18:45 3.49 1040 19000 (2014) 418 (1981) 2230 544 690 1020 1090 1560 2290 2500 3220 7030
2026-04-28 17:45 3.50 1050 19000 (2014) 418 (1981) 2230 544 690 1020 1090 1560 2290 2500 3220 7030
2026-04-28 16:45 3.50 1050 19000 (2014) 418 (1981) 2230 544 690 1020 1090 1560 2290 2500 3220 7030
2026-04-28 15:45 3.51 1050 19000 (2014) 418 (1981) 2230 544 690 1020 1090 1560 2290 2500 3220 7030
2026-04-28 14:45 3.50 1050 19000 (2014) 418 (1981) 2230 544 690 1020 1090 1560 2290 2500 3220 7030
2026-04-28 13:45 3.50 1050 19000 (2014) 418 (1981) 2230 544 690 1020 1090 1560 2290 2500 3220 7030
2026-04-28 12:45 3.50 1050 19000 (2014) 418 (1981) 2230 544 690 1020 1090 1560 2290 2500 3220 7030
2026-04-28 11:45 3.52 1060 19000 (2014) 418 (1981) 2230 544 690 1020 1090 1560 2290 2500 3220 7030
2026-04-28 10:45 3.55 1080 19000 (2014) 418 (1981) 2230 544 690 1020 1090 1560 2290 2500 3220 7030
2026-04-28 09:45 3.58 1110 19000 (2014) 418 (1981) 2230 544 690 1020 1090 1560 2290 2500 3220 7030
2026-04-28 08:45 3.62 1140 19000 (2014) 418 (1981) 2230 544 690 1020 1090 1560 2290 2500 3220 7030
2026-04-28 07:45 3.63 1150 19000 (2014) 418 (1981) 2230 544 690 1020 1090 1560 2290 2500 3220 7030
2026-04-28 06:45 3.60 1120 19000 (2014) 418 (1981) 2230 544 690 1020 1090 1560 2290 2500 3220 7030
2026-04-28 05:45 3.53 1070 19000 (2014) 418 (1981) 2230 544 690 1020 1090 1560 2290 2500 3220 7030
2026-04-28 04:45 3.53 1070 19000 (2014) 418 (1981) 2230 544 690 1020 1090 1560 2290 2500 3220 7030
2026-04-28 03:45 3.56 1090 19000 (2014) 418 (1981) 2230 544 690 1020 1090 1560 2290 2500 3220 7030
2026-04-28 02:45 3.56 1090 19000 (2014) 418 (1981) 2230 544 690 1020 1090 1560 2290 2500 3220 7030
2026-04-28 01:45 3.54 1080 19000 (2014) 418 (1981) 2230 544 690 1020 1090 1560 2290 2500 3220 7030
2026-04-28 00:45 3.52 1060 19000 (2014) 418 (1981) 2230 544 690 1020 1090 1560 2290 2500 3220 7030
2026-04-27 23:45 3.48 1030 19000 (2014) 418 (1981) 2230 544 690 1020 1090 1560 2290 2500 3220 7030
2026-04-27 22:45 3.34 924 33600 (2011) 429 (1981) 2210 565 744 1020 1120 1540 2210 2520 3490 4850
2026-04-27 21:45 3.25 856 33600 (2011) 429 (1981) 2210 565 744 1020 1120 1540 2210 2520 3490 4850
2026-04-27 20:45 3.22 833 33600 (2011) 429 (1981) 2210 565 744 1020 1120 1540 2210 2520 3490 4850
2026-04-27 19:45 3.23 841 33600 (2011) 429 (1981) 2210 565 744 1020 1120 1540 2210 2520 3490 4850
2026-04-27 18:45 3.27 871 33600 (2011) 429 (1981) 2210 565 744 1020 1120 1540 2210 2520 3490 4850
2026-04-27 17:45 3.25 856 33600 (2011) 429 (1981) 2210 565 744 1020 1120 1540 2210 2520 3490 4850
2026-04-27 16:45 3.27 871 33600 (2011) 429 (1981) 2210 565 744 1020 1120 1540 2210 2520 3490 4850
2026-04-27 15:45 3.26 863 33600 (2011) 429 (1981) 2210 565 744 1020 1120 1540 2210 2520 3490 4850
2026-04-27 14:45 3.27 871 33600 (2011) 429 (1981) 2210 565 744 1020 1120 1540 2210 2520 3490 4850
2026-04-27 13:45 3.27 871 33600 (2011) 429 (1981) 2210 565 744 1020 1120 1540 2210 2520 3490 4850
2026-04-27 12:45 3.27 871 33600 (2011) 429 (1981) 2210 565 744 1020 1120 1540 2210 2520 3490 4850
2026-04-27 11:45 3.27 871 33600 (2011) 429 (1981) 2210 565 744 1020 1120 1540 2210 2520 3490 4850
2026-04-27 10:45 3.28 879 33600 (2011) 429 (1981) 2210 565 744 1020 1120 1540 2210 2520 3490 4850
2026-04-27 09:45 3.30 894 33600 (2011) 429 (1981) 2210 565 744 1020 1120 1540 2210 2520 3490 4850
2026-04-27 08:45 3.32 909 33600 (2011) 429 (1981) 2210 565 744 1020 1120 1540 2210 2520 3490 4850
2026-04-27 07:45 3.29 886 33600 (2011) 429 (1981) 2210 565 744 1020 1120 1540 2210 2520 3490 4850
2026-04-27 06:45 3.32 909 33600 (2011) 429 (1981) 2210 565 744 1020 1120 1540 2210 2520 3490 4850
2026-04-27 05:45 3.32 909 33600 (2011) 429 (1981) 2210 565 744 1020 1120 1540 2210 2520 3490 4850
2026-04-27 04:45 3.33 917 33600 (2011) 429 (1981) 2210 565 744 1020 1120 1540 2210 2520 3490 4850
2026-04-27 03:45 3.33 917 33600 (2011) 429 (1981) 2210 565 744 1020 1120 1540 2210 2520 3490 4850
2026-04-27 02:45 3.33 917 33600 (2011) 429 (1981) 2210 565 744 1020 1120 1540 2210 2520 3490 4850
2026-04-27 01:45 3.34 924 33600 (2011) 429 (1981) 2210 565 744 1020 1120 1540 2210 2520 3490 4850
2026-04-27 00:45 3.34 924 33600 (2011) 429 (1981) 2210 565 744 1020 1120 1540 2210 2520 3490 4850
2026-04-26 23:45 3.35 932 33600 (2011) 429 (1981) 2210 565 744 1020 1120 1540 2210 2520 3490 4850
2026-04-26 22:45 3.35 932 54700 (2011) 443 (1981) 2560 579 743 1060 1160 1560 2220 2560 4010 5290
2026-04-26 21:45 3.36 939 54700 (2011) 443 (1981) 2560 579 743 1060 1160 1560 2220 2560 4010 5290
2026-04-26 20:45 3.37 947 54700 (2011) 443 (1981) 2560 579 743 1060 1160 1560 2220 2560 4010 5290
2026-04-26 19:45 3.37 947 54700 (2011) 443 (1981) 2560 579 743 1060 1160 1560 2220 2560 4010 5290
2026-04-26 18:45 3.38 955 54700 (2011) 443 (1981) 2560 579 743 1060 1160 1560 2220 2560 4010 5290
2026-04-26 17:45 3.39 962 54700 (2011) 443 (1981) 2560 579 743 1060 1160 1560 2220 2560 4010 5290
2026-04-26 16:45 3.40 970 54700 (2011) 443 (1981) 2560 579 743 1060 1160 1560 2220 2560 4010 5290
2026-04-26 15:45 3.39 962 54700 (2011) 443 (1981) 2560 579 743 1060 1160 1560 2220 2560 4010 5290
2026-04-26 14:45 3.40 970 54700 (2011) 443 (1981) 2560 579 743 1060 1160 1560 2220 2560 4010 5290
2026-04-26 13:45 3.41 978 54700 (2011) 443 (1981) 2560 579 743 1060 1160 1560 2220 2560 4010 5290
2026-04-26 12:45 3.42 985 54700 (2011) 443 (1981) 2560 579 743 1060 1160 1560 2220 2560 4010 5290
2026-04-26 11:45 3.42 985 54700 (2011) 443 (1981) 2560 579 743 1060 1160 1560 2220 2560 4010 5290
2026-04-26 10:45 3.44 1000 54700 (2011) 443 (1981) 2560 579 743 1060 1160 1560 2220 2560 4010 5290
2026-04-26 09:45 3.44 1000 54700 (2011) 443 (1981) 2560 579 743 1060 1160 1560 2220 2560 4010 5290
2026-04-26 08:45 3.44 1000 54700 (2011) 443 (1981) 2560 579 743 1060 1160 1560 2220 2560 4010 5290
2026-04-26 07:45 3.45 1010 54700 (2011) 443 (1981) 2560 579 743 1060 1160 1560 2220 2560 4010 5290
2026-04-26 06:45 3.45 1010 54700 (2011) 443 (1981) 2560 579 743 1060 1160 1560 2220 2560 4010 5290
2026-04-26 05:45 3.46 1020 54700 (2011) 443 (1981) 2560 579 743 1060 1160 1560 2220 2560 4010 5290
2026-04-26 04:45 3.46 1020 54700 (2011) 443 (1981) 2560 579 743 1060 1160 1560 2220 2560 4010 5290
2026-04-26 03:45 3.47 1020 54700 (2011) 443 (1981) 2560 579 743 1060 1160 1560 2220 2560 4010 5290
2026-04-26 02:45 3.48 1030 54700 (2011) 443 (1981) 2560 579 743 1060 1160 1560 2220 2560 4010 5290
2026-04-26 01:45 3.48 1030 54700 (2011) 443 (1981) 2560 579 743 1060 1160 1560 2220 2560 4010 5290
2026-04-26 00:45 3.49 1040 54700 (2011) 443 (1981) 2560 579 743 1060 1160 1560 2220 2560 4010 5290
2026-04-25 23:45 3.50 1050 54700 (2011) 443 (1981) 2560 579 743 1060 1160 1560 2220 2560 4010 5290
2026-04-25 22:45 3.50 1050 42100 (2011) 450 (1963) 2570 580 690 1060 1120 1560 2350 2710 3410 8700
2026-04-25 21:45 3.51 1050 42100 (2011) 450 (1963) 2570 580 690 1060 1120 1560 2350 2710 3410 8700
2026-04-25 20:45 3.52 1060 42100 (2011) 450 (1963) 2570 580 690 1060 1120 1560 2350 2710 3410 8700
2026-04-25 19:45 3.52 1060 42100 (2011) 450 (1963) 2570 580 690 1060 1120 1560 2350 2710 3410 8700
2026-04-25 18:45 3.53 1070 42100 (2011) 450 (1963) 2570 580 690 1060 1120 1560 2350 2710 3410 8700
2026-04-25 17:45 3.53 1070 42100 (2011) 450 (1963) 2570 580 690 1060 1120 1560 2350 2710 3410 8700
2026-04-25 16:45 3.55 1080 42100 (2011) 450 (1963) 2570 580 690 1060 1120 1560 2350 2710 3410 8700
2026-04-25 15:45 3.55 1080 42100 (2011) 450 (1963) 2570 580 690 1060 1120 1560 2350 2710 3410 8700
2026-04-25 14:45 3.54 1080 42100 (2011) 450 (1963) 2570 580 690 1060 1120 1560 2350 2710 3410 8700
2026-04-25 13:45 3.55 1080 42100 (2011) 450 (1963) 2570 580 690 1060 1120 1560 2350 2710 3410 8700
2026-04-25 12:45 3.54 1080 42100 (2011) 450 (1963) 2570 580 690 1060 1120 1560 2350 2710 3410 8700
2026-04-25 11:45 3.52 1060 42100 (2011) 450 (1963) 2570 580 690 1060 1120 1560 2350 2710 3410 8700
2026-04-25 10:45 3.52 1060 42100 (2011) 450 (1963) 2570 580 690 1060 1120 1560 2350 2710 3410 8700
2026-04-25 09:45 3.49 1040 42100 (2011) 450 (1963) 2570 580 690 1060 1120 1560 2350 2710 3410 8700
2026-04-25 08:45 3.46 1020 42100 (2011) 450 (1963) 2570 580 690 1060 1120 1560 2350 2710 3410 8700
2026-04-25 07:45 3.43 993 42100 (2011) 450 (1963) 2570 580 690 1060 1120 1560 2350 2710 3410 8700
2026-04-25 06:45 3.40 970 42100 (2011) 450 (1963) 2570 580 690 1060 1120 1560 2350 2710 3410 8700
2026-04-25 05:45 3.37 947 42100 (2011) 450 (1963) 2570 580 690 1060 1120 1560 2350 2710 3410 8700
2026-04-25 04:45 3.35 932 42100 (2011) 450 (1963) 2570 580 690 1060 1120 1560 2350 2710 3410 8700
2026-04-25 03:45 3.32 909 42100 (2011) 450 (1963) 2570 580 690 1060 1120 1560 2350 2710 3410 8700
2026-04-25 02:45 3.28 879 42100 (2011) 450 (1963) 2570 580 690 1060 1120 1560 2350 2710 3410 8700
2026-04-25 01:45 3.23 841 42100 (2011) 450 (1963) 2570 580 690 1060 1120 1560 2350 2710 3410 8700
2026-04-25 00:45 3.18 803 42100 (2011) 450 (1963) 2570 580 690 1060 1120 1560 2350 2710 3410 8700
2026-04-24 23:45 3.13 765 42100 (2011) 450 (1963) 2570 580 690 1060 1120 1560 2350 2710 3410 8700
2026-04-24 22:45 3.10 742 18100 (1973) 450 (1963) 2390 604 726 1060 1120 1530 2430 2760 3930 6990
2026-04-24 21:45 3.08 727 18100 (1973) 450 (1963) 2390 604 726 1060 1120 1530 2430 2760 3930 6990
2026-04-24 20:45 3.07 720 18100 (1973) 450 (1963) 2390 604 726 1060 1120 1530 2430 2760 3930 6990
2026-04-24 19:45 3.06 712 18100 (1973) 450 (1963) 2390 604 726 1060 1120 1530 2430 2760 3930 6990
2026-04-24 18:45 3.06 712 18100 (1973) 450 (1963) 2390 604 726 1060 1120 1530 2430 2760 3930 6990
2026-04-24 17:45 3.06 712 18100 (1973) 450 (1963) 2390 604 726 1060 1120 1530 2430 2760 3930 6990
2026-04-24 16:45 3.05 705 18100 (1973) 450 (1963) 2390 604 726 1060 1120 1530 2430 2760 3930 6990
2026-04-24 15:45 3.05 705 18100 (1973) 450 (1963) 2390 604 726 1060 1120 1530 2430 2760 3930 6990
2026-04-24 14:45 3.06 712 18100 (1973) 450 (1963) 2390 604 726 1060 1120 1530 2430 2760 3930 6990
2026-04-24 13:45 3.06 712 18100 (1973) 450 (1963) 2390 604 726 1060 1120 1530 2430 2760 3930 6990
2026-04-24 12:45 3.07 720 18100 (1973) 450 (1963) 2390 604 726 1060 1120 1530 2430 2760 3930 6990
2026-04-24 11:45 3.04 697 18100 (1973) 450 (1963) 2390 604 726 1060 1120 1530 2430 2760 3930 6990
2026-04-24 10:45 3.01 675 18100 (1973) 450 (1963) 2390 604 726 1060 1120 1530 2430 2760 3930 6990
2026-04-24 09:45 3.02 682 18100 (1973) 450 (1963) 2390 604 726 1060 1120 1530 2430 2760 3930 6990
2026-04-24 08:45 2.99 660 18100 (1973) 450 (1963) 2390 604 726 1060 1120 1530 2430 2760 3930 6990
2026-04-24 07:45 2.94 622 18100 (1973) 450 (1963) 2390 604 726 1060 1120 1530 2430 2760 3930 6990
2026-04-24 06:45 2.97 644 18100 (1973) 450 (1963) 2390 604 726 1060 1120 1530 2430 2760 3930 6990
2026-04-24 05:45 2.97 644 18100 (1973) 450 (1963) 2390 604 726 1060 1120 1530 2430 2760 3930 6990
2026-04-24 04:45 2.97 644 18100 (1973) 450 (1963) 2390 604 726 1060 1120 1530 2430 2760 3930 6990
2026-04-24 03:45 2.97 644 18100 (1973) 450 (1963) 2390 604 726 1060 1120 1530 2430 2760 3930 6990
2026-04-24 02:45 2.97 644 18100 (1973) 450 (1963) 2390 604 726 1060 1120 1530 2430 2760 3930 6990
2026-04-24 01:45 2.98 652 18100 (1973) 450 (1963) 2390 604 726 1060 1120 1530 2430 2760 3930 6990
2026-04-24 00:45 2.98 652 18100 (1973) 450 (1963) 2390 604 726 1060 1120 1530 2430 2760 3930 6990
2026-04-23 23:45 2.97 644 18100 (1973) 450 (1963) 2390 604 726 1060 1120 1530 2430 2760 3930 6990
2026-04-23 22:45 2.98 652 29100 (1973) 461 (1963) 2390 601 697 1010 1120 1470 2540 2730 3650 7540
2026-04-23 21:45 2.98 652 29100 (1973) 461 (1963) 2390 601 697 1010 1120 1470 2540 2730 3650 7540
2026-04-23 20:45 2.98 652 29100 (1973) 461 (1963) 2390 601 697 1010 1120 1470 2540 2730 3650 7540
2026-04-23 19:45 2.98 652 29100 (1973) 461 (1963) 2390 601 697 1010 1120 1470 2540 2730 3650 7540
2026-04-23 18:45 2.98 652 29100 (1973) 461 (1963) 2390 601 697 1010 1120 1470 2540 2730 3650 7540
2026-04-23 17:45 2.99 660 29100 (1973) 461 (1963) 2390 601 697 1010 1120 1470 2540 2730 3650 7540
2026-04-23 16:45 2.97 644 29100 (1973) 461 (1963) 2390 601 697 1010 1120 1470 2540 2730 3650 7540
2026-04-23 15:45 2.97 644 29100 (1973) 461 (1963) 2390 601 697 1010 1120 1470 2540 2730 3650 7540
2026-04-23 14:45 3.00 667 29100 (1973) 461 (1963) 2390 601 697 1010 1120 1470 2540 2730 3650 7540
2026-04-23 13:45 2.98 652 29100 (1973) 461 (1963) 2390 601 697 1010 1120 1470 2540 2730 3650 7540
2026-04-23 12:45 2.96 637 29100 (1973) 461 (1963) 2390 601 697 1010 1120 1470 2540 2730 3650 7540
2026-04-23 11:45 3.00 667 29100 (1973) 461 (1963) 2390 601 697 1010 1120 1470 2540 2730 3650 7540
2026-04-23 10:45 2.96 637 29100 (1973) 461 (1963) 2390 601 697 1010 1120 1470 2540 2730 3650 7540
2026-04-23 09:45 2.99 660 29100 (1973) 461 (1963) 2390 601 697 1010 1120 1470 2540 2730 3650 7540
2026-04-23 08:45 2.99 660 29100 (1973) 461 (1963) 2390 601 697 1010 1120 1470 2540 2730 3650 7540
2026-04-23 07:45 2.98 652 29100 (1973) 461 (1963) 2390 601 697 1010 1120 1470 2540 2730 3650 7540
2026-04-23 06:45 2.99 660 29100 (1973) 461 (1963) 2390 601 697 1010 1120 1470 2540 2730 3650 7540
2026-04-23 05:45 3.00 667 29100 (1973) 461 (1963) 2390 601 697 1010 1120 1470 2540 2730 3650 7540
2026-04-23 04:45 3.00 667 29100 (1973) 461 (1963) 2390 601 697 1010 1120 1470 2540 2730 3650 7540
2026-04-23 03:45 3.00 667 29100 (1973) 461 (1963) 2390 601 697 1010 1120 1470 2540 2730 3650 7540
2026-04-23 02:45 3.00 667 29100 (1973) 461 (1963) 2390 601 697 1010 1120 1470 2540 2730 3650 7540
2026-04-23 01:45 3.00 667 29100 (1973) 461 (1963) 2390 601 697 1010 1120 1470 2540 2730 3650 7540
2026-04-23 00:45 3.00 667 29100 (1973) 461 (1963) 2390 601 697 1010 1120 1470 2540 2730 3650 7540
2026-04-22 23:45 3.00 667 29100 (1973) 461 (1963) 2390 601 697 1010 1120 1470 2540 2730 3650 7540
2026-04-22 22:45 3.00 667 9030 (1973) 476 (1963) 1960 607 697 974 1130 1460 2400 2640 3750 5240
2026-04-22 21:45 3.01 675 9030 (1973) 476 (1963) 1960 607 697 974 1130 1460 2400 2640 3750 5240
2026-04-22 20:45 3.01 675 9030 (1973) 476 (1963) 1960 607 697 974 1130 1460 2400 2640 3750 5240
2026-04-22 19:45 3.01 675 9030 (1973) 476 (1963) 1960 607 697 974 1130 1460 2400 2640 3750 5240
2026-04-22 18:45 3.02 682 9030 (1973) 476 (1963) 1960 607 697 974 1130 1460 2400 2640 3750 5240
2026-04-22 17:45 3.02 682 9030 (1973) 476 (1963) 1960 607 697 974 1130 1460 2400 2640 3750 5240
2026-04-22 16:45 3.03 690 9030 (1973) 476 (1963) 1960 607 697 974 1130 1460 2400 2640 3750 5240
2026-04-22 15:45 3.00 667 9030 (1973) 476 (1963) 1960 607 697 974 1130 1460 2400 2640 3750 5240
2026-04-22 14:45 3.00 667 9030 (1973) 476 (1963) 1960 607 697 974 1130 1460 2400 2640 3750 5240
2026-04-22 13:45 3.00 667 9030 (1973) 476 (1963) 1960 607 697 974 1130 1460 2400 2640 3750 5240
2026-04-22 12:45 2.99 660 9030 (1973) 476 (1963) 1960 607 697 974 1130 1460 2400 2640 3750 5240
2026-04-22 11:45 3.00 667 9030 (1973) 476 (1963) 1960 607 697 974 1130 1460 2400 2640 3750 5240
2026-04-22 10:45 3.03 690 9030 (1973) 476 (1963) 1960 607 697 974 1130 1460 2400 2640 3750 5240
2026-04-22 09:45 3.03 690 9030 (1973) 476 (1963) 1960 607 697 974 1130 1460 2400 2640 3750 5240
2026-04-22 08:45 3.03 690 9030 (1973) 476 (1963) 1960 607 697 974 1130 1460 2400 2640 3750 5240
2026-04-22 07:45 3.03 690 9030 (1973) 476 (1963) 1960 607 697 974 1130 1460 2400 2640 3750 5240
2026-04-22 06:45 3.03 690 9030 (1973) 476 (1963) 1960 607 697 974 1130 1460 2400 2640 3750 5240
2026-04-22 05:45 3.04 697 9030 (1973) 476 (1963) 1960 607 697 974 1130 1460 2400 2640 3750 5240
2026-04-22 04:45 3.04 697 9030 (1973) 476 (1963) 1960 607 697 974 1130 1460 2400 2640 3750 5240
2026-04-22 03:45 3.04 697 9030 (1973) 476 (1963) 1960 607 697 974 1130 1460 2400 2640 3750 5240
2026-04-22 02:45 3.04 697 9030 (1973) 476 (1963) 1960 607 697 974 1130 1460 2400 2640 3750 5240
2026-04-22 01:45 3.04 697 9030 (1973) 476 (1963) 1960 607 697 974 1130 1460 2400 2640 3750 5240
2026-04-22 00:45 3.04 697 9030 (1973) 476 (1963) 1960 607 697 974 1130 1460 2400 2640 3750 5240
2026-04-21 23:45 3.05 705 9030 (1973) 476 (1963) 1960 607 697 974 1130 1460 2400 2640 3750 5240
2026-04-21 22:45 3.05 705 13500 (1992) 447 (1981) 2030 621 706 983 1100 1500 2610 2850 3490 4230
2026-04-21 21:45 3.06 712 13500 (1992) 447 (1981) 2030 621 706 983 1100 1500 2610 2850 3490 4230
2026-04-21 20:45 3.06 712 13500 (1992) 447 (1981) 2030 621 706 983 1100 1500 2610 2850 3490 4230
2026-04-21 19:45 3.06 712 13500 (1992) 447 (1981) 2030 621 706 983 1100 1500 2610 2850 3490 4230
2026-04-21 18:45 3.07 720 13500 (1992) 447 (1981) 2030 621 706 983 1100 1500 2610 2850 3490 4230
2026-04-21 17:45 3.07 720 13500 (1992) 447 (1981) 2030 621 706 983 1100 1500 2610 2850 3490 4230
2026-04-21 16:45 3.06 712 13500 (1992) 447 (1981) 2030 621 706 983 1100 1500 2610 2850 3490 4230
2026-04-21 15:45 3.08 727 13500 (1992) 447 (1981) 2030 621 706 983 1100 1500 2610 2850 3490 4230
2026-04-21 14:45 3.08 727 13500 (1992) 447 (1981) 2030 621 706 983 1100 1500 2610 2850 3490 4230
2026-04-21 13:45 3.06 712 13500 (1992) 447 (1981) 2030 621 706 983 1100 1500 2610 2850 3490 4230
2026-04-21 12:45 3.07 720 13500 (1992) 447 (1981) 2030 621 706 983 1100 1500 2610 2850 3490 4230
2026-04-21 11:45 3.07 720 13500 (1992) 447 (1981) 2030 621 706 983 1100 1500 2610 2850 3490 4230
2026-04-21 10:45 3.07 720 13500 (1992) 447 (1981) 2030 621 706 983 1100 1500 2610 2850 3490 4230
2026-04-21 09:45 3.09 735 13500 (1992) 447 (1981) 2030 621 706 983 1100 1500 2610 2850 3490 4230
2026-04-21 08:45 3.10 742 13500 (1992) 447 (1981) 2030 621 706 983 1100 1500 2610 2850 3490 4230
2026-04-21 07:45 3.10 742 13500 (1992) 447 (1981) 2030 621 706 983 1100 1500 2610 2850 3490 4230
2026-04-21 06:45 3.10 742 13500 (1992) 447 (1981) 2030 621 706 983 1100 1500 2610 2850 3490 4230
2026-04-21 05:45 3.11 750 13500 (1992) 447 (1981) 2030 621 706 983 1100 1500 2610 2850 3490 4230
2026-04-21 04:45 3.11 750 13500 (1992) 447 (1981) 2030 621 706 983 1100 1500 2610 2850 3490 4230
2026-04-21 03:45 3.11 750 13500 (1992) 447 (1981) 2030 621 706 983 1100 1500 2610 2850 3490 4230
2026-04-21 02:45 3.12 757 13500 (1992) 447 (1981) 2030 621 706 983 1100 1500 2610 2850 3490 4230
2026-04-21 01:45 3.12 757 13500 (1992) 447 (1981) 2030 621 706 983 1100 1500 2610 2850 3490 4230
2026-04-21 00:45 3.12 757 13500 (1992) 447 (1981) 2030 621 706 983 1100 1500 2610 2850 3490 4230
2026-04-20 23:45 3.12 757 13500 (1992) 447 (1981) 2030 621 706 983 1100 1500 2610 2850 3490 4230
2026-04-20 22:45 3.13 765 12900 (1973) 419 (1981) 1970 628 727 970 1110 1510 2370 2560 4010 5130
2026-04-20 21:45 3.13 765 12900 (1973) 419 (1981) 1970 628 727 970 1110 1510 2370 2560 4010 5130
2026-04-20 20:45 3.14 773 12900 (1973) 419 (1981) 1970 628 727 970 1110 1510 2370 2560 4010 5130
2026-04-20 19:45 3.14 773 12900 (1973) 419 (1981) 1970 628 727 970 1110 1510 2370 2560 4010 5130
2026-04-20 18:45 3.14 773 12900 (1973) 419 (1981) 1970 628 727 970 1110 1510 2370 2560 4010 5130
2026-04-20 17:45 3.15 780 12900 (1973) 419 (1981) 1970 628 727 970 1110 1510 2370 2560 4010 5130
2026-04-20 16:45 3.16 788 12900 (1973) 419 (1981) 1970 628 727 970 1110 1510 2370 2560 4010 5130
2026-04-20 15:45 3.16 788 12900 (1973) 419 (1981) 1970 628 727 970 1110 1510 2370 2560 4010 5130
2026-04-20 14:45 3.14 773 12900 (1973) 419 (1981) 1970 628 727 970 1110 1510 2370 2560 4010 5130
2026-04-20 13:45 3.17 795 12900 (1973) 419 (1981) 1970 628 727 970 1110 1510 2370 2560 4010 5130
2026-04-20 12:45 3.17 795 12900 (1973) 419 (1981) 1970 628 727 970 1110 1510 2370 2560 4010 5130
2026-04-20 11:45 3.17 795 12900 (1973) 419 (1981) 1970 628 727 970 1110 1510 2370 2560 4010 5130
2026-04-20 10:45 3.17 795 12900 (1973) 419 (1981) 1970 628 727 970 1110 1510 2370 2560 4010 5130
2026-04-20 09:45 3.17 795 12900 (1973) 419 (1981) 1970 628 727 970 1110 1510 2370 2560 4010 5130
2026-04-20 08:45 3.17 795 12900 (1973) 419 (1981) 1970 628 727 970 1110 1510 2370 2560 4010 5130
2026-04-20 07:45 3.17 795 12900 (1973) 419 (1981) 1970 628 727 970 1110 1510 2370 2560 4010 5130
2026-04-20 06:45 3.17 795 12900 (1973) 419 (1981) 1970 628 727 970 1110 1510 2370 2560 4010 5130
2026-04-20 05:45 3.18 803 12900 (1973) 419 (1981) 1970 628 727 970 1110 1510 2370 2560 4010 5130
2026-04-20 04:45 3.18 803 12900 (1973) 419 (1981) 1970 628 727 970 1110 1510 2370 2560 4010 5130
2026-04-20 03:45 3.18 803 12900 (1973) 419 (1981) 1970 628 727 970 1110 1510 2370 2560 4010 5130
2026-04-20 02:45 3.17 795 12900 (1973) 419 (1981) 1970 628 727 970 1110 1510 2370 2560 4010 5130
2026-04-20 01:45 3.17 795 12900 (1973) 419 (1981) 1970 628 727 970 1110 1510 2370 2560 4010 5130
2026-04-20 00:45 3.17 795 12900 (1973) 419 (1981) 1970 628 727 970 1110 1510 2370 2560 4010 5130
2026-04-19 23:45 3.17 795 12900 (1973) 419 (1981) 1970 628 727 970 1110 1510 2370 2560 4010 5130
2026-04-19 22:45 3.16 788 7580 (1991) 394 (1981) 1830 633 748 934 1060 1530 2150 2500 3060 4920
2026-04-19 21:45 3.16 788 7580 (1991) 394 (1981) 1830 633 748 934 1060 1530 2150 2500 3060 4920
2026-04-19 20:45 3.16 788 7580 (1991) 394 (1981) 1830 633 748 934 1060 1530 2150 2500 3060 4920
2026-04-19 19:45 3.16 788 7580 (1991) 394 (1981) 1830 633 748 934 1060 1530 2150 2500 3060 4920
2026-04-19 18:45 3.15 780 7580 (1991) 394 (1981) 1830 633 748 934 1060 1530 2150 2500 3060 4920
2026-04-19 17:45 3.16 788 7580 (1991) 394 (1981) 1830 633 748 934 1060 1530 2150 2500 3060 4920
2026-04-19 16:45 3.13 765 7580 (1991) 394 (1981) 1830 633 748 934 1060 1530 2150 2500 3060 4920
2026-04-19 15:45 3.16 788 7580 (1991) 394 (1981) 1830 633 748 934 1060 1530 2150 2500 3060 4920
2026-04-19 14:45 3.15 780 7580 (1991) 394 (1981) 1830 633 748 934 1060 1530 2150 2500 3060 4920
2026-04-19 13:45 3.14 773 7580 (1991) 394 (1981) 1830 633 748 934 1060 1530 2150 2500 3060 4920
2026-04-19 12:45 3.11 750 7580 (1991) 394 (1981) 1830 633 748 934 1060 1530 2150 2500 3060 4920
2026-04-19 11:45 3.12 757 7580 (1991) 394 (1981) 1830 633 748 934 1060 1530 2150 2500 3060 4920
2026-04-19 10:45 3.09 735 7580 (1991) 394 (1981) 1830 633 748 934 1060 1530 2150 2500 3060 4920
2026-04-19 09:45 3.09 735 7580 (1991) 394 (1981) 1830 633 748 934 1060 1530 2150 2500 3060 4920
2026-04-19 08:45 3.07 720 7580 (1991) 394 (1981) 1830 633 748 934 1060 1530 2150 2500 3060 4920
2026-04-19 07:45 3.06 712 7580 (1991) 394 (1981) 1830 633 748 934 1060 1530 2150 2500 3060 4920
2026-04-19 06:45 3.05 705 7580 (1991) 394 (1981) 1830 633 748 934 1060 1530 2150 2500 3060 4920
2026-04-19 05:45 3.04 697 7580 (1991) 394 (1981) 1830 633 748 934 1060 1530 2150 2500 3060 4920
2026-04-19 04:45 3.04 697 7580 (1991) 394 (1981) 1830 633 748 934 1060 1530 2150 2500 3060 4920
2026-04-19 03:45 3.03 690 7580 (1991) 394 (1981) 1830 633 748 934 1060 1530 2150 2500 3060 4920
2026-04-19 02:45 3.03 690 7580 (1991) 394 (1981) 1830 633 748 934 1060 1530 2150 2500 3060 4920
2026-04-19 01:45 3.03 690 7580 (1991) 394 (1981) 1830 633 748 934 1060 1530 2150 2500 3060 4920
2026-04-19 00:45 3.02 682 7580 (1991) 394 (1981) 1830 633 748 934 1060 1530 2150 2500 3060 4920
2026-04-18 23:45 3.02 682 7580 (1991) 394 (1981) 1830 633 748 934 1060 1530 2150 2500 3060 4920
2026-04-18 22:45 3.01 675 14600 (1939) 380 (1981) 1860 635 737 923 1040 1460 1980 2170 3460 4090
2026-04-18 21:45 3.00 667 14600 (1939) 380 (1981) 1860 635 737 923 1040 1460 1980 2170 3460 4090
2026-04-18 20:45 3.00 667 14600 (1939) 380 (1981) 1860 635 737 923 1040 1460 1980 2170 3460 4090
2026-04-18 19:45 2.99 660 14600 (1939) 380 (1981) 1860 635 737 923 1040 1460 1980 2170 3460 4090
2026-04-18 18:45 3.00 667 14600 (1939) 380 (1981) 1860 635 737 923 1040 1460 1980 2170 3460 4090
2026-04-18 16:45 3.00 667 14600 (1939) 380 (1981) 1860 635 737 923 1040 1460 1980 2170 3460 4090
2026-04-18 15:45 2.99 660 14600 (1939) 380 (1981) 1860 635 737 923 1040 1460 1980 2170 3460 4090
2026-04-18 14:45 2.99 660 14600 (1939) 380 (1981) 1860 635 737 923 1040 1460 1980 2170 3460 4090
2026-04-18 13:45 2.99 660 14600 (1939) 380 (1981) 1860 635 737 923 1040 1460 1980 2170 3460 4090
2026-04-18 12:45 2.99 660 14600 (1939) 380 (1981) 1860 635 737 923 1040 1460 1980 2170 3460 4090
2026-04-18 11:45 2.99 660 14600 (1939) 380 (1981) 1860 635 737 923 1040 1460 1980 2170 3460 4090
2026-04-18 10:45 2.99 660 14600 (1939) 380 (1981) 1860 635 737 923 1040 1460 1980 2170 3460 4090
2026-04-18 09:45 2.97 644 14600 (1939) 380 (1981) 1860 635 737 923 1040 1460 1980 2170 3460 4090
2026-04-18 08:45 2.98 652 14600 (1939) 380 (1981) 1860 635 737 923 1040 1460 1980 2170 3460 4090
2026-04-18 07:45 2.98 652 14600 (1939) 380 (1981) 1860 635 737 923 1040 1460 1980 2170 3460 4090
2026-04-18 06:45 2.97 644 14600 (1939) 380 (1981) 1860 635 737 923 1040 1460 1980 2170 3460 4090
2026-04-18 05:45 2.97 644 14600 (1939) 380 (1981) 1860 635 737 923 1040 1460 1980 2170 3460 4090
2026-04-18 04:45 2.92 607 14600 (1939) 380 (1981) 1860 635 737 923 1040 1460 1980 2170 3460 4090
2026-04-18 03:45 2.93 614 14600 (1939) 380 (1981) 1860 635 737 923 1040 1460 1980 2170 3460 4090
2026-04-18 02:45 2.95 629 14600 (1939) 380 (1981) 1860 635 737 923 1040 1460 1980 2170 3460 4090
2026-04-18 01:45 2.94 622 14600 (1939) 380 (1981) 1860 635 737 923 1040 1460 1980 2170 3460 4090
2026-04-18 00:45 2.95 629 14600 (1939) 380 (1981) 1860 635 737 923 1040 1460 1980 2170 3460 4090
2026-04-17 23:45 2.95 629 14600 (1939) 380 (1981) 1860 635 737 923 1040 1460 1980 2170 3460 4090
2026-04-17 22:45 2.95 629 11600 (1939) 382 (1981) 1970 642 754 952 1020 1500 2120 2250 3420 5240
2026-04-17 21:45 2.95 629 11600 (1939) 382 (1981) 1970 642 754 952 1020 1500 2120 2250 3420 5240
2026-04-17 20:45 2.95 629 11600 (1939) 382 (1981) 1970 642 754 952 1020 1500 2120 2250 3420 5240
2026-04-17 19:45 2.96 637 11600 (1939) 382 (1981) 1970 642 754 952 1020 1500 2120 2250 3420 5240
2026-04-17 18:45 2.96 637 11600 (1939) 382 (1981) 1970 642 754 952 1020 1500 2120 2250 3420 5240
2026-04-17 17:45 2.94 622 11600 (1939) 382 (1981) 1970 642 754 952 1020 1500 2120 2250 3420 5240
2026-04-17 16:45 2.97 644 11600 (1939) 382 (1981) 1970 642 754 952 1020 1500 2120 2250 3420 5240
2026-04-17 15:45 2.96 637 11600 (1939) 382 (1981) 1970 642 754 952 1020 1500 2120 2250 3420 5240
2026-04-17 14:45 2.96 637 11600 (1939) 382 (1981) 1970 642 754 952 1020 1500 2120 2250 3420 5240
2026-04-17 13:45 2.97 644 11600 (1939) 382 (1981) 1970 642 754 952 1020 1500 2120 2250 3420 5240
2026-04-17 12:45 2.98 652 11600 (1939) 382 (1981) 1970 642 754 952 1020 1500 2120 2250 3420 5240
2026-04-17 11:45 2.98 652 11600 (1939) 382 (1981) 1970 642 754 952 1020 1500 2120 2250 3420 5240
2026-04-17 10:45 2.97 644 11600 (1939) 382 (1981) 1970 642 754 952 1020 1500 2120 2250 3420 5240
2026-04-17 09:45 2.97 644 11600 (1939) 382 (1981) 1970 642 754 952 1020 1500 2120 2250 3420 5240
2026-04-17 08:45 2.99 660 11600 (1939) 382 (1981) 1970 642 754 952 1020 1500 2120 2250 3420 5240
2026-04-17 07:45 3.01 675 11600 (1939) 382 (1981) 1970 642 754 952 1020 1500 2120 2250 3420 5240
2026-04-17 06:45 3.02 682 11600 (1939) 382 (1981) 1970 642 754 952 1020 1500 2120 2250 3420 5240
2026-04-17 05:45 3.03 690 11600 (1939) 382 (1981) 1970 642 754 952 1020 1500 2120 2250 3420 5240
2026-04-17 04:45 3.05 705 11600 (1939) 382 (1981) 1970 642 754 952 1020 1500 2120 2250 3420 5240
2026-04-17 03:45 3.07 720 11600 (1939) 382 (1981) 1970 642 754 952 1020 1500 2120 2250 3420 5240
2026-04-17 02:45 3.10 742 11600 (1939) 382 (1981) 1970 642 754 952 1020 1500 2120 2250 3420 5240
2026-04-17 01:45 3.12 757 11600 (1939) 382 (1981) 1970 642 754 952 1020 1500 2120 2250 3420 5240
2026-04-17 00:45 3.11 750 11600 (1939) 382 (1981) 1970 642 754 952 1020 1500 2120 2250 3420 5240
2026-04-16 23:45 3.08 727 11600 (1939) 382 (1981) 1970 642 754 952 1020 1500 2120 2250 3420 5240
2026-04-16 22:45 3.03 690 19500 (1945) 381 (1981) 2080 644 757 916 1020 1570 2220 2340 3750 5440
2026-04-16 21:45 2.98 652 19500 (1945) 381 (1981) 2080 644 757 916 1020 1570 2220 2340 3750 5440
2026-04-16 20:45 2.95 629 19500 (1945) 381 (1981) 2080 644 757 916 1020 1570 2220 2340 3750 5440
2026-04-16 19:45 2.93 614 19500 (1945) 381 (1981) 2080 644 757 916 1020 1570 2220 2340 3750 5440
2026-04-16 18:45 2.93 614 19500 (1945) 381 (1981) 2080 644 757 916 1020 1570 2220 2340 3750 5440
2026-04-16 17:45 2.93 614 19500 (1945) 381 (1981) 2080 644 757 916 1020 1570 2220 2340 3750 5440
2026-04-16 16:45 2.93 614 19500 (1945) 381 (1981) 2080 644 757 916 1020 1570 2220 2340 3750 5440
2026-04-16 15:45 2.93 614 19500 (1945) 381 (1981) 2080 644 757 916 1020 1570 2220 2340 3750 5440
2026-04-16 14:45 2.90 592 19500 (1945) 381 (1981) 2080 644 757 916 1020 1570 2220 2340 3750 5440
2026-04-16 13:45 2.89 585 19500 (1945) 381 (1981) 2080 644 757 916 1020 1570 2220 2340 3750 5440
2026-04-16 12:45 2.91 599 19500 (1945) 381 (1981) 2080 644 757 916 1020 1570 2220 2340 3750 5440
2026-04-16 11:45 2.91 599 19500 (1945) 381 (1981) 2080 644 757 916 1020 1570 2220 2340 3750 5440
2026-04-16 10:45 2.89 585 19500 (1945) 381 (1981) 2080 644 757 916 1020 1570 2220 2340 3750 5440
2026-04-16 09:45 2.89 585 19500 (1945) 381 (1981) 2080 644 757 916 1020 1570 2220 2340 3750 5440
2026-04-16 08:45 2.88 577 19500 (1945) 381 (1981) 2080 644 757 916 1020 1570 2220 2340 3750 5440
2026-04-16 07:45 2.88 577 19500 (1945) 381 (1981) 2080 644 757 916 1020 1570 2220 2340 3750 5440
2026-04-16 06:45 2.88 577 19500 (1945) 381 (1981) 2080 644 757 916 1020 1570 2220 2340 3750 5440
2026-04-16 05:45 2.88 577 19500 (1945) 381 (1981) 2080 644 757 916 1020 1570 2220 2340 3750 5440
2026-04-16 04:45 2.87 572 19500 (1945) 381 (1981) 2080 644 757 916 1020 1570 2220 2340 3750 5440
2026-04-16 03:45 2.84 556 19500 (1945) 381 (1981) 2080 644 757 916 1020 1570 2220 2340 3750 5440
2026-04-16 02:45 2.87 572 19500 (1945) 381 (1981) 2080 644 757 916 1020 1570 2220 2340 3750 5440
2026-04-16 01:45 2.87 572 19500 (1945) 381 (1981) 2080 644 757 916 1020 1570 2220 2340 3750 5440
2026-04-16 00:45 2.87 572 19500 (1945) 381 (1981) 2080 644 757 916 1020 1570 2220 2340 3750 5440
2026-04-15 23:45 2.87 572 19500 (1945) 381 (1981) 2080 644 757 916 1020 1570 2220 2340 3750 5440
2026-04-15 22:45 2.87 572 15400 (1945) 386 (1981) 2060 641 760 883 952 1560 2080 2390 3620 4600
2026-04-15 21:45 2.87 572 15400 (1945) 386 (1981) 2060 641 760 883 952 1560 2080 2390 3620 4600
2026-04-15 20:45 2.87 572 15400 (1945) 386 (1981) 2060 641 760 883 952 1560 2080 2390 3620 4600
2026-04-15 19:45 2.88 577 15400 (1945) 386 (1981) 2060 641 760 883 952 1560 2080 2390 3620 4600
2026-04-15 18:45 2.88 577 15400 (1945) 386 (1981) 2060 641 760 883 952 1560 2080 2390 3620 4600
2026-04-15 17:45 2.88 577 15400 (1945) 386 (1981) 2060 641 760 883 952 1560 2080 2390 3620 4600
2026-04-15 16:45 2.88 577 15400 (1945) 386 (1981) 2060 641 760 883 952 1560 2080 2390 3620 4600
2026-04-15 15:45 2.89 585 15400 (1945) 386 (1981) 2060 641 760 883 952 1560 2080 2390 3620 4600
2026-04-15 14:45 2.87 572 15400 (1945) 386 (1981) 2060 641 760 883 952 1560 2080 2390 3620 4600
2026-04-15 13:45 2.86 567 15400 (1945) 386 (1981) 2060 641 760 883 952 1560 2080 2390 3620 4600
2026-04-15 12:45 2.86 567 15400 (1945) 386 (1981) 2060 641 760 883 952 1560 2080 2390 3620 4600
2026-04-15 11:45 2.85 561 15400 (1945) 386 (1981) 2060 641 760 883 952 1560 2080 2390 3620 4600
2026-04-15 10:45 2.85 561 15400 (1945) 386 (1981) 2060 641 760 883 952 1560 2080 2390 3620 4600
2026-04-15 09:45 2.85 561 15400 (1945) 386 (1981) 2060 641 760 883 952 1560 2080 2390 3620 4600
2026-04-15 08:45 2.88 577 15400 (1945) 386 (1981) 2060 641 760 883 952 1560 2080 2390 3620 4600
2026-04-15 07:45 2.86 567 15400 (1945) 386 (1981) 2060 641 760 883 952 1560 2080 2390 3620 4600
2026-04-15 06:45 2.88 577 15400 (1945) 386 (1981) 2060 641 760 883 952 1560 2080 2390 3620 4600
2026-04-15 05:45 2.88 577 15400 (1945) 386 (1981) 2060 641 760 883 952 1560 2080 2390 3620 4600
2026-04-15 04:45 2.88 577 15400 (1945) 386 (1981) 2060 641 760 883 952 1560 2080 2390 3620 4600
2026-04-15 03:45 2.88 577 15400 (1945) 386 (1981) 2060 641 760 883 952 1560 2080 2390 3620 4600
2026-04-15 02:45 2.88 577 15400 (1945) 386 (1981) 2060 641 760 883 952 1560 2080 2390 3620 4600
2026-04-15 01:45 2.88 577 15400 (1945) 386 (1981) 2060 641 760 883 952 1560 2080 2390 3620 4600
2026-04-15 00:45 2.88 577 15400 (1945) 386 (1981) 2060 641 760 883 952 1560 2080 2390 3620 4600
2026-04-14 23:45 2.88 577 15400 (1945) 386 (1981) 2060 641 760 883 952 1560 2080 2390 3620 4600
2026-04-14 22:45 2.88 577 10500 (1991) 395 (1981) 1950 531 757 890 966 1530 2240 2500 3340 5530
2026-04-14 21:45 2.88 577 10500 (1991) 395 (1981) 1950 531 757 890 966 1530 2240 2500 3340 5530
2026-04-14 20:45 2.88 577 10500 (1991) 395 (1981) 1950 531 757 890 966 1530 2240 2500 3340 5530
2026-04-14 19:45 2.88 577 10500 (1991) 395 (1981) 1950 531 757 890 966 1530 2240 2500 3340 5530
2026-04-14 18:45 2.88 577 10500 (1991) 395 (1981) 1950 531 757 890 966 1530 2240 2500 3340 5530
2026-04-14 17:45 2.86 567 10500 (1991) 395 (1981) 1950 531 757 890 966 1530 2240 2500 3340 5530
2026-04-14 16:45 2.88 577 10500 (1991) 395 (1981) 1950 531 757 890 966 1530 2240 2500 3340 5530
2026-04-14 15:45 2.88 577 10500 (1991) 395 (1981) 1950 531 757 890 966 1530 2240 2500 3340 5530
2026-04-14 14:45 2.88 577 10500 (1991) 395 (1981) 1950 531 757 890 966 1530 2240 2500 3340 5530
2026-04-14 13:45 2.86 567 10500 (1991) 395 (1981) 1950 531 757 890 966 1530 2240 2500 3340 5530
2026-04-14 12:45 2.86 567 10500 (1991) 395 (1981) 1950 531 757 890 966 1530 2240 2500 3340 5530
2026-04-14 11:45 2.88 577 10500 (1991) 395 (1981) 1950 531 757 890 966 1530 2240 2500 3340 5530
2026-04-14 09:45 2.86 567 10500 (1991) 395 (1981) 1950 531 757 890 966 1530 2240 2500 3340 5530
2026-04-14 08:45 2.88 577 10500 (1991) 395 (1981) 1950 531 757 890 966 1530 2240 2500 3340 5530
2026-04-14 07:45 2.89 585 10500 (1991) 395 (1981) 1950 531 757 890 966 1530 2240 2500 3340 5530
2026-04-14 06:45 2.89 585 10500 (1991) 395 (1981) 1950 531 757 890 966 1530 2240 2500 3340 5530
2026-04-14 05:45 2.89 585 10500 (1991) 395 (1981) 1950 531 757 890 966 1530 2240 2500 3340 5530
2026-04-14 04:45 2.89 585 10500 (1991) 395 (1981) 1950 531 757 890 966 1530 2240 2500 3340 5530
2026-04-14 03:45 2.89 585 10500 (1991) 395 (1981) 1950 531 757 890 966 1530 2240 2500 3340 5530
2026-04-14 02:45 2.89 585 10500 (1991) 395 (1981) 1950 531 757 890 966 1530 2240 2500 3340 5530
2026-04-14 01:45 2.89 585 10500 (1991) 395 (1981) 1950 531 757 890 966 1530 2240 2500 3340 5530
2026-04-14 00:45 2.89 585 10500 (1991) 395 (1981) 1950 531 757 890 966 1530 2240 2500 3340 5530
2026-04-13 23:45 2.89 585 10500 (1991) 395 (1981) 1950 531 757 890 966 1530 2240 2500 3340 5530
2026-04-13 22:45 2.89 585 13100 (1994) 402 (1981) 1960 517 757 929 995 1520 2170 2440 3310 4680
2026-04-13 21:45 2.89 585 13100 (1994) 402 (1981) 1960 517 757 929 995 1520 2170 2440 3310 4680
2026-04-13 20:45 2.89 585 13100 (1994) 402 (1981) 1960 517 757 929 995 1520 2170 2440 3310 4680
2026-04-13 19:45 2.90 592 13100 (1994) 402 (1981) 1960 517 757 929 995 1520 2170 2440 3310 4680
2026-04-13 18:45 2.90 592 13100 (1994) 402 (1981) 1960 517 757 929 995 1520 2170 2440 3310 4680
2026-04-13 17:45 2.88 577 13100 (1994) 402 (1981) 1960 517 757 929 995 1520 2170 2440 3310 4680
2026-04-13 16:45 2.88 577 13100 (1994) 402 (1981) 1960 517 757 929 995 1520 2170 2440 3310 4680
2026-04-13 15:45 2.88 577 13100 (1994) 402 (1981) 1960 517 757 929 995 1520 2170 2440 3310 4680
2026-04-13 14:45 2.87 572 13100 (1994) 402 (1981) 1960 517 757 929 995 1520 2170 2440 3310 4680
2026-04-13 13:45 2.88 577 13100 (1994) 402 (1981) 1960 517 757 929 995 1520 2170 2440 3310 4680
2026-04-13 12:45 2.88 577 13100 (1994) 402 (1981) 1960 517 757 929 995 1520 2170 2440 3310 4680
2026-04-13 11:45 2.89 585 13100 (1994) 402 (1981) 1960 517 757 929 995 1520 2170 2440 3310 4680
2026-04-13 10:45 2.90 592 13100 (1994) 402 (1981) 1960 517 757 929 995 1520 2170 2440 3310 4680
2026-04-13 09:45 2.87 572 13100 (1994) 402 (1981) 1960 517 757 929 995 1520 2170 2440 3310 4680
2026-04-13 08:45 2.88 577 13100 (1994) 402 (1981) 1960 517 757 929 995 1520 2170 2440 3310 4680
2026-04-13 07:45 2.88 577 13100 (1994) 402 (1981) 1960 517 757 929 995 1520 2170 2440 3310 4680
2026-04-13 06:45 2.90 592 13100 (1994) 402 (1981) 1960 517 757 929 995 1520 2170 2440 3310 4680
2026-04-13 05:45 2.90 592 13100 (1994) 402 (1981) 1960 517 757 929 995 1520 2170 2440 3310 4680
2026-04-13 04:45 2.90 592 13100 (1994) 402 (1981) 1960 517 757 929 995 1520 2170 2440 3310 4680
2026-04-13 03:45 2.90 592 13100 (1994) 402 (1981) 1960 517 757 929 995 1520 2170 2440 3310 4680
2026-04-13 02:45 2.90 592 13100 (1994) 402 (1981) 1960 517 757 929 995 1520 2170 2440 3310 4680
2026-04-13 01:45 2.90 592 13100 (1994) 402 (1981) 1960 517 757 929 995 1520 2170 2440 3310 4680
2026-04-13 00:45 2.90 592 13100 (1994) 402 (1981) 1960 517 757 929 995 1520 2170 2440 3310 4680
2026-04-12 23:45 2.90 592 13100 (1994) 402 (1981) 1960 517 757 929 995 1520 2170 2440 3310 4680
2026-04-12 22:45 2.90 592 14600 (1979) 406 (1981) 2000 520 757 921 1010 1560 2340 2500 2990 4590
2026-04-12 21:45 2.90 592 14600 (1979) 406 (1981) 2000 520 757 921 1010 1560 2340 2500 2990 4590
2026-04-12 20:45 2.90 592 14600 (1979) 406 (1981) 2000 520 757 921 1010 1560 2340 2500 2990 4590
2026-04-12 19:45 2.90 592 14600 (1979) 406 (1981) 2000 520 757 921 1010 1560 2340 2500 2990 4590
2026-04-12 18:45 2.90 592 14600 (1979) 406 (1981) 2000 520 757 921 1010 1560 2340 2500 2990 4590
2026-04-12 17:45 2.90 592 14600 (1979) 406 (1981) 2000 520 757 921 1010 1560 2340 2500 2990 4590
2026-04-12 16:45 2.90 592 14600 (1979) 406 (1981) 2000 520 757 921 1010 1560 2340 2500 2990 4590
2026-04-12 15:45 2.91 599 14600 (1979) 406 (1981) 2000 520 757 921 1010 1560 2340 2500 2990 4590
2026-04-12 14:45 2.90 592 14600 (1979) 406 (1981) 2000 520 757 921 1010 1560 2340 2500 2990 4590
2026-04-12 13:45 2.88 577 14600 (1979) 406 (1981) 2000 520 757 921 1010 1560 2340 2500 2990 4590
2026-04-12 12:45 2.88 577 14600 (1979) 406 (1981) 2000 520 757 921 1010 1560 2340 2500 2990 4590
2026-04-12 11:45 2.90 592 14600 (1979) 406 (1981) 2000 520 757 921 1010 1560 2340 2500 2990 4590
2026-04-12 10:45 2.88 577 14600 (1979) 406 (1981) 2000 520 757 921 1010 1560 2340 2500 2990 4590
2026-04-12 09:45 2.90 592 14600 (1979) 406 (1981) 2000 520 757 921 1010 1560 2340 2500 2990 4590
2026-04-12 08:45 2.90 592 14600 (1979) 406 (1981) 2000 520 757 921 1010 1560 2340 2500 2990 4590
2026-04-12 07:45 2.91 599 14600 (1979) 406 (1981) 2000 520 757 921 1010 1560 2340 2500 2990 4590
2026-04-12 06:45 2.91 599 14600 (1979) 406 (1981) 2000 520 757 921 1010 1560 2340 2500 2990 4590
2026-04-12 05:45 2.91 599 14600 (1979) 406 (1981) 2000 520 757 921 1010 1560 2340 2500 2990 4590
2026-04-12 04:45 2.91 599 14600 (1979) 406 (1981) 2000 520 757 921 1010 1560 2340 2500 2990 4590
2026-04-12 03:45 2.91 599 14600 (1979) 406 (1981) 2000 520 757 921 1010 1560 2340 2500 2990 4590
2026-04-12 02:45 2.92 607 14600 (1979) 406 (1981) 2000 520 757 921 1010 1560 2340 2500 2990 4590
2026-04-12 01:45 2.92 607 14600 (1979) 406 (1981) 2000 520 757 921 1010 1560 2340 2500 2990 4590
2026-04-12 00:45 2.92 607 14600 (1979) 406 (1981) 2000 520 757 921 1010 1560 2340 2500 2990 4590
2026-04-11 23:45 2.92 607 14600 (1979) 406 (1981) 2000 520 757 921 1010 1560 2340 2500 2990 4590
2026-04-11 22:45 2.92 607 36900 (2008) 412 (1981) 2170 531 791 868 997 1590 2320 2560 3510 3980
2026-04-11 21:45 2.92 607 36900 (2008) 412 (1981) 2170 531 791 868 997 1590 2320 2560 3510 3980
2026-04-11 20:45 2.92 607 36900 (2008) 412 (1981) 2170 531 791 868 997 1590 2320 2560 3510 3980
2026-04-11 19:45 2.92 607 36900 (2008) 412 (1981) 2170 531 791 868 997 1590 2320 2560 3510 3980
2026-04-11 18:45 2.93 614 36900 (2008) 412 (1981) 2170 531 791 868 997 1590 2320 2560 3510 3980
2026-04-11 17:45 2.93 614 36900 (2008) 412 (1981) 2170 531 791 868 997 1590 2320 2560 3510 3980
2026-04-11 16:45 2.92 607 36900 (2008) 412 (1981) 2170 531 791 868 997 1590 2320 2560 3510 3980
2026-04-11 15:45 2.94 622 36900 (2008) 412 (1981) 2170 531 791 868 997 1590 2320 2560 3510 3980
2026-04-11 14:45 2.90 592 36900 (2008) 412 (1981) 2170 531 791 868 997 1590 2320 2560 3510 3980
2026-04-11 13:45 2.93 614 36900 (2008) 412 (1981) 2170 531 791 868 997 1590 2320 2560 3510 3980
2026-04-11 12:45 2.92 607 36900 (2008) 412 (1981) 2170 531 791 868 997 1590 2320 2560 3510 3980
2026-04-11 11:45 2.93 614 36900 (2008) 412 (1981) 2170 531 791 868 997 1590 2320 2560 3510 3980
2026-04-11 10:45 2.92 607 36900 (2008) 412 (1981) 2170 531 791 868 997 1590 2320 2560 3510 3980
2026-04-11 09:45 2.92 607 36900 (2008) 412 (1981) 2170 531 791 868 997 1590 2320 2560 3510 3980
2026-04-11 08:45 2.92 607 36900 (2008) 412 (1981) 2170 531 791 868 997 1590 2320 2560 3510 3980
2026-04-11 07:45 2.92 607 36900 (2008) 412 (1981) 2170 531 791 868 997 1590 2320 2560 3510 3980
2026-04-11 06:45 2.91 599 36900 (2008) 412 (1981) 2170 531 791 868 997 1590 2320 2560 3510 3980
2026-04-11 05:45 2.91 599 36900 (2008) 412 (1981) 2170 531 791 868 997 1590 2320 2560 3510 3980
2026-04-11 04:45 2.91 599 36900 (2008) 412 (1981) 2170 531 791 868 997 1590 2320 2560 3510 3980
2026-04-11 03:45 2.91 599 36900 (2008) 412 (1981) 2170 531 791 868 997 1590 2320 2560 3510 3980
2026-04-11 02:45 2.91 599 36900 (2008) 412 (1981) 2170 531 791 868 997 1590 2320 2560 3510 3980
2026-04-11 01:45 2.92 607 36900 (2008) 412 (1981) 2170 531 791 868 997 1590 2320 2560 3510 3980
2026-04-11 00:45 2.92 607 36900 (2008) 412 (1981) 2170 531 791 868 997 1590 2320 2560 3510 3980
2026-04-10 23:45 2.92 607 36900 (2008) 412 (1981) 2170 531 791 868 997 1590 2320 2560 3510 3980
2026-04-10 22:45 2.92 607 9550 (2008) 420 (1981) 1760 539 732 858 924 1450 2050 2370 3240 4440
2026-04-10 21:45 2.92 607 9550 (2008) 420 (1981) 1760 539 732 858 924 1450 2050 2370 3240 4440
2026-04-10 20:45 2.91 599 9550 (2008) 420 (1981) 1760 539 732 858 924 1450 2050 2370 3240 4440
2026-04-10 19:45 2.91 599 9550 (2008) 420 (1981) 1760 539 732 858 924 1450 2050 2370 3240 4440
2026-04-10 18:45 2.92 607 9550 (2008) 420 (1981) 1760 539 732 858 924 1450 2050 2370 3240 4440
2026-04-10 17:45 2.93 614 9550 (2008) 420 (1981) 1760 539 732 858 924 1450 2050 2370 3240 4440
2026-04-10 16:45 2.92 607 9550 (2008) 420 (1981) 1760 539 732 858 924 1450 2050 2370 3240 4440
2026-04-10 15:45 2.92 607 9550 (2008) 420 (1981) 1760 539 732 858 924 1450 2050 2370 3240 4440
2026-04-10 14:45 2.91 599 9550 (2008) 420 (1981) 1760 539 732 858 924 1450 2050 2370 3240 4440
2026-04-10 13:45 2.89 585 9550 (2008) 420 (1981) 1760 539 732 858 924 1450 2050 2370 3240 4440
2026-04-10 12:45 2.91 599 9550 (2008) 420 (1981) 1760 539 732 858 924 1450 2050 2370 3240 4440
2026-04-10 11:45 2.91 599 9550 (2008) 420 (1981) 1760 539 732 858 924 1450 2050 2370 3240 4440
2026-04-10 10:45 2.90 592 9550 (2008) 420 (1981) 1760 539 732 858 924 1450 2050 2370 3240 4440
2026-04-10 09:45 2.91 599 9550 (2008) 420 (1981) 1760 539 732 858 924 1450 2050 2370 3240 4440
2026-04-10 08:45 2.90 592 9550 (2008) 420 (1981) 1760 539 732 858 924 1450 2050 2370 3240 4440
2026-04-10 07:45 2.91 599 9550 (2008) 420 (1981) 1760 539 732 858 924 1450 2050 2370 3240 4440
2026-04-10 06:45 2.91 599 9550 (2008) 420 (1981) 1760 539 732 858 924 1450 2050 2370 3240 4440
2026-04-10 05:45 2.91 599 9550 (2008) 420 (1981) 1760 539 732 858 924 1450 2050 2370 3240 4440
2026-04-10 04:45 2.91 599 9550 (2008) 420 (1981) 1760 539 732 858 924 1450 2050 2370 3240 4440
2026-04-10 03:45 2.91 599 9550 (2008) 420 (1981) 1760 539 732 858 924 1450 2050 2370 3240 4440
2026-04-10 02:45 2.91 599 9550 (2008) 420 (1981) 1760 539 732 858 924 1450 2050 2370 3240 4440
2026-04-10 01:45 2.91 599 9550 (2008) 420 (1981) 1760 539 732 858 924 1450 2050 2370 3240 4440
2026-04-10 00:45 2.91 599 9550 (2008) 420 (1981) 1760 539 732 858 924 1450 2050 2370 3240 4440
2026-04-09 23:45 2.92 607 9550 (2008) 420 (1981) 1760 539 732 858 924 1450 2050 2370 3240 4440
2026-04-09 22:45 2.91 599 11100 (1942) 430 (1981) 1820 542 738 882 893 1420 2130 2300 3060 4220
2026-04-09 21:45 2.91 599 11100 (1942) 430 (1981) 1820 542 738 882 893 1420 2130 2300 3060 4220
2026-04-09 20:45 2.91 599 11100 (1942) 430 (1981) 1820 542 738 882 893 1420 2130 2300 3060 4220
2026-04-09 19:45 2.92 607 11100 (1942) 430 (1981) 1820 542 738 882 893 1420 2130 2300 3060 4220
2026-04-09 18:45 2.92 607 11100 (1942) 430 (1981) 1820 542 738 882 893 1420 2130 2300 3060 4220
2026-04-09 17:45 2.91 599 11100 (1942) 430 (1981) 1820 542 738 882 893 1420 2130 2300 3060 4220
2026-04-09 16:45 2.91 599 11100 (1942) 430 (1981) 1820 542 738 882 893 1420 2130 2300 3060 4220
2026-04-09 15:45 2.91 599 11100 (1942) 430 (1981) 1820 542 738 882 893 1420 2130 2300 3060 4220
2026-04-09 14:45 2.90 592 11100 (1942) 430 (1981) 1820 542 738 882 893 1420 2130 2300 3060 4220
2026-04-09 13:45 2.92 607 11100 (1942) 430 (1981) 1820 542 738 882 893 1420 2130 2300 3060 4220
2026-04-09 12:45 2.90 592 11100 (1942) 430 (1981) 1820 542 738 882 893 1420 2130 2300 3060 4220
2026-04-09 11:45 2.91 599 11100 (1942) 430 (1981) 1820 542 738 882 893 1420 2130 2300 3060 4220
2026-04-09 10:45 2.89 585 11100 (1942) 430 (1981) 1820 542 738 882 893 1420 2130 2300 3060 4220
2026-04-09 09:45 2.89 585 11100 (1942) 430 (1981) 1820 542 738 882 893 1420 2130 2300 3060 4220
2026-04-09 08:45 2.91 599 11100 (1942) 430 (1981) 1820 542 738 882 893 1420 2130 2300 3060 4220
2026-04-09 07:45 2.92 607 11100 (1942) 430 (1981) 1820 542 738 882 893 1420 2130 2300 3060 4220
2026-04-09 06:45 2.92 607 11100 (1942) 430 (1981) 1820 542 738 882 893 1420 2130 2300 3060 4220
2026-04-09 05:45 2.92 607 11100 (1942) 430 (1981) 1820 542 738 882 893 1420 2130 2300 3060 4220
2026-04-09 04:45 2.92 607 11100 (1942) 430 (1981) 1820 542 738 882 893 1420 2130 2300 3060 4220
2026-04-09 03:45 2.92 607 11100 (1942) 430 (1981) 1820 542 738 882 893 1420 2130 2300 3060 4220
2026-04-09 02:45 2.92 607 11100 (1942) 430 (1981) 1820 542 738 882 893 1420 2130 2300 3060 4220
2026-04-09 01:45 2.92 607 11100 (1942) 430 (1981) 1820 542 738 882 893 1420 2130 2300 3060 4220
2026-04-09 00:45 2.92 607 11100 (1942) 430 (1981) 1820 542 738 882 893 1420 2130 2300 3060 4220
2026-04-08 23:45 2.92 607 11100 (1942) 430 (1981) 1820 542 738 882 893 1420 2130 2300 3060 4220
2026-04-08 22:45 2.92 607 7150 (1942) 434 (1981) 1790 551 744 895 928 1460 2260 2440 2980 3720
2026-04-08 21:45 2.93 614 7150 (1942) 434 (1981) 1790 551 744 895 928 1460 2260 2440 2980 3720
2026-04-08 20:45 2.93 614 7150 (1942) 434 (1981) 1790 551 744 895 928 1460 2260 2440 2980 3720
2026-04-08 19:45 2.93 614 7150 (1942) 434 (1981) 1790 551 744 895 928 1460 2260 2440 2980 3720
2026-04-08 18:45 2.93 614 7150 (1942) 434 (1981) 1790 551 744 895 928 1460 2260 2440 2980 3720
2026-04-08 17:45 2.94 622 7150 (1942) 434 (1981) 1790 551 744 895 928 1460 2260 2440 2980 3720
2026-04-08 16:45 2.91 599 7150 (1942) 434 (1981) 1790 551 744 895 928 1460 2260 2440 2980 3720
2026-04-08 15:45 2.92 607 7150 (1942) 434 (1981) 1790 551 744 895 928 1460 2260 2440 2980 3720
2026-04-08 14:45 2.92 607 7150 (1942) 434 (1981) 1790 551 744 895 928 1460 2260 2440 2980 3720
2026-04-08 13:45 2.91 599 7150 (1942) 434 (1981) 1790 551 744 895 928 1460 2260 2440 2980 3720
2026-04-08 12:45 2.92 607 7150 (1942) 434 (1981) 1790 551 744 895 928 1460 2260 2440 2980 3720
2026-04-08 11:45 2.90 592 7150 (1942) 434 (1981) 1790 551 744 895 928 1460 2260 2440 2980 3720
2026-04-08 10:45 2.91 599 7150 (1942) 434 (1981) 1790 551 744 895 928 1460 2260 2440 2980 3720
2026-04-08 09:45 2.93 614 7150 (1942) 434 (1981) 1790 551 744 895 928 1460 2260 2440 2980 3720
2026-04-08 08:45 2.93 614 7150 (1942) 434 (1981) 1790 551 744 895 928 1460 2260 2440 2980 3720
2026-04-08 07:45 2.93 614 7150 (1942) 434 (1981) 1790 551 744 895 928 1460 2260 2440 2980 3720
2026-04-08 06:45 2.94 622 7150 (1942) 434 (1981) 1790 551 744 895 928 1460 2260 2440 2980 3720
2026-04-08 05:45 2.94 622 7150 (1942) 434 (1981) 1790 551 744 895 928 1460 2260 2440 2980 3720
2026-04-08 04:45 2.94 622 7150 (1942) 434 (1981) 1790 551 744 895 928 1460 2260 2440 2980 3720
2026-04-08 03:45 2.94 622 7150 (1942) 434 (1981) 1790 551 744 895 928 1460 2260 2440 2980 3720
2026-04-08 02:45 2.94 622 7150 (1942) 434 (1981) 1790 551 744 895 928 1460 2260 2440 2980 3720
2026-04-08 01:45 2.94 622 7150 (1942) 434 (1981) 1790 551 744 895 928 1460 2260 2440 2980 3720
2026-04-08 00:45 2.94 622 7150 (1942) 434 (1981) 1790 551 744 895 928 1460 2260 2440 2980 3720
2026-04-07 23:45 2.94 622 7150 (1942) 434 (1981) 1790 551 744 895 928 1460 2260 2440 2980 3720
2026-04-07 22:45 2.94 622 12400 (2025) 445 (1981) 1750 551 720 871 907 1460 2170 2370 2790 3580
2026-04-07 21:45 2.94 622 12400 (2025) 445 (1981) 1750 551 720 871 907 1460 2170 2370 2790 3580
2026-04-07 20:45 2.94 622 12400 (2025) 445 (1981) 1750 551 720 871 907 1460 2170 2370 2790 3580
2026-04-07 19:45 2.94 622 12400 (2025) 445 (1981) 1750 551 720 871 907 1460 2170 2370 2790 3580
2026-04-07 18:45 2.95 629 12400 (2025) 445 (1981) 1750 551 720 871 907 1460 2170 2370 2790 3580
2026-04-07 17:45 2.95 629 12400 (2025) 445 (1981) 1750 551 720 871 907 1460 2170 2370 2790 3580
2026-04-07 16:45 2.96 637 12400 (2025) 445 (1981) 1750 551 720 871 907 1460 2170 2370 2790 3580
2026-04-07 15:45 2.96 637 12400 (2025) 445 (1981) 1750 551 720 871 907 1460 2170 2370 2790 3580
2026-04-07 14:45 2.95 629 12400 (2025) 445 (1981) 1750 551 720 871 907 1460 2170 2370 2790 3580
2026-04-07 13:45 2.94 622 12400 (2025) 445 (1981) 1750 551 720 871 907 1460 2170 2370 2790 3580
2026-04-07 12:45 2.95 629 12400 (2025) 445 (1981) 1750 551 720 871 907 1460 2170 2370 2790 3580
2026-04-07 11:45 2.94 622 12400 (2025) 445 (1981) 1750 551 720 871 907 1460 2170 2370 2790 3580
2026-04-07 10:45 2.95 629 12400 (2025) 445 (1981) 1750 551 720 871 907 1460 2170 2370 2790 3580
2026-04-07 09:45 2.95 629 12400 (2025) 445 (1981) 1750 551 720 871 907 1460 2170 2370 2790 3580
2026-04-07 08:45 2.95 629 12400 (2025) 445 (1981) 1750 551 720 871 907 1460 2170 2370 2790 3580
2026-04-07 07:45 2.95 629 12400 (2025) 445 (1981) 1750 551 720 871 907 1460 2170 2370 2790 3580
2026-04-07 06:45 2.95 629 12400 (2025) 445 (1981) 1750 551 720 871 907 1460 2170 2370 2790 3580
2026-04-07 05:45 2.95 629 12400 (2025) 445 (1981) 1750 551 720 871 907 1460 2170 2370 2790 3580
2026-04-07 04:45 2.95 629 12400 (2025) 445 (1981) 1750 551 720 871 907 1460 2170 2370 2790 3580
2026-04-07 03:45 2.95 629 12400 (2025) 445 (1981) 1750 551 720 871 907 1460 2170 2370 2790 3580
2026-04-07 02:45 2.96 637 12400 (2025) 445 (1981) 1750 551 720 871 907 1460 2170 2370 2790 3580
2026-04-07 01:45 2.96 637 12400 (2025) 445 (1981) 1750 551 720 871 907 1460 2170 2370 2790 3580
2026-04-07 00:45 2.96 637 12400 (2025) 445 (1981) 1750 551 720 871 907 1460 2170 2370 2790 3580
2026-04-06 23:45 2.96 637 12400 (2025) 445 (1981) 1750 551 720 871 907 1460 2170 2370 2790 3580
2026-04-06 22:45 2.96 637 40000 (2025) 454 (1981) 2240 553 644 883 924 1550 2340 2640 3560 5270
2026-04-06 21:45 2.96 637 40000 (2025) 454 (1981) 2240 553 644 883 924 1550 2340 2640 3560 5270
2026-04-06 20:45 2.96 637 40000 (2025) 454 (1981) 2240 553 644 883 924 1550 2340 2640 3560 5270
2026-04-06 19:45 2.96 637 40000 (2025) 454 (1981) 2240 553 644 883 924 1550 2340 2640 3560 5270
2026-04-06 18:45 2.96 637 40000 (2025) 454 (1981) 2240 553 644 883 924 1550 2340 2640 3560 5270
2026-04-06 17:45 2.97 644 40000 (2025) 454 (1981) 2240 553 644 883 924 1550 2340 2640 3560 5270
2026-04-06 16:45 2.97 644 40000 (2025) 454 (1981) 2240 553 644 883 924 1550 2340 2640 3560 5270
2026-04-06 15:45 2.96 637 40000 (2025) 454 (1981) 2240 553 644 883 924 1550 2340 2640 3560 5270
2026-04-06 14:45 2.98 652 40000 (2025) 454 (1981) 2240 553 644 883 924 1550 2340 2640 3560 5270
2026-04-06 13:45 2.98 652 40000 (2025) 454 (1981) 2240 553 644 883 924 1550 2340 2640 3560 5270
2026-04-06 12:45 2.98 652 40000 (2025) 454 (1981) 2240 553 644 883 924 1550 2340 2640 3560 5270
2026-04-06 11:45 2.97 644 40000 (2025) 454 (1981) 2240 553 644 883 924 1550 2340 2640 3560 5270
2026-04-06 10:45 2.97 644 40000 (2025) 454 (1981) 2240 553 644 883 924 1550 2340 2640 3560 5270
2026-04-06 09:45 2.97 644 40000 (2025) 454 (1981) 2240 553 644 883 924 1550 2340 2640 3560 5270
2026-04-06 08:45 2.96 637 40000 (2025) 454 (1981) 2240 553 644 883 924 1550 2340 2640 3560 5270
2026-04-06 07:45 2.97 644 40000 (2025) 454 (1981) 2240 553 644 883 924 1550 2340 2640 3560 5270
2026-04-06 06:45 2.97 644 40000 (2025) 454 (1981) 2240 553 644 883 924 1550 2340 2640 3560 5270
2026-04-06 05:45 2.97 644 40000 (2025) 454 (1981) 2240 553 644 883 924 1550 2340 2640 3560 5270
2026-04-06 04:45 2.97 644 40000 (2025) 454 (1981) 2240 553 644 883 924 1550 2340 2640 3560 5270
2026-04-06 03:45 2.97 644 40000 (2025) 454 (1981) 2240 553 644 883 924 1550 2340 2640 3560 5270
2026-04-06 02:45 2.97 644 40000 (2025) 454 (1981) 2240 553 644 883 924 1550 2340 2640 3560 5270
2026-04-06 01:45 2.97 644 40000 (2025) 454 (1981) 2240 553 644 883 924 1550 2340 2640 3560 5270
2026-04-06 00:45 2.97 644 40000 (2025) 454 (1981) 2240 553 644 883 924 1550 2340 2640 3560 5270
2026-04-05 23:45 2.97 644 40000 (2025) 454 (1981) 2240 553 644 883 924 1550 2340 2640 3560 5270
2026-04-05 22:45 2.98 652 39100 (2025) 475 (1981) 2420 569 650 899 944 1400 2370 2640 3830 5130
2026-04-05 21:45 2.98 652 39100 (2025) 475 (1981) 2420 569 650 899 944 1400 2370 2640 3830 5130
2026-04-05 20:45 2.98 652 39100 (2025) 475 (1981) 2420 569 650 899 944 1400 2370 2640 3830 5130
2026-04-05 19:45 2.98 652 39100 (2025) 475 (1981) 2420 569 650 899 944 1400 2370 2640 3830 5130
2026-04-05 18:45 2.98 652 39100 (2025) 475 (1981) 2420 569 650 899 944 1400 2370 2640 3830 5130
2026-04-05 17:45 2.99 660 39100 (2025) 475 (1981) 2420 569 650 899 944 1400 2370 2640 3830 5130
2026-04-05 16:45 2.99 660 39100 (2025) 475 (1981) 2420 569 650 899 944 1400 2370 2640 3830 5130
2026-04-05 15:45 3.00 667 39100 (2025) 475 (1981) 2420 569 650 899 944 1400 2370 2640 3830 5130
2026-04-05 14:45 3.00 667 39100 (2025) 475 (1981) 2420 569 650 899 944 1400 2370 2640 3830 5130
2026-04-05 13:45 2.97 644 39100 (2025) 475 (1981) 2420 569 650 899 944 1400 2370 2640 3830 5130
2026-04-05 12:45 2.99 660 39100 (2025) 475 (1981) 2420 569 650 899 944 1400 2370 2640 3830 5130
2026-04-05 11:45 2.98 652 39100 (2025) 475 (1981) 2420 569 650 899 944 1400 2370 2640 3830 5130
2026-04-05 10:45 2.99 660 39100 (2025) 475 (1981) 2420 569 650 899 944 1400 2370 2640 3830 5130
2026-04-05 09:45 3.00 667 39100 (2025) 475 (1981) 2420 569 650 899 944 1400 2370 2640 3830 5130
2026-04-05 08:45 3.00 667 39100 (2025) 475 (1981) 2420 569 650 899 944 1400 2370 2640 3830 5130
2026-04-05 07:45 3.00 667 39100 (2025) 475 (1981) 2420 569 650 899 944 1400 2370 2640 3830 5130
2026-04-05 06:45 3.01 675 39100 (2025) 475 (1981) 2420 569 650 899 944 1400 2370 2640 3830 5130
2026-04-05 05:45 3.01 675 39100 (2025) 475 (1981) 2420 569 650 899 944 1400 2370 2640 3830 5130
2026-04-05 04:45 3.02 682 39100 (2025) 475 (1981) 2420 569 650 899 944 1400 2370 2640 3830 5130
2026-04-05 03:45 3.02 682 39100 (2025) 475 (1981) 2420 569 650 899 944 1400 2370 2640 3830 5130
2026-04-05 02:45 3.03 690 39100 (2025) 475 (1981) 2420 569 650 899 944 1400 2370 2640 3830 5130
2026-04-05 01:45 3.03 690 39100 (2025) 475 (1981) 2420 569 650 899 944 1400 2370 2640 3830 5130
2026-04-05 00:45 3.04 697 39100 (2025) 475 (1981) 2420 569 650 899 944 1400 2370 2640 3830 5130
2026-04-04 23:45 3.04 697 39100 (2025) 475 (1981) 2420 569 650 899 944 1400 2370 2640 3830 5130
2026-04-04 22:45 3.04 697 22200 (1957) 467 (1936) 2110 566 642 901 955 1430 2500 2600 3810 4650
2026-04-04 21:45 3.04 697 22200 (1957) 467 (1936) 2110 566 642 901 955 1430 2500 2600 3810 4650
2026-04-04 20:45 3.05 705 22200 (1957) 467 (1936) 2110 566 642 901 955 1430 2500 2600 3810 4650
2026-04-04 19:45 3.05 705 22200 (1957) 467 (1936) 2110 566 642 901 955 1430 2500 2600 3810 4650
2026-04-04 18:45 3.06 712 22200 (1957) 467 (1936) 2110 566 642 901 955 1430 2500 2600 3810 4650
2026-04-04 17:45 3.07 720 22200 (1957) 467 (1936) 2110 566 642 901 955 1430 2500 2600 3810 4650
2026-04-04 16:45 3.07 720 22200 (1957) 467 (1936) 2110 566 642 901 955 1430 2500 2600 3810 4650
2026-04-04 15:45 3.07 720 22200 (1957) 467 (1936) 2110 566 642 901 955 1430 2500 2600 3810 4650
2026-04-04 14:45 3.04 697 22200 (1957) 467 (1936) 2110 566 642 901 955 1430 2500 2600 3810 4650
2026-04-04 13:45 3.07 720 22200 (1957) 467 (1936) 2110 566 642 901 955 1430 2500 2600 3810 4650
2026-04-04 12:45 3.07 720 22200 (1957) 467 (1936) 2110 566 642 901 955 1430 2500 2600 3810 4650
2026-04-04 11:45 3.07 720 22200 (1957) 467 (1936) 2110 566 642 901 955 1430 2500 2600 3810 4650
2026-04-04 10:45 3.02 682 22200 (1957) 467 (1936) 2110 566 642 901 955 1430 2500 2600 3810 4650
2026-04-04 09:45 3.03 690 22200 (1957) 467 (1936) 2110 566 642 901 955 1430 2500 2600 3810 4650
2026-04-04 08:45 3.03 690 22200 (1957) 467 (1936) 2110 566 642 901 955 1430 2500 2600 3810 4650
2026-04-04 07:45 3.00 667 22200 (1957) 467 (1936) 2110 566 642 901 955 1430 2500 2600 3810 4650
2026-04-04 06:45 2.97 644 22200 (1957) 467 (1936) 2110 566 642 901 955 1430 2500 2600 3810 4650
2026-04-04 05:45 2.98 652 22200 (1957) 467 (1936) 2110 566 642 901 955 1430 2500 2600 3810 4650
2026-04-04 04:45 2.98 652 22200 (1957) 467 (1936) 2110 566 642 901 955 1430 2500 2600 3810 4650
2026-04-04 03:45 2.96 637 22200 (1957) 467 (1936) 2110 566 642 901 955 1430 2500 2600 3810 4650
2026-04-04 02:45 2.99 660 22200 (1957) 467 (1936) 2110 566 642 901 955 1430 2500 2600 3810 4650
2026-04-04 01:45 2.98 652 22200 (1957) 467 (1936) 2110 566 642 901 955 1430 2500 2600 3810 4650
2026-04-04 00:45 2.94 622 22200 (1957) 467 (1936) 2110 566 642 901 955 1430 2500 2600 3810 4650
2026-04-03 23:45 2.97 644 22200 (1957) 467 (1936) 2110 566 642 901 955 1430 2500 2600 3810 4650
2026-04-03 22:45 2.97 644 9860 (1945) 467 (1936) 1870 600 714 890 969 1420 2160 2360 3390 5380
2026-04-03 21:45 2.97 644 9860 (1945) 467 (1936) 1870 600 714 890 969 1420 2160 2360 3390 5380
2026-04-03 20:45 2.97 644 9860 (1945) 467 (1936) 1870 600 714 890 969 1420 2160 2360 3390 5380
2026-04-03 19:45 2.97 644 9860 (1945) 467 (1936) 1870 600 714 890 969 1420 2160 2360 3390 5380
2026-04-03 18:45 2.98 652 9860 (1945) 467 (1936) 1870 600 714 890 969 1420 2160 2360 3390 5380
2026-04-03 17:45 2.95 629 9860 (1945) 467 (1936) 1870 600 714 890 969 1420 2160 2360 3390 5380
2026-04-03 16:45 2.98 652 9860 (1945) 467 (1936) 1870 600 714 890 969 1420 2160 2360 3390 5380
2026-04-03 15:45 2.97 644 9860 (1945) 467 (1936) 1870 600 714 890 969 1420 2160 2360 3390 5380
2026-04-03 14:45 2.96 637 9860 (1945) 467 (1936) 1870 600 714 890 969 1420 2160 2360 3390 5380
2026-04-03 13:45 2.95 629 9860 (1945) 467 (1936) 1870 600 714 890 969 1420 2160 2360 3390 5380
2026-04-03 12:45 2.95 629 9860 (1945) 467 (1936) 1870 600 714 890 969 1420 2160 2360 3390 5380
2026-04-03 11:45 2.95 629 9860 (1945) 467 (1936) 1870 600 714 890 969 1420 2160 2360 3390 5380
2026-04-03 10:45 2.97 644 9860 (1945) 467 (1936) 1870 600 714 890 969 1420 2160 2360 3390 5380
2026-04-03 09:45 2.97 644 9860 (1945) 467 (1936) 1870 600 714 890 969 1420 2160 2360 3390 5380
2026-04-03 08:45 2.97 644 9860 (1945) 467 (1936) 1870 600 714 890 969 1420 2160 2360 3390 5380
2026-04-03 07:45 2.99 660 9860 (1945) 467 (1936) 1870 600 714 890 969 1420 2160 2360 3390 5380
2026-04-03 06:45 2.99 660 9860 (1945) 467 (1936) 1870 600 714 890 969 1420 2160 2360 3390 5380
2026-04-03 05:45 2.99 660 9860 (1945) 467 (1936) 1870 600 714 890 969 1420 2160 2360 3390 5380
2026-04-03 04:45 2.99 660 9860 (1945) 467 (1936) 1870 600 714 890 969 1420 2160 2360 3390 5380
2026-04-03 03:45 2.99 660 9860 (1945) 467 (1936) 1870 600 714 890 969 1420 2160 2360 3390 5380
2026-04-03 02:45 3.00 667 9860 (1945) 467 (1936) 1870 600 714 890 969 1420 2160 2360 3390 5380
2026-04-03 01:45 3.00 667 9860 (1945) 467 (1936) 1870 600 714 890 969 1420 2160 2360 3390 5380
2026-04-03 00:45 3.01 675 9860 (1945) 467 (1936) 1870 600 714 890 969 1420 2160 2360 3390 5380
2026-04-02 23:45 3.01 675 9860 (1945) 467 (1936) 1870 600 714 890 969 1420 2160 2360 3390 5380
2026-04-02 22:45 3.01 675 11800 (1945) 411 (1941) 1900 513 686 878 931 1340 2020 2280 3630 5470
2026-04-02 21:45 3.00 667 11800 (1945) 411 (1941) 1900 513 686 878 931 1340 2020 2280 3630 5470
2026-04-02 20:45 2.99 660 11800 (1945) 411 (1941) 1900 513 686 878 931 1340 2020 2280 3630 5470
2026-04-02 19:45 2.99 660 11800 (1945) 411 (1941) 1900 513 686 878 931 1340 2020 2280 3630 5470
2026-04-02 18:45 2.98 652 11800 (1945) 411 (1941) 1900 513 686 878 931 1340 2020 2280 3630 5470
2026-04-02 17:45 2.97 644 11800 (1945) 411 (1941) 1900 513 686 878 931 1340 2020 2280 3630 5470
2026-04-02 16:45 2.97 644 11800 (1945) 411 (1941) 1900 513 686 878 931 1340 2020 2280 3630 5470
2026-04-02 15:45 2.99 660 11800 (1945) 411 (1941) 1900 513 686 878 931 1340 2020 2280 3630 5470
2026-04-02 14:45 2.96 637 11800 (1945) 411 (1941) 1900 513 686 878 931 1340 2020 2280 3630 5470
2026-04-02 13:45 2.97 644 11800 (1945) 411 (1941) 1900 513 686 878 931 1340 2020 2280 3630 5470
2026-04-02 12:45 2.96 637 11800 (1945) 411 (1941) 1900 513 686 878 931 1340 2020 2280 3630 5470
2026-04-02 11:45 2.95 629 11800 (1945) 411 (1941) 1900 513 686 878 931 1340 2020 2280 3630 5470
2026-04-02 08:45 2.97 644 11800 (1945) 411 (1941) 1900 513 686 878 931 1340 2020 2280 3630 5470
2026-04-02 07:45 2.99 660 11800 (1945) 411 (1941) 1900 513 686 878 931 1340 2020 2280 3630 5470
2026-04-02 06:45 2.98 652 11800 (1945) 411 (1941) 1900 513 686 878 931 1340 2020 2280 3630 5470
2026-04-02 05:45 2.98 652 11800 (1945) 411 (1941) 1900 513 686 878 931 1340 2020 2280 3630 5470
2026-04-02 04:45 2.99 660 11800 (1945) 411 (1941) 1900 513 686 878 931 1340 2020 2280 3630 5470
2026-04-02 03:45 2.99 660 11800 (1945) 411 (1941) 1900 513 686 878 931 1340 2020 2280 3630 5470
2026-04-02 02:45 2.99 660 11800 (1945) 411 (1941) 1900 513 686 878 931 1340 2020 2280 3630 5470
2026-04-02 01:45 2.99 660 11800 (1945) 411 (1941) 1900 513 686 878 931 1340 2020 2280 3630 5470
2026-04-02 00:45 2.99 660 11800 (1945) 411 (1941) 1900 513 686 878 931 1340 2020 2280 3630 5470
2026-04-01 23:45 2.99 660 11800 (1945) 411 (1941) 1900 513 686 878 931 1340 2020 2280 3630 5470
2026-04-01 22:45 2.99 660 14600 (1985) 411 (1941) 2150 522 731 936 951 1400 2220 2660 3990 6890
2026-04-01 21:45 2.99 660 14600 (1985) 411 (1941) 2150 522 731 936 951 1400 2220 2660 3990 6890
2026-04-01 20:45 2.99 660 14600 (1985) 411 (1941) 2150 522 731 936 951 1400 2220 2660 3990 6890
2026-04-01 19:45 2.99 660 14600 (1985) 411 (1941) 2150 522 731 936 951 1400 2220 2660 3990 6890
2026-04-01 18:45 3.00 667 14600 (1985) 411 (1941) 2150 522 731 936 951 1400 2220 2660 3990 6890
2026-04-01 17:45 2.99 660 14600 (1985) 411 (1941) 2150 522 731 936 951 1400 2220 2660 3990 6890
2026-04-01 16:45 2.98 652 14600 (1985) 411 (1941) 2150 522 731 936 951 1400 2220 2660 3990 6890
2026-04-01 15:45 2.98 652 14600 (1985) 411 (1941) 2150 522 731 936 951 1400 2220 2660 3990 6890
2026-04-01 14:45 2.98 652 14600 (1985) 411 (1941) 2150 522 731 936 951 1400 2220 2660 3990 6890
2026-04-01 13:45 2.98 652 14600 (1985) 411 (1941) 2150 522 731 936 951 1400 2220 2660 3990 6890
2026-04-01 12:45 2.97 644 14600 (1985) 411 (1941) 2150 522 731 936 951 1400 2220 2660 3990 6890
2026-04-01 11:45 2.98 652 14600 (1985) 411 (1941) 2150 522 731 936 951 1400 2220 2660 3990 6890
2026-04-01 10:45 3.00 667 14600 (1985) 411 (1941) 2150 522 731 936 951 1400 2220 2660 3990 6890
2026-04-01 09:45 2.98 652 14600 (1985) 411 (1941) 2150 522 731 936 951 1400 2220 2660 3990 6890
2026-04-01 08:45 2.99 660 14600 (1985) 411 (1941) 2150 522 731 936 951 1400 2220 2660 3990 6890
2026-04-01 07:45 2.98 652 14600 (1985) 411 (1941) 2150 522 731 936 951 1400 2220 2660 3990 6890
2026-04-01 06:45 3.00 667 14600 (1985) 411 (1941) 2150 522 731 936 951 1400 2220 2660 3990 6890
2026-04-01 05:45 3.00 667 14600 (1985) 411 (1941) 2150 522 731 936 951 1400 2220 2660 3990 6890
2026-04-01 04:45 3.00 667 14600 (1985) 411 (1941) 2150 522 731 936 951 1400 2220 2660 3990 6890
2026-04-01 03:45 3.00 667 14600 (1985) 411 (1941) 2150 522 731 936 951 1400 2220 2660 3990 6890
2026-04-01 02:45 3.00 667 14600 (1985) 411 (1941) 2150 522 731 936 951 1400 2220 2660 3990 6890
2026-04-01 01:45 3.00 667 14600 (1985) 411 (1941) 2150 522 731 936 951 1400 2220 2660 3990 6890
2026-04-01 00:45 3.00 667 14600 (1985) 411 (1941) 2150 522 731 936 951 1400 2220 2660 3990 6890
2026-03-31 23:45 3.00 667 14600 (1985) 411 (1941) 2150 522 731 936 951 1400 2220 2660 3990 6890
2026-03-31 22:45 3.00 667 21100 (1945) 437 (1941) 2420 515 695 915 959 1460 2370 2830 4980 8440
2026-03-31 21:45 3.01 675 21100 (1945) 437 (1941) 2420 515 695 915 959 1460 2370 2830 4980 8440
2026-03-31 20:45 3.01 675 21100 (1945) 437 (1941) 2420 515 695 915 959 1460 2370 2830 4980 8440
2026-03-31 19:45 3.01 675 21100 (1945) 437 (1941) 2420 515 695 915 959 1460 2370 2830 4980 8440
2026-03-31 18:45 2.99 660 21100 (1945) 437 (1941) 2420 515 695 915 959 1460 2370 2830 4980 8440
2026-03-31 17:45 3.01 675 21100 (1945) 437 (1941) 2420 515 695 915 959 1460 2370 2830 4980 8440
2026-03-31 16:45 2.99 660 21100 (1945) 437 (1941) 2420 515 695 915 959 1460 2370 2830 4980 8440
2026-03-31 15:45 3.00 667 21100 (1945) 437 (1941) 2420 515 695 915 959 1460 2370 2830 4980 8440
2026-03-31 14:45 3.00 667 21100 (1945) 437 (1941) 2420 515 695 915 959 1460 2370 2830 4980 8440
2026-03-31 13:45 2.99 660 21100 (1945) 437 (1941) 2420 515 695 915 959 1460 2370 2830 4980 8440
2026-03-31 12:45 3.00 667 21100 (1945) 437 (1941) 2420 515 695 915 959 1460 2370 2830 4980 8440
2026-03-31 11:45 2.99 660 21100 (1945) 437 (1941) 2420 515 695 915 959 1460 2370 2830 4980 8440
2026-03-31 10:45 2.99 660 21100 (1945) 437 (1941) 2420 515 695 915 959 1460 2370 2830 4980 8440
2026-03-31 09:45 2.99 660 21100 (1945) 437 (1941) 2420 515 695 915 959 1460 2370 2830 4980 8440
2026-03-31 08:45 2.99 660 21100 (1945) 437 (1941) 2420 515 695 915 959 1460 2370 2830 4980 8440
2026-03-31 07:45 3.02 682 21100 (1945) 437 (1941) 2420 515 695 915 959 1460 2370 2830 4980 8440
2026-03-31 06:45 3.02 682 21100 (1945) 437 (1941) 2420 515 695 915 959 1460 2370 2830 4980 8440
2026-03-31 05:45 3.02 682 21100 (1945) 437 (1941) 2420 515 695 915 959 1460 2370 2830 4980 8440
2026-03-31 04:45 3.02 682 21100 (1945) 437 (1941) 2420 515 695 915 959 1460 2370 2830 4980 8440
2026-03-31 03:45 3.02 682 21100 (1945) 437 (1941) 2420 515 695 915 959 1460 2370 2830 4980 8440
2026-03-31 02:45 3.02 682 21100 (1945) 437 (1941) 2420 515 695 915 959 1460 2370 2830 4980 8440
2026-03-31 01:45 3.02 682 21100 (1945) 437 (1941) 2420 515 695 915 959 1460 2370 2830 4980 8440
2026-03-31 00:45 3.02 682 21100 (1945) 437 (1941) 2420 515 695 915 959 1460 2370 2830 4980 8440
2026-03-30 23:45 3.02 682 21100 (1945) 437 (1941) 2420 515 695 915 959 1460 2370 2830 4980 8440
2026-03-30 22:45 3.02 682 12500 (1938) 406 (1941) 2140 474 719 921 970 1430 2250 2640 4160 7440
2026-03-30 21:45 3.02 682 12500 (1938) 406 (1941) 2140 474 719 921 970 1430 2250 2640 4160 7440
2026-03-30 20:45 3.02 682 12500 (1938) 406 (1941) 2140 474 719 921 970 1430 2250 2640 4160 7440
2026-03-30 19:45 3.02 682 12500 (1938) 406 (1941) 2140 474 719 921 970 1430 2250 2640 4160 7440
2026-03-30 18:45 3.01 675 12500 (1938) 406 (1941) 2140 474 719 921 970 1430 2250 2640 4160 7440
2026-03-30 17:45 3.02 682 12500 (1938) 406 (1941) 2140 474 719 921 970 1430 2250 2640 4160 7440
2026-03-30 16:45 2.99 660 12500 (1938) 406 (1941) 2140 474 719 921 970 1430 2250 2640 4160 7440
2026-03-30 15:45 2.99 660 12500 (1938) 406 (1941) 2140 474 719 921 970 1430 2250 2640 4160 7440
2026-03-30 14:45 3.00 667 12500 (1938) 406 (1941) 2140 474 719 921 970 1430 2250 2640 4160 7440
2026-03-30 13:45 3.00 667 12500 (1938) 406 (1941) 2140 474 719 921 970 1430 2250 2640 4160 7440
2026-03-30 12:45 3.00 667 12500 (1938) 406 (1941) 2140 474 719 921 970 1430 2250 2640 4160 7440
2026-03-30 11:45 3.00 667 12500 (1938) 406 (1941) 2140 474 719 921 970 1430 2250 2640 4160 7440
2026-03-30 10:45 2.99 660 12500 (1938) 406 (1941) 2140 474 719 921 970 1430 2250 2640 4160 7440
2026-03-30 09:45 3.00 667 12500 (1938) 406 (1941) 2140 474 719 921 970 1430 2250 2640 4160 7440
2026-03-30 08:45 2.99 660 12500 (1938) 406 (1941) 2140 474 719 921 970 1430 2250 2640 4160 7440
2026-03-30 07:45 3.00 667 12500 (1938) 406 (1941) 2140 474 719 921 970 1430 2250 2640 4160 7440
2026-03-30 06:45 3.02 682 12500 (1938) 406 (1941) 2140 474 719 921 970 1430 2250 2640 4160 7440
2026-03-30 05:45 3.02 682 12500 (1938) 406 (1941) 2140 474 719 921 970 1430 2250 2640 4160 7440
2026-03-30 04:45 3.02 682 12500 (1938) 406 (1941) 2140 474 719 921 970 1430 2250 2640 4160 7440
2026-03-30 03:45 3.02 682 12500 (1938) 406 (1941) 2140 474 719 921 970 1430 2250 2640 4160 7440
2026-03-30 02:45 3.02 682 12500 (1938) 406 (1941) 2140 474 719 921 970 1430 2250 2640 4160 7440
2026-03-30 01:45 3.02 682 12500 (1938) 406 (1941) 2140 474 719 921 970 1430 2250 2640 4160 7440
2026-03-30 00:45 3.02 682 12500 (1938) 406 (1941) 2140 474 719 921 970 1430 2250 2640 4160 7440
2026-03-29 23:45 3.02 682 12500 (1938) 406 (1941) 2140 474 719 921 970 1430 2250 2640 4160 7440
2026-03-29 22:45 3.02 682 17300 (1977) 389 (1981) 2020 485 737 952 977 1360 2300 2400 3000 4180
2026-03-29 21:45 3.02 682 17300 (1977) 389 (1981) 2020 485 737 952 977 1360 2300 2400 3000 4180
2026-03-29 20:45 3.02 682 17300 (1977) 389 (1981) 2020 485 737 952 977 1360 2300 2400 3000 4180
2026-03-29 19:45 3.02 682 17300 (1977) 389 (1981) 2020 485 737 952 977 1360 2300 2400 3000 4180
2026-03-29 18:45 3.03 690 17300 (1977) 389 (1981) 2020 485 737 952 977 1360 2300 2400 3000 4180
2026-03-29 17:45 3.01 675 17300 (1977) 389 (1981) 2020 485 737 952 977 1360 2300 2400 3000 4180
2026-03-29 16:45 3.00 667 17300 (1977) 389 (1981) 2020 485 737 952 977 1360 2300 2400 3000 4180
2026-03-29 15:45 3.02 682 17300 (1977) 389 (1981) 2020 485 737 952 977 1360 2300 2400 3000 4180
2026-03-29 14:45 3.01 675 17300 (1977) 389 (1981) 2020 485 737 952 977 1360 2300 2400 3000 4180
2026-03-29 13:45 3.01 675 17300 (1977) 389 (1981) 2020 485 737 952 977 1360 2300 2400 3000 4180
2026-03-29 12:45 3.00 667 17300 (1977) 389 (1981) 2020 485 737 952 977 1360 2300 2400 3000 4180
2026-03-29 11:45 3.00 667 17300 (1977) 389 (1981) 2020 485 737 952 977 1360 2300 2400 3000 4180
2026-03-29 10:45 3.00 667 17300 (1977) 389 (1981) 2020 485 737 952 977 1360 2300 2400 3000 4180
2026-03-29 09:45 3.02 682 17300 (1977) 389 (1981) 2020 485 737 952 977 1360 2300 2400 3000 4180
2026-03-29 08:45 3.03 690 17300 (1977) 389 (1981) 2020 485 737 952 977 1360 2300 2400 3000 4180
2026-03-29 07:45 3.03 690 17300 (1977) 389 (1981) 2020 485 737 952 977 1360 2300 2400 3000 4180
2026-03-29 06:45 3.03 690 17300 (1977) 389 (1981) 2020 485 737 952 977 1360 2300 2400 3000 4180
2026-03-29 05:45 3.03 690 17300 (1977) 389 (1981) 2020 485 737 952 977 1360 2300 2400 3000 4180
2026-03-29 04:45 3.03 690 17300 (1977) 389 (1981) 2020 485 737 952 977 1360 2300 2400 3000 4180
2026-03-29 03:45 3.03 690 17300 (1977) 389 (1981) 2020 485 737 952 977 1360 2300 2400 3000 4180
2026-03-29 02:45 3.04 697 17300 (1977) 389 (1981) 2020 485 737 952 977 1360 2300 2400 3000 4180
2026-03-29 01:45 3.04 697 17300 (1977) 389 (1981) 2020 485 737 952 977 1360 2300 2400 3000 4180
2026-03-29 00:45 3.04 697 17300 (1977) 389 (1981) 2020 485 737 952 977 1360 2300 2400 3000 4180
2026-03-28 23:45 3.04 697 17300 (1977) 389 (1981) 2020 485 737 952 977 1360 2300 2400 3000 4180
2026-03-28 22:45 3.04 697 27800 (1977) 379 (1981) 2020 490 635 954 1000 1340 2030 2370 3200 4360
2026-03-28 21:45 3.04 697 27800 (1977) 379 (1981) 2020 490 635 954 1000 1340 2030 2370 3200 4360
2026-03-28 20:45 3.04 697 27800 (1977) 379 (1981) 2020 490 635 954 1000 1340 2030 2370 3200 4360
2026-03-28 19:45 3.04 697 27800 (1977) 379 (1981) 2020 490 635 954 1000 1340 2030 2370 3200 4360
2026-03-28 18:45 3.05 705 27800 (1977) 379 (1981) 2020 490 635 954 1000 1340 2030 2370 3200 4360
2026-03-28 17:45 3.05 705 27800 (1977) 379 (1981) 2020 490 635 954 1000 1340 2030 2370 3200 4360
2026-03-28 16:45 3.03 690 27800 (1977) 379 (1981) 2020 490 635 954 1000 1340 2030 2370 3200 4360
2026-03-28 15:45 3.06 712 27800 (1977) 379 (1981) 2020 490 635 954 1000 1340 2030 2370 3200 4360
2026-03-28 14:45 3.06 712 27800 (1977) 379 (1981) 2020 490 635 954 1000 1340 2030 2370 3200 4360
2026-03-28 13:45 3.04 697 27800 (1977) 379 (1981) 2020 490 635 954 1000 1340 2030 2370 3200 4360
2026-03-28 12:45 3.05 705 27800 (1977) 379 (1981) 2020 490 635 954 1000 1340 2030 2370 3200 4360
2026-03-28 11:45 3.05 705 27800 (1977) 379 (1981) 2020 490 635 954 1000 1340 2030 2370 3200 4360
2026-03-28 10:45 3.05 705 27800 (1977) 379 (1981) 2020 490 635 954 1000 1340 2030 2370 3200 4360
2026-03-28 09:45 3.05 705 27800 (1977) 379 (1981) 2020 490 635 954 1000 1340 2030 2370 3200 4360
2026-03-28 08:45 3.04 697 27800 (1977) 379 (1981) 2020 490 635 954 1000 1340 2030 2370 3200 4360
2026-03-28 07:45 3.05 705 27800 (1977) 379 (1981) 2020 490 635 954 1000 1340 2030 2370 3200 4360
2026-03-28 06:45 3.05 705 27800 (1977) 379 (1981) 2020 490 635 954 1000 1340 2030 2370 3200 4360
2026-03-28 05:45 3.05 705 27800 (1977) 379 (1981) 2020 490 635 954 1000 1340 2030 2370 3200 4360
2026-03-28 04:45 3.06 712 27800 (1977) 379 (1981) 2020 490 635 954 1000 1340 2030 2370 3200 4360
2026-03-28 03:45 3.06 712 27800 (1977) 379 (1981) 2020 490 635 954 1000 1340 2030 2370 3200 4360
2026-03-28 02:45 3.06 712 27800 (1977) 379 (1981) 2020 490 635 954 1000 1340 2030 2370 3200 4360
2026-03-28 01:45 3.06 712 27800 (1977) 379 (1981) 2020 490 635 954 1000 1340 2030 2370 3200 4360
2026-03-28 00:45 3.06 712 27800 (1977) 379 (1981) 2020 490 635 954 1000 1340 2030 2370 3200 4360
2026-03-27 23:45 3.06 712 27800 (1977) 379 (1981) 2020 490 635 954 1000 1340 2030 2370 3200 4360
2026-03-27 22:45 3.06 712 8010 (1949) 380 (1981) 1780 496 665 969 1010 1380 2090 2490 3170 4490
2026-03-27 21:45 3.07 720 8010 (1949) 380 (1981) 1780 496 665 969 1010 1380 2090 2490 3170 4490
2026-03-27 20:45 3.07 720 8010 (1949) 380 (1981) 1780 496 665 969 1010 1380 2090 2490 3170 4490
2026-03-27 19:45 3.07 720 8010 (1949) 380 (1981) 1780 496 665 969 1010 1380 2090 2490 3170 4490
2026-03-27 18:45 3.07 720 8010 (1949) 380 (1981) 1780 496 665 969 1010 1380 2090 2490 3170 4490
2026-03-27 17:45 3.07 720 8010 (1949) 380 (1981) 1780 496 665 969 1010 1380 2090 2490 3170 4490
2026-03-27 16:45 3.08 727 8010 (1949) 380 (1981) 1780 496 665 969 1010 1380 2090 2490 3170 4490
2026-03-27 15:45 3.08 727 8010 (1949) 380 (1981) 1780 496 665 969 1010 1380 2090 2490 3170 4490
2026-03-27 14:45 3.08 727 8010 (1949) 380 (1981) 1780 496 665 969 1010 1380 2090 2490 3170 4490
2026-03-27 13:45 3.09 735 8010 (1949) 380 (1981) 1780 496 665 969 1010 1380 2090 2490 3170 4490
2026-03-27 12:45 3.08 727 8010 (1949) 380 (1981) 1780 496 665 969 1010 1380 2090 2490 3170 4490
2026-03-27 11:45 3.08 727 8010 (1949) 380 (1981) 1780 496 665 969 1010 1380 2090 2490 3170 4490
2026-03-27 10:45 3.08 727 8010 (1949) 380 (1981) 1780 496 665 969 1010 1380 2090 2490 3170 4490
2026-03-27 09:45 3.09 735 8010 (1949) 380 (1981) 1780 496 665 969 1010 1380 2090 2490 3170 4490
2026-03-27 08:45 3.09 735 8010 (1949) 380 (1981) 1780 496 665 969 1010 1380 2090 2490 3170 4490
2026-03-27 07:45 3.09 735 8010 (1949) 380 (1981) 1780 496 665 969 1010 1380 2090 2490 3170 4490
2026-03-27 06:45 3.09 735 8010 (1949) 380 (1981) 1780 496 665 969 1010 1380 2090 2490 3170 4490
2026-03-27 05:45 3.08 727 8010 (1949) 380 (1981) 1780 496 665 969 1010 1380 2090 2490 3170 4490
2026-03-27 04:45 3.09 735 8010 (1949) 380 (1981) 1780 496 665 969 1010 1380 2090 2490 3170 4490
2026-03-27 03:45 3.09 735 8010 (1949) 380 (1981) 1780 496 665 969 1010 1380 2090 2490 3170 4490
2026-03-27 02:45 3.09 735 8010 (1949) 380 (1981) 1780 496 665 969 1010 1380 2090 2490 3170 4490
2026-03-27 01:45 3.09 735 8010 (1949) 380 (1981) 1780 496 665 969 1010 1380 2090 2490 3170 4490
2026-03-27 00:45 3.09 735 8010 (1949) 380 (1981) 1780 496 665 969 1010 1380 2090 2490 3170 4490
2026-03-26 23:45 3.09 735 8010 (1949) 380 (1981) 1780 496 665 969 1010 1380 2090 2490 3170 4490
2026-03-26 22:45 3.09 735 13000 (2002) 380 (1981) 1880 484 657 900 990 1340 2030 2260 3270 5420
2026-03-26 21:45 3.09 735 13000 (2002) 380 (1981) 1880 484 657 900 990 1340 2030 2260 3270 5420
2026-03-26 20:45 3.09 735 13000 (2002) 380 (1981) 1880 484 657 900 990 1340 2030 2260 3270 5420
2026-03-26 19:45 3.09 735 13000 (2002) 380 (1981) 1880 484 657 900 990 1340 2030 2260 3270 5420
2026-03-26 18:45 3.10 742 13000 (2002) 380 (1981) 1880 484 657 900 990 1340 2030 2260 3270 5420
2026-03-26 17:45 3.08 727 13000 (2002) 380 (1981) 1880 484 657 900 990 1340 2030 2260 3270 5420
2026-03-26 16:45 3.07 720 13000 (2002) 380 (1981) 1880 484 657 900 990 1340 2030 2260 3270 5420
2026-03-26 15:45 3.07 720 13000 (2002) 380 (1981) 1880 484 657 900 990 1340 2030 2260 3270 5420
2026-03-26 14:45 3.07 720 13000 (2002) 380 (1981) 1880 484 657 900 990 1340 2030 2260 3270 5420
2026-03-26 13:45 3.08 727 13000 (2002) 380 (1981) 1880 484 657 900 990 1340 2030 2260 3270 5420
2026-03-26 12:45 3.08 727 13000 (2002) 380 (1981) 1880 484 657 900 990 1340 2030 2260 3270 5420
2026-03-26 11:45 3.10 742 13000 (2002) 380 (1981) 1880 484 657 900 990 1340 2030 2260 3270 5420
2026-03-26 10:45 3.09 735 13000 (2002) 380 (1981) 1880 484 657 900 990 1340 2030 2260 3270 5420
2026-03-26 09:45 3.08 727 13000 (2002) 380 (1981) 1880 484 657 900 990 1340 2030 2260 3270 5420
2026-03-26 08:45 3.10 742 13000 (2002) 380 (1981) 1880 484 657 900 990 1340 2030 2260 3270 5420
2026-03-26 07:45 3.10 742 13000 (2002) 380 (1981) 1880 484 657 900 990 1340 2030 2260 3270 5420
2026-03-26 06:45 3.10 742 13000 (2002) 380 (1981) 1880 484 657 900 990 1340 2030 2260 3270 5420
2026-03-26 05:45 3.10 742 13000 (2002) 380 (1981) 1880 484 657 900 990 1340 2030 2260 3270 5420
2026-03-26 04:45 3.11 750 13000 (2002) 380 (1981) 1880 484 657 900 990 1340 2030 2260 3270 5420
2026-03-26 03:45 3.11 750 13000 (2002) 380 (1981) 1880 484 657 900 990 1340 2030 2260 3270 5420
2026-03-26 02:45 3.10 742 13000 (2002) 380 (1981) 1880 484 657 900 990 1340 2030 2260 3270 5420
2026-03-26 01:45 3.10 742 13000 (2002) 380 (1981) 1880 484 657 900 990 1340 2030 2260 3270 5420
2026-03-26 00:45 3.10 742 13000 (2002) 380 (1981) 1880 484 657 900 990 1340 2030 2260 3270 5420
2026-03-25 23:45 3.10 742 13000 (2002) 380 (1981) 1880 484 657 900 990 1340 2030 2260 3270 5420
2026-03-25 22:45 3.11 750 10600 (1958) 383 (1981) 1810 490 656 875 967 1350 1990 2230 3130 4530
2026-03-25 21:45 3.10 742 10600 (1958) 383 (1981) 1810 490 656 875 967 1350 1990 2230 3130 4530
2026-03-25 20:45 3.11 750 10600 (1958) 383 (1981) 1810 490 656 875 967 1350 1990 2230 3130 4530
2026-03-25 19:45 3.11 750 10600 (1958) 383 (1981) 1810 490 656 875 967 1350 1990 2230 3130 4530
2026-03-25 18:45 3.11 750 10600 (1958) 383 (1981) 1810 490 656 875 967 1350 1990 2230 3130 4530
2026-03-25 17:45 3.09 735 10600 (1958) 383 (1981) 1810 490 656 875 967 1350 1990 2230 3130 4530
2026-03-25 16:45 3.08 727 10600 (1958) 383 (1981) 1810 490 656 875 967 1350 1990 2230 3130 4530
2026-03-25 15:45 3.12 757 10600 (1958) 383 (1981) 1810 490 656 875 967 1350 1990 2230 3130 4530
2026-03-25 14:45 3.11 750 10600 (1958) 383 (1981) 1810 490 656 875 967 1350 1990 2230 3130 4530
2026-03-25 13:45 3.09 735 10600 (1958) 383 (1981) 1810 490 656 875 967 1350 1990 2230 3130 4530
2026-03-25 12:45 3.09 735 10600 (1958) 383 (1981) 1810 490 656 875 967 1350 1990 2230 3130 4530
2026-03-25 11:45 3.09 735 10600 (1958) 383 (1981) 1810 490 656 875 967 1350 1990 2230 3130 4530
2026-03-25 10:45 3.10 742 10600 (1958) 383 (1981) 1810 490 656 875 967 1350 1990 2230 3130 4530
2026-03-25 09:45 3.09 735 10600 (1958) 383 (1981) 1810 490 656 875 967 1350 1990 2230 3130 4530
2026-03-25 08:45 3.11 750 10600 (1958) 383 (1981) 1810 490 656 875 967 1350 1990 2230 3130 4530
2026-03-25 07:45 3.12 757 10600 (1958) 383 (1981) 1810 490 656 875 967 1350 1990 2230 3130 4530
2026-03-25 06:45 3.12 757 10600 (1958) 383 (1981) 1810 490 656 875 967 1350 1990 2230 3130 4530
2026-03-25 05:45 3.12 757 10600 (1958) 383 (1981) 1810 490 656 875 967 1350 1990 2230 3130 4530
2026-03-25 04:45 3.12 757 10600 (1958) 383 (1981) 1810 490 656 875 967 1350 1990 2230 3130 4530
2026-03-25 03:45 3.12 757 10600 (1958) 383 (1981) 1810 490 656 875 967 1350 1990 2230 3130 4530
2026-03-25 02:45 3.12 757 10600 (1958) 383 (1981) 1810 490 656 875 967 1350 1990 2230 3130 4530
2026-03-25 01:45 3.12 757 10600 (1958) 383 (1981) 1810 490 656 875 967 1350 1990 2230 3130 4530
2026-03-25 00:45 3.12 757 10600 (1958) 383 (1981) 1810 490 656 875 967 1350 1990 2230 3130 4530
2026-03-24 23:45 3.12 757 10600 (1958) 383 (1981) 1810 490 656 875 967 1350 1990 2230 3130 4530
2026-03-24 22:45 3.12 757 10600 (1958) 386 (1981) 1700 498 644 890 913 1370 2080 2190 3190 3840
2026-03-24 21:45 3.12 757 10600 (1958) 386 (1981) 1700 498 644 890 913 1370 2080 2190 3190 3840
2026-03-24 20:45 3.12 757 10600 (1958) 386 (1981) 1700 498 644 890 913 1370 2080 2190 3190 3840
2026-03-24 19:45 3.13 765 10600 (1958) 386 (1981) 1700 498 644 890 913 1370 2080 2190 3190 3840
2026-03-24 18:45 3.13 765 10600 (1958) 386 (1981) 1700 498 644 890 913 1370 2080 2190 3190 3840
2026-03-24 17:45 3.13 765 10600 (1958) 386 (1981) 1700 498 644 890 913 1370 2080 2190 3190 3840
2026-03-24 16:45 3.14 773 10600 (1958) 386 (1981) 1700 498 644 890 913 1370 2080 2190 3190 3840
2026-03-24 15:45 3.14 773 10600 (1958) 386 (1981) 1700 498 644 890 913 1370 2080 2190 3190 3840
2026-03-24 14:45 3.14 773 10600 (1958) 386 (1981) 1700 498 644 890 913 1370 2080 2190 3190 3840
2026-03-24 13:45 3.11 750 10600 (1958) 386 (1981) 1700 498 644 890 913 1370 2080 2190 3190 3840
2026-03-24 12:45 3.14 773 10600 (1958) 386 (1981) 1700 498 644 890 913 1370 2080 2190 3190 3840
2026-03-24 11:45 3.14 773 10600 (1958) 386 (1981) 1700 498 644 890 913 1370 2080 2190 3190 3840
2026-03-24 10:45 3.14 773 10600 (1958) 386 (1981) 1700 498 644 890 913 1370 2080 2190 3190 3840
2026-03-24 09:45 3.11 750 10600 (1958) 386 (1981) 1700 498 644 890 913 1370 2080 2190 3190 3840
2026-03-24 08:45 3.13 765 10600 (1958) 386 (1981) 1700 498 644 890 913 1370 2080 2190 3190 3840
2026-03-24 07:45 3.14 773 10600 (1958) 386 (1981) 1700 498 644 890 913 1370 2080 2190 3190 3840
2026-03-24 06:45 3.14 773 10600 (1958) 386 (1981) 1700 498 644 890 913 1370 2080 2190 3190 3840
2026-03-24 05:45 3.14 773 10600 (1958) 386 (1981) 1700 498 644 890 913 1370 2080 2190 3190 3840
2026-03-24 04:45 3.14 773 10600 (1958) 386 (1981) 1700 498 644 890 913 1370 2080 2190 3190 3840
2026-03-24 03:45 3.14 773 10600 (1958) 386 (1981) 1700 498 644 890 913 1370 2080 2190 3190 3840
2026-03-24 02:45 3.14 773 10600 (1958) 386 (1981) 1700 498 644 890 913 1370 2080 2190 3190 3840
2026-03-24 01:45 3.14 773 10600 (1958) 386 (1981) 1700 498 644 890 913 1370 2080 2190 3190 3840
2026-03-24 00:45 3.14 773 10600 (1958) 386 (1981) 1700 498 644 890 913 1370 2080 2190 3190 3840
2026-03-23 23:45 3.15 780 10600 (1958) 386 (1981) 1700 498 644 890 913 1370 2080 2190 3190 3840
2026-03-23 22:45 3.15 780 4470 (2008) 393 (1981) 1630 493 633 915 942 1400 2050 2300 3200 4050
2026-03-23 21:45 3.15 780 4470 (2008) 393 (1981) 1630 493 633 915 942 1400 2050 2300 3200 4050
2026-03-23 20:45 3.15 780 4470 (2008) 393 (1981) 1630 493 633 915 942 1400 2050 2300 3200 4050
2026-03-23 19:45 3.15 780 4470 (2008) 393 (1981) 1630 493 633 915 942 1400 2050 2300 3200 4050
2026-03-23 18:45 3.16 788 4470 (2008) 393 (1981) 1630 493 633 915 942 1400 2050 2300 3200 4050
2026-03-23 17:45 3.16 788 4470 (2008) 393 (1981) 1630 493 633 915 942 1400 2050 2300 3200 4050
2026-03-23 16:45 3.16 788 4470 (2008) 393 (1981) 1630 493 633 915 942 1400 2050 2300 3200 4050
2026-03-23 15:45 3.15 780 4470 (2008) 393 (1981) 1630 493 633 915 942 1400 2050 2300 3200 4050
2026-03-23 14:45 3.18 803 4470 (2008) 393 (1981) 1630 493 633 915 942 1400 2050 2300 3200 4050
2026-03-23 13:45 3.18 803 4470 (2008) 393 (1981) 1630 493 633 915 942 1400 2050 2300 3200 4050
2026-03-23 12:45 3.17 795 4470 (2008) 393 (1981) 1630 493 633 915 942 1400 2050 2300 3200 4050
2026-03-23 11:45 3.17 795 4470 (2008) 393 (1981) 1630 493 633 915 942 1400 2050 2300 3200 4050
2026-03-23 10:45 3.18 803 4470 (2008) 393 (1981) 1630 493 633 915 942 1400 2050 2300 3200 4050
2026-03-23 09:45 3.18 803 4470 (2008) 393 (1981) 1630 493 633 915 942 1400 2050 2300 3200 4050
2026-03-23 08:45 3.17 795 4470 (2008) 393 (1981) 1630 493 633 915 942 1400 2050 2300 3200 4050
2026-03-23 07:45 3.18 803 4470 (2008) 393 (1981) 1630 493 633 915 942 1400 2050 2300 3200 4050
2026-03-23 06:45 3.18 803 4470 (2008) 393 (1981) 1630 493 633 915 942 1400 2050 2300 3200 4050
2026-03-23 05:45 3.18 803 4470 (2008) 393 (1981) 1630 493 633 915 942 1400 2050 2300 3200 4050
2026-03-23 04:45 3.18 803 4470 (2008) 393 (1981) 1630 493 633 915 942 1400 2050 2300 3200 4050
2026-03-23 03:45 3.18 803 4470 (2008) 393 (1981) 1630 493 633 915 942 1400 2050 2300 3200 4050
2026-03-23 02:45 3.19 810 4470 (2008) 393 (1981) 1630 493 633 915 942 1400 2050 2300 3200 4050
2026-03-23 01:45 3.19 810 4470 (2008) 393 (1981) 1630 493 633 915 942 1400 2050 2300 3200 4050
2026-03-23 00:45 3.19 810 4470 (2008) 393 (1981) 1630 493 633 915 942 1400 2050 2300 3200 4050
2026-03-22 23:45 3.19 810 4470 (2008) 393 (1981) 1630 493 633 915 942 1400 2050 2300 3200 4050
2026-03-22 22:45 3.19 810 9290 (1955) 386 (1954) 1740 485 656 930 964 1400 2010 2340 2920 4920
2026-03-22 21:45 3.18 803 9290 (1955) 386 (1954) 1740 485 656 930 964 1400 2010 2340 2920 4920
2026-03-22 20:45 3.20 818 9290 (1955) 386 (1954) 1740 485 656 930 964 1400 2010 2340 2920 4920
2026-03-22 19:45 3.20 818 9290 (1955) 386 (1954) 1740 485 656 930 964 1400 2010 2340 2920 4920
2026-03-22 18:45 3.20 818 9290 (1955) 386 (1954) 1740 485 656 930 964 1400 2010 2340 2920 4920
2026-03-22 17:45 3.18 803 9290 (1955) 386 (1954) 1740 485 656 930 964 1400 2010 2340 2920 4920
2026-03-22 16:45 3.20 818 9290 (1955) 386 (1954) 1740 485 656 930 964 1400 2010 2340 2920 4920
2026-03-22 15:45 3.17 795 9290 (1955) 386 (1954) 1740 485 656 930 964 1400 2010 2340 2920 4920
2026-03-22 14:45 3.18 803 9290 (1955) 386 (1954) 1740 485 656 930 964 1400 2010 2340 2920 4920
2026-03-22 13:45 3.19 810 9290 (1955) 386 (1954) 1740 485 656 930 964 1400 2010 2340 2920 4920
2026-03-22 12:45 3.16 788 9290 (1955) 386 (1954) 1740 485 656 930 964 1400 2010 2340 2920 4920
2026-03-22 11:45 3.19 810 9290 (1955) 386 (1954) 1740 485 656 930 964 1400 2010 2340 2920 4920
2026-03-22 10:45 3.19 810 9290 (1955) 386 (1954) 1740 485 656 930 964 1400 2010 2340 2920 4920
2026-03-22 09:45 3.18 803 9290 (1955) 386 (1954) 1740 485 656 930 964 1400 2010 2340 2920 4920
2026-03-22 08:45 3.20 818 9290 (1955) 386 (1954) 1740 485 656 930 964 1400 2010 2340 2920 4920
2026-03-22 07:45 3.21 826 9290 (1955) 386 (1954) 1740 485 656 930 964 1400 2010 2340 2920 4920
2026-03-22 06:45 3.21 826 9290 (1955) 386 (1954) 1740 485 656 930 964 1400 2010 2340 2920 4920
2026-03-22 05:45 3.22 833 9290 (1955) 386 (1954) 1740 485 656 930 964 1400 2010 2340 2920 4920
2026-03-22 04:45 3.22 833 9290 (1955) 386 (1954) 1740 485 656 930 964 1400 2010 2340 2920 4920
2026-03-22 03:45 3.22 833 9290 (1955) 386 (1954) 1740 485 656 930 964 1400 2010 2340 2920 4920
2026-03-22 02:45 3.22 833 9290 (1955) 386 (1954) 1740 485 656 930 964 1400 2010 2340 2920 4920
2026-03-22 01:45 3.22 833 9290 (1955) 386 (1954) 1740 485 656 930 964 1400 2010 2340 2920 4920
2026-03-22 00:45 3.22 833 9290 (1955) 386 (1954) 1740 485 656 930 964 1400 2010 2340 2920 4920
2026-03-21 23:45 3.22 833 9290 (1955) 386 (1954) 1740 485 656 930 964 1400 2010 2340 2920 4920
2026-03-21 22:45 3.22 833 13500 (2008) 381 (1954) 1940 488 685 921 976 1430 2040 2170 3050 6920
2026-03-21 21:45 3.22 833 13500 (2008) 381 (1954) 1940 488 685 921 976 1430 2040 2170 3050 6920
2026-03-21 20:45 3.23 841 13500 (2008) 381 (1954) 1940 488 685 921 976 1430 2040 2170 3050 6920
2026-03-21 19:45 3.23 841 13500 (2008) 381 (1954) 1940 488 685 921 976 1430 2040 2170 3050 6920
2026-03-21 18:45 3.23 841 13500 (2008) 381 (1954) 1940 488 685 921 976 1430 2040 2170 3050 6920
2026-03-21 17:45 3.22 833 13500 (2008) 381 (1954) 1940 488 685 921 976 1430 2040 2170 3050 6920
2026-03-21 16:45 3.21 826 13500 (2008) 381 (1954) 1940 488 685 921 976 1430 2040 2170 3050 6920
2026-03-21 15:45 3.21 826 13500 (2008) 381 (1954) 1940 488 685 921 976 1430 2040 2170 3050 6920
2026-03-21 14:45 3.21 826 13500 (2008) 381 (1954) 1940 488 685 921 976 1430 2040 2170 3050 6920
2026-03-21 13:45 3.21 826 13500 (2008) 381 (1954) 1940 488 685 921 976 1430 2040 2170 3050 6920
2026-03-21 12:45 3.21 826 13500 (2008) 381 (1954) 1940 488 685 921 976 1430 2040 2170 3050 6920
2026-03-21 11:45 3.24 848 13500 (2008) 381 (1954) 1940 488 685 921 976 1430 2040 2170 3050 6920
2026-03-21 10:45 3.23 841 13500 (2008) 381 (1954) 1940 488 685 921 976 1430 2040 2170 3050 6920
2026-03-21 09:45 3.22 833 13500 (2008) 381 (1954) 1940 488 685 921 976 1430 2040 2170 3050 6920
2026-03-21 08:45 3.24 848 13500 (2008) 381 (1954) 1940 488 685 921 976 1430 2040 2170 3050 6920
2026-03-21 07:45 3.24 848 13500 (2008) 381 (1954) 1940 488 685 921 976 1430 2040 2170 3050 6920
2026-03-21 06:45 3.25 856 13500 (2008) 381 (1954) 1940 488 685 921 976 1430 2040 2170 3050 6920
2026-03-21 05:45 3.25 856 13500 (2008) 381 (1954) 1940 488 685 921 976 1430 2040 2170 3050 6920
2026-03-21 04:45 3.25 856 13500 (2008) 381 (1954) 1940 488 685 921 976 1430 2040 2170 3050 6920
2026-03-21 03:45 3.25 856 13500 (2008) 381 (1954) 1940 488 685 921 976 1430 2040 2170 3050 6920
2026-03-21 02:45 3.25 856 13500 (2008) 381 (1954) 1940 488 685 921 976 1430 2040 2170 3050 6920
2026-03-21 01:45 3.25 856 13500 (2008) 381 (1954) 1940 488 685 921 976 1430 2040 2170 3050 6920
2026-03-21 00:45 3.25 856 13500 (2008) 381 (1954) 1940 488 685 921 976 1430 2040 2170 3050 6920
2026-03-20 23:45 3.25 856 13500 (2008) 381 (1954) 1940 488 685 921 976 1430 2040 2170 3050 6920
2026-03-20 22:45 3.26 863 27100 (2008) 380 (1981) 2080 493 696 923 992 1460 2060 2150 3090 5950
2026-03-20 21:45 3.26 863 27100 (2008) 380 (1981) 2080 493 696 923 992 1460 2060 2150 3090 5950
2026-03-20 20:45 3.26 863 27100 (2008) 380 (1981) 2080 493 696 923 992 1460 2060 2150 3090 5950
2026-03-20 19:45 3.26 863 27100 (2008) 380 (1981) 2080 493 696 923 992 1460 2060 2150 3090 5950
2026-03-20 18:45 3.27 871 27100 (2008) 380 (1981) 2080 493 696 923 992 1460 2060 2150 3090 5950
2026-03-20 17:45 3.27 871 27100 (2008) 380 (1981) 2080 493 696 923 992 1460 2060 2150 3090 5950
2026-03-20 16:45 3.28 879 27100 (2008) 380 (1981) 2080 493 696 923 992 1460 2060 2150 3090 5950
2026-03-20 15:45 3.24 848 27100 (2008) 380 (1981) 2080 493 696 923 992 1460 2060 2150 3090 5950
2026-03-20 14:45 3.25 856 27100 (2008) 380 (1981) 2080 493 696 923 992 1460 2060 2150 3090 5950
2026-03-20 13:45 3.25 856 27100 (2008) 380 (1981) 2080 493 696 923 992 1460 2060 2150 3090 5950
2026-03-20 12:45 3.25 856 27100 (2008) 380 (1981) 2080 493 696 923 992 1460 2060 2150 3090 5950
2026-03-20 11:45 3.26 863 27100 (2008) 380 (1981) 2080 493 696 923 992 1460 2060 2150 3090 5950
2026-03-20 10:45 3.28 879 27100 (2008) 380 (1981) 2080 493 696 923 992 1460 2060 2150 3090 5950
2026-03-20 09:45 3.28 879 27100 (2008) 380 (1981) 2080 493 696 923 992 1460 2060 2150 3090 5950
2026-03-20 08:45 3.28 879 27100 (2008) 380 (1981) 2080 493 696 923 992 1460 2060 2150 3090 5950
2026-03-20 07:45 3.28 879 27100 (2008) 380 (1981) 2080 493 696 923 992 1460 2060 2150 3090 5950
2026-03-20 06:45 3.28 879 27100 (2008) 380 (1981) 2080 493 696 923 992 1460 2060 2150 3090 5950
2026-03-20 05:45 3.28 879 27100 (2008) 380 (1981) 2080 493 696 923 992 1460 2060 2150 3090 5950
2026-03-20 04:45 3.28 879 27100 (2008) 380 (1981) 2080 493 696 923 992 1460 2060 2150 3090 5950
2026-03-20 03:45 3.29 886 27100 (2008) 380 (1981) 2080 493 696 923 992 1460 2060 2150 3090 5950
2026-03-20 02:45 3.29 886 27100 (2008) 380 (1981) 2080 493 696 923 992 1460 2060 2150 3090 5950
2026-03-20 01:45 3.29 886 27100 (2008) 380 (1981) 2080 493 696 923 992 1460 2060 2150 3090 5950
2026-03-20 00:45 3.27 871 27100 (2008) 380 (1981) 2080 493 696 923 992 1460 2060 2150 3090 5950
2026-03-19 23:45 3.29 886 27100 (2008) 380 (1981) 2080 493 696 923 992 1460 2060 2150 3090 5950
2026-03-19 22:45 3.29 886 53500 (2008) 386 (1954) 2280 512 683 872 971 1430 2080 2210 3060 4700
2026-03-19 21:45 3.30 894 53500 (2008) 386 (1954) 2280 512 683 872 971 1430 2080 2210 3060 4700
2026-03-19 20:45 3.30 894 53500 (2008) 386 (1954) 2280 512 683 872 971 1430 2080 2210 3060 4700
2026-03-19 19:45 3.30 894 53500 (2008) 386 (1954) 2280 512 683 872 971 1430 2080 2210 3060 4700
2026-03-19 18:45 3.30 894 53500 (2008) 386 (1954) 2280 512 683 872 971 1430 2080 2210 3060 4700
2026-03-19 17:45 3.28 879 53500 (2008) 386 (1954) 2280 512 683 872 971 1430 2080 2210 3060 4700
2026-03-19 16:45 3.28 879 53500 (2008) 386 (1954) 2280 512 683 872 971 1430 2080 2210 3060 4700
2026-03-19 15:45 3.31 901 53500 (2008) 386 (1954) 2280 512 683 872 971 1430 2080 2210 3060 4700
2026-03-19 14:45 3.29 886 53500 (2008) 386 (1954) 2280 512 683 872 971 1430 2080 2210 3060 4700
2026-03-19 13:45 3.32 909 53500 (2008) 386 (1954) 2280 512 683 872 971 1430 2080 2210 3060 4700
2026-03-19 12:45 3.31 901 53500 (2008) 386 (1954) 2280 512 683 872 971 1430 2080 2210 3060 4700
2026-03-19 11:45 3.32 909 53500 (2008) 386 (1954) 2280 512 683 872 971 1430 2080 2210 3060 4700
2026-03-19 10:45 3.30 894 53500 (2008) 386 (1954) 2280 512 683 872 971 1430 2080 2210 3060 4700
2026-03-19 09:45 3.32 909 53500 (2008) 386 (1954) 2280 512 683 872 971 1430 2080 2210 3060 4700
2026-03-19 08:45 3.32 909 53500 (2008) 386 (1954) 2280 512 683 872 971 1430 2080 2210 3060 4700
2026-03-19 07:45 3.32 909 53500 (2008) 386 (1954) 2280 512 683 872 971 1430 2080 2210 3060 4700
2026-03-19 06:45 3.33 917 53500 (2008) 386 (1954) 2280 512 683 872 971 1430 2080 2210 3060 4700
2026-03-19 05:45 3.33 917 53500 (2008) 386 (1954) 2280 512 683 872 971 1430 2080 2210 3060 4700
2026-03-19 04:45 3.33 917 53500 (2008) 386 (1954) 2280 512 683 872 971 1430 2080 2210 3060 4700
2026-03-19 03:45 3.33 917 53500 (2008) 386 (1954) 2280 512 683 872 971 1430 2080 2210 3060 4700
2026-03-19 02:45 3.33 917 53500 (2008) 386 (1954) 2280 512 683 872 971 1430 2080 2210 3060 4700
2026-03-19 01:45 3.33 917 53500 (2008) 386 (1954) 2280 512 683 872 971 1430 2080 2210 3060 4700
2026-03-19 00:45 3.33 917 53500 (2008) 386 (1954) 2280 512 683 872 971 1430 2080 2210 3060 4700
2026-03-18 23:45 3.34 924 53500 (2008) 386 (1954) 2280 512 683 872 971 1430 2080 2210 3060 4700
2026-03-18 22:45 3.34 924 6580 (2008) 362 (1954) 1640 515 689 828 950 1330 2030 2360 2920 4240
2026-03-18 21:45 3.34 924 6580 (2008) 362 (1954) 1640 515 689 828 950 1330 2030 2360 2920 4240
2026-03-18 20:45 3.34 924 6580 (2008) 362 (1954) 1640 515 689 828 950 1330 2030 2360 2920 4240
2026-03-18 19:45 3.34 924 6580 (2008) 362 (1954) 1640 515 689 828 950 1330 2030 2360 2920 4240
2026-03-18 18:45 3.35 932 6580 (2008) 362 (1954) 1640 515 689 828 950 1330 2030 2360 2920 4240
2026-03-18 17:45 3.35 932 6580 (2008) 362 (1954) 1640 515 689 828 950 1330 2030 2360 2920 4240
2026-03-18 16:45 3.36 939 6580 (2008) 362 (1954) 1640 515 689 828 950 1330 2030 2360 2920 4240
2026-03-18 15:45 3.36 939 6580 (2008) 362 (1954) 1640 515 689 828 950 1330 2030 2360 2920 4240
2026-03-18 14:45 3.33 917 6580 (2008) 362 (1954) 1640 515 689 828 950 1330 2030 2360 2920 4240
2026-03-18 13:45 3.33 917 6580 (2008) 362 (1954) 1640 515 689 828 950 1330 2030 2360 2920 4240
2026-03-18 12:45 3.36 939 6580 (2008) 362 (1954) 1640 515 689 828 950 1330 2030 2360 2920 4240
2026-03-18 11:45 3.34 924 6580 (2008) 362 (1954) 1640 515 689 828 950 1330 2030 2360 2920 4240
2026-03-18 10:45 3.33 917 6580 (2008) 362 (1954) 1640 515 689 828 950 1330 2030 2360 2920 4240
2026-03-18 09:45 3.35 932 6580 (2008) 362 (1954) 1640 515 689 828 950 1330 2030 2360 2920 4240
2026-03-18 08:45 3.35 932 6580 (2008) 362 (1954) 1640 515 689 828 950 1330 2030 2360 2920 4240
2026-03-18 07:45 3.36 939 6580 (2008) 362 (1954) 1640 515 689 828 950 1330 2030 2360 2920 4240
2026-03-18 06:45 3.36 939 6580 (2008) 362 (1954) 1640 515 689 828 950 1330 2030 2360 2920 4240
2026-03-18 05:45 3.37 947 6580 (2008) 362 (1954) 1640 515 689 828 950 1330 2030 2360 2920 4240
2026-03-18 04:45 3.37 947 6580 (2008) 362 (1954) 1640 515 689 828 950 1330 2030 2360 2920 4240
2026-03-18 03:45 3.37 947 6580 (2008) 362 (1954) 1640 515 689 828 950 1330 2030 2360 2920 4240
2026-03-18 02:45 3.38 955 6580 (2008) 362 (1954) 1640 515 689 828 950 1330 2030 2360 2920 4240
2026-03-18 01:45 3.38 955 6580 (2008) 362 (1954) 1640 515 689 828 950 1330 2030 2360 2920 4240
2026-03-18 00:45 3.37 947 6580 (2008) 362 (1954) 1640 515 689 828 950 1330 2030 2360 2920 4240
2026-03-17 23:45 3.38 955 6580 (2008) 362 (1954) 1640 515 689 828 950 1330 2030 2360 2920 4240
2026-03-17 22:45 3.39 962 4400 (2021) 362 (1954) 1550 517 576 827 954 1280 1900 2280 2710 3250
2026-03-17 21:45 3.39 962 4400 (2021) 362 (1954) 1550 517 576 827 954 1280 1900 2280 2710 3250
2026-03-17 20:45 3.38 955 4400 (2021) 362 (1954) 1550 517 576 827 954 1280 1900 2280 2710 3250
2026-03-17 19:45 3.38 955 4400 (2021) 362 (1954) 1550 517 576 827 954 1280 1900 2280 2710 3250
2026-03-17 18:45 3.37 947 4400 (2021) 362 (1954) 1550 517 576 827 954 1280 1900 2280 2710 3250
2026-03-17 17:45 3.36 939 4400 (2021) 362 (1954) 1550 517 576 827 954 1280 1900 2280 2710 3250
2026-03-17 16:45 3.38 955 4400 (2021) 362 (1954) 1550 517 576 827 954 1280 1900 2280 2710 3250
2026-03-17 15:45 3.41 978 4400 (2021) 362 (1954) 1550 517 576 827 954 1280 1900 2280 2710 3250
2026-03-17 14:45 3.42 985 4400 (2021) 362 (1954) 1550 517 576 827 954 1280 1900 2280 2710 3250
2026-03-17 13:45 3.39 962 4400 (2021) 362 (1954) 1550 517 576 827 954 1280 1900 2280 2710 3250
2026-03-17 12:45 3.42 985 4400 (2021) 362 (1954) 1550 517 576 827 954 1280 1900 2280 2710 3250
2026-03-17 11:45 3.38 955 4400 (2021) 362 (1954) 1550 517 576 827 954 1280 1900 2280 2710 3250
2026-03-17 10:45 3.42 985 4400 (2021) 362 (1954) 1550 517 576 827 954 1280 1900 2280 2710 3250
2026-03-17 09:45 3.42 985 4400 (2021) 362 (1954) 1550 517 576 827 954 1280 1900 2280 2710 3250
2026-03-17 08:45 3.42 985 4400 (2021) 362 (1954) 1550 517 576 827 954 1280 1900 2280 2710 3250
2026-03-17 07:45 3.42 985 4400 (2021) 362 (1954) 1550 517 576 827 954 1280 1900 2280 2710 3250
2026-03-17 06:45 3.43 993 4400 (2021) 362 (1954) 1550 517 576 827 954 1280 1900 2280 2710 3250
2026-03-17 05:45 3.43 993 4400 (2021) 362 (1954) 1550 517 576 827 954 1280 1900 2280 2710 3250
2026-03-17 04:45 3.43 993 4400 (2021) 362 (1954) 1550 517 576 827 954 1280 1900 2280 2710 3250
2026-03-17 03:45 3.43 993 4400 (2021) 362 (1954) 1550 517 576 827 954 1280 1900 2280 2710 3250
2026-03-17 02:45 3.43 993 4400 (2021) 362 (1954) 1550 517 576 827 954 1280 1900 2280 2710 3250
2026-03-17 01:45 3.44 1000 4400 (2021) 362 (1954) 1550 517 576 827 954 1280 1900 2280 2710 3250
2026-03-17 00:45 3.44 1000 4400 (2021) 362 (1954) 1550 517 576 827 954 1280 1900 2280 2710 3250
2026-03-16 23:45 3.44 1000 4400 (2021) 362 (1954) 1550 517 576 827 954 1280 1900 2280 2710 3250
2026-03-16 22:45 3.44 1000 5130 (2015) 367 (1954) 1530 498 582 799 876 1280 1970 2090 2780 3270
2026-03-16 21:45 3.44 1000 5130 (2015) 367 (1954) 1530 498 582 799 876 1280 1970 2090 2780 3270
2026-03-16 20:45 3.45 1010 5130 (2015) 367 (1954) 1530 498 582 799 876 1280 1970 2090 2780 3270
2026-03-16 19:45 3.45 1010 5130 (2015) 367 (1954) 1530 498 582 799 876 1280 1970 2090 2780 3270
2026-03-16 18:45 3.46 1020 5130 (2015) 367 (1954) 1530 498 582 799 876 1280 1970 2090 2780 3270
2026-03-16 17:45 3.44 1000 5130 (2015) 367 (1954) 1530 498 582 799 876 1280 1970 2090 2780 3270
2026-03-16 16:45 3.43 993 5130 (2015) 367 (1954) 1530 498 582 799 876 1280 1970 2090 2780 3270
2026-03-16 15:45 3.44 1000 5130 (2015) 367 (1954) 1530 498 582 799 876 1280 1970 2090 2780 3270
2026-03-16 14:45 3.45 1010 5130 (2015) 367 (1954) 1530 498 582 799 876 1280 1970 2090 2780 3270
2026-03-16 13:45 3.45 1010 5130 (2015) 367 (1954) 1530 498 582 799 876 1280 1970 2090 2780 3270
2026-03-16 12:45 3.46 1020 5130 (2015) 367 (1954) 1530 498 582 799 876 1280 1970 2090 2780 3270
2026-03-16 11:45 3.44 1000 5130 (2015) 367 (1954) 1530 498 582 799 876 1280 1970 2090 2780 3270
2026-03-16 10:45 3.44 1000 5130 (2015) 367 (1954) 1530 498 582 799 876 1280 1970 2090 2780 3270
2026-03-16 09:45 3.44 1000 5130 (2015) 367 (1954) 1530 498 582 799 876 1280 1970 2090 2780 3270
2026-03-16 08:45 3.44 1000 5130 (2015) 367 (1954) 1530 498 582 799 876 1280 1970 2090 2780 3270
2026-03-16 07:45 3.46 1020 5130 (2015) 367 (1954) 1530 498 582 799 876 1280 1970 2090 2780 3270
2026-03-16 06:45 3.44 1000 5130 (2015) 367 (1954) 1530 498 582 799 876 1280 1970 2090 2780 3270
2026-03-16 05:45 3.46 1020 5130 (2015) 367 (1954) 1530 498 582 799 876 1280 1970 2090 2780 3270
2026-03-16 04:45 3.46 1020 5130 (2015) 367 (1954) 1530 498 582 799 876 1280 1970 2090 2780 3270
2026-03-16 03:45 3.48 1030 5130 (2015) 367 (1954) 1530 498 582 799 876 1280 1970 2090 2780 3270
2026-03-16 02:45 3.47 1020 5130 (2015) 367 (1954) 1530 498 582 799 876 1280 1970 2090 2780 3270
2026-03-16 01:45 3.48 1030 5130 (2015) 367 (1954) 1530 498 582 799 876 1280 1970 2090 2780 3270
2026-03-16 00:45 3.48 1030 5130 (2015) 367 (1954) 1530 498 582 799 876 1280 1970 2090 2780 3270
2026-03-15 23:45 3.48 1030 5130 (2015) 367 (1954) 1530 498 582 799 876 1280 1970 2090 2780 3270
2026-03-15 22:45 3.47 1020 8570 (2015) 372 (1954) 1630 492 600 801 842 1270 2030 2150 2920 4020
2026-03-15 21:45 3.47 1020 8570 (2015) 372 (1954) 1630 492 600 801 842 1270 2030 2150 2920 4020
2026-03-15 20:45 3.47 1020 8570 (2015) 372 (1954) 1630 492 600 801 842 1270 2030 2150 2920 4020
2026-03-15 19:45 3.48 1030 8570 (2015) 372 (1954) 1630 492 600 801 842 1270 2030 2150 2920 4020
2026-03-15 18:45 3.46 1020 8570 (2015) 372 (1954) 1630 492 600 801 842 1270 2030 2150 2920 4020
2026-03-15 17:45 3.48 1030 8570 (2015) 372 (1954) 1630 492 600 801 842 1270 2030 2150 2920 4020
2026-03-15 16:45 3.48 1030 8570 (2015) 372 (1954) 1630 492 600 801 842 1270 2030 2150 2920 4020
2026-03-15 15:45 3.48 1030 8570 (2015) 372 (1954) 1630 492 600 801 842 1270 2030 2150 2920 4020
2026-03-15 14:45 3.47 1020 8570 (2015) 372 (1954) 1630 492 600 801 842 1270 2030 2150 2920 4020
2026-03-15 13:45 3.49 1040 8570 (2015) 372 (1954) 1630 492 600 801 842 1270 2030 2150 2920 4020
2026-03-15 12:45 3.50 1050 8570 (2015) 372 (1954) 1630 492 600 801 842 1270 2030 2150 2920 4020
2026-03-15 11:45 3.49 1040 8570 (2015) 372 (1954) 1630 492 600 801 842 1270 2030 2150 2920 4020
2026-03-15 10:45 3.47 1020 8570 (2015) 372 (1954) 1630 492 600 801 842 1270 2030 2150 2920 4020
2026-03-15 09:45 3.47 1020 8570 (2015) 372 (1954) 1630 492 600 801 842 1270 2030 2150 2920 4020
2026-03-15 08:45 3.48 1030 8570 (2015) 372 (1954) 1630 492 600 801 842 1270 2030 2150 2920 4020
2026-03-15 07:45 3.47 1020 8570 (2015) 372 (1954) 1630 492 600 801 842 1270 2030 2150 2920 4020
2026-03-15 06:45 3.49 1040 8570 (2015) 372 (1954) 1630 492 600 801 842 1270 2030 2150 2920 4020
2026-03-15 05:45 3.49 1040 8570 (2015) 372 (1954) 1630 492 600 801 842 1270 2030 2150 2920 4020
2026-03-15 04:45 3.50 1050 8570 (2015) 372 (1954) 1630 492 600 801 842 1270 2030 2150 2920 4020
2026-03-15 03:45 3.50 1050 8570 (2015) 372 (1954) 1630 492 600 801 842 1270 2030 2150 2920 4020
2026-03-15 02:45 3.52 1060 8570 (2015) 372 (1954) 1630 492 600 801 842 1270 2030 2150 2920 4020
2026-03-15 01:45 3.52 1060 8570 (2015) 372 (1954) 1630 492 600 801 842 1270 2030 2150 2920 4020
2026-03-15 00:45 3.52 1060 8570 (2015) 372 (1954) 1630 492 600 801 842 1270 2030 2150 2920 4020
2026-03-14 23:45 3.52 1060 8570 (2015) 372 (1954) 1630 492 600 801 842 1270 2030 2150 2920 4020
2026-03-14 22:45 3.53 1070 12900 (2015) 381 (1954) 1680 497 623 823 859 1340 2030 2120 2990 3740
2026-03-14 21:45 3.53 1070 12900 (2015) 381 (1954) 1680 497 623 823 859 1340 2030 2120 2990 3740
2026-03-14 20:45 3.53 1070 12900 (2015) 381 (1954) 1680 497 623 823 859 1340 2030 2120 2990 3740
2026-03-14 19:45 3.53 1070 12900 (2015) 381 (1954) 1680 497 623 823 859 1340 2030 2120 2990 3740
2026-03-14 18:45 3.51 1050 12900 (2015) 381 (1954) 1680 497 623 823 859 1340 2030 2120 2990 3740
2026-03-14 17:45 3.50 1050 12900 (2015) 381 (1954) 1680 497 623 823 859 1340 2030 2120 2990 3740
2026-03-14 16:45 3.51 1050 12900 (2015) 381 (1954) 1680 497 623 823 859 1340 2030 2120 2990 3740
2026-03-14 15:45 3.52 1060 12900 (2015) 381 (1954) 1680 497 623 823 859 1340 2030 2120 2990 3740
2026-03-14 14:45 3.52 1060 12900 (2015) 381 (1954) 1680 497 623 823 859 1340 2030 2120 2990 3740
2026-03-14 13:45 3.53 1070 12900 (2015) 381 (1954) 1680 497 623 823 859 1340 2030 2120 2990 3740
2026-03-14 12:45 3.51 1050 12900 (2015) 381 (1954) 1680 497 623 823 859 1340 2030 2120 2990 3740
2026-03-14 11:45 3.55 1080 12900 (2015) 381 (1954) 1680 497 623 823 859 1340 2030 2120 2990 3740
2026-03-14 10:45 3.54 1080 12900 (2015) 381 (1954) 1680 497 623 823 859 1340 2030 2120 2990 3740
2026-03-14 09:45 3.55 1080 12900 (2015) 381 (1954) 1680 497 623 823 859 1340 2030 2120 2990 3740
2026-03-14 08:45 3.56 1090 12900 (2015) 381 (1954) 1680 497 623 823 859 1340 2030 2120 2990 3740
2026-03-14 07:45 3.57 1100 12900 (2015) 381 (1954) 1680 497 623 823 859 1340 2030 2120 2990 3740
2026-03-14 06:45 3.57 1100 12900 (2015) 381 (1954) 1680 497 623 823 859 1340 2030 2120 2990 3740
2026-03-14 05:45 3.57 1100 12900 (2015) 381 (1954) 1680 497 623 823 859 1340 2030 2120 2990 3740
2026-03-14 04:45 3.58 1110 12900 (2015) 381 (1954) 1680 497 623 823 859 1340 2030 2120 2990 3740
2026-03-14 03:45 3.58 1110 12900 (2015) 381 (1954) 1680 497 623 823 859 1340 2030 2120 2990 3740
2026-03-14 02:45 3.58 1110 12900 (2015) 381 (1954) 1680 497 623 823 859 1340 2030 2120 2990 3740
2026-03-14 01:45 3.58 1110 12900 (2015) 381 (1954) 1680 497 623 823 859 1340 2030 2120 2990 3740
2026-03-14 00:45 3.58 1110 12900 (2015) 381 (1954) 1680 497 623 823 859 1340 2030 2120 2990 3740
2026-03-13 23:45 3.59 1120 12900 (2015) 381 (1954) 1680 497 623 823 859 1340 2030 2120 2990 3740
2026-03-13 22:45 3.59 1120 7200 (2015) 391 (1954) 1640 507 641 841 900 1360 2060 2200 2960 4090
2026-03-13 21:45 3.59 1120 7200 (2015) 391 (1954) 1640 507 641 841 900 1360 2060 2200 2960 4090
2026-03-13 20:45 3.60 1120 7200 (2015) 391 (1954) 1640 507 641 841 900 1360 2060 2200 2960 4090
2026-03-13 19:45 3.60 1120 7200 (2015) 391 (1954) 1640 507 641 841 900 1360 2060 2200 2960 4090
2026-03-13 18:45 3.60 1120 7200 (2015) 391 (1954) 1640 507 641 841 900 1360 2060 2200 2960 4090
2026-03-13 17:45 3.61 1130 7200 (2015) 391 (1954) 1640 507 641 841 900 1360 2060 2200 2960 4090
2026-03-13 16:45 3.60 1120 7200 (2015) 391 (1954) 1640 507 641 841 900 1360 2060 2200 2960 4090
2026-03-13 15:45 3.62 1140 7200 (2015) 391 (1954) 1640 507 641 841 900 1360 2060 2200 2960 4090
2026-03-13 14:45 3.62 1140 7200 (2015) 391 (1954) 1640 507 641 841 900 1360 2060 2200 2960 4090
2026-03-13 13:45 3.62 1140 7200 (2015) 391 (1954) 1640 507 641 841 900 1360 2060 2200 2960 4090
2026-03-13 12:45 3.62 1140 7200 (2015) 391 (1954) 1640 507 641 841 900 1360 2060 2200 2960 4090
2026-03-13 11:45 3.62 1140 7200 (2015) 391 (1954) 1640 507 641 841 900 1360 2060 2200 2960 4090
2026-03-13 10:45 3.63 1150 7200 (2015) 391 (1954) 1640 507 641 841 900 1360 2060 2200 2960 4090
2026-03-13 09:45 3.63 1150 7200 (2015) 391 (1954) 1640 507 641 841 900 1360 2060 2200 2960 4090
2026-03-13 08:45 3.62 1140 7200 (2015) 391 (1954) 1640 507 641 841 900 1360 2060 2200 2960 4090
2026-03-13 07:45 3.63 1150 7200 (2015) 391 (1954) 1640 507 641 841 900 1360 2060 2200 2960 4090
2026-03-13 06:45 3.64 1150 7200 (2015) 391 (1954) 1640 507 641 841 900 1360 2060 2200 2960 4090
2026-03-13 05:45 3.64 1150 7200 (2015) 391 (1954) 1640 507 641 841 900 1360 2060 2200 2960 4090
2026-03-13 04:45 3.65 1160 7200 (2015) 391 (1954) 1640 507 641 841 900 1360 2060 2200 2960 4090
2026-03-13 03:45 3.64 1150 7200 (2015) 391 (1954) 1640 507 641 841 900 1360 2060 2200 2960 4090
2026-03-13 02:45 3.66 1170 7200 (2015) 391 (1954) 1640 507 641 841 900 1360 2060 2200 2960 4090
2026-03-13 01:45 3.66 1170 7200 (2015) 391 (1954) 1640 507 641 841 900 1360 2060 2200 2960 4090
2026-03-13 00:45 3.67 1180 7200 (2015) 391 (1954) 1640 507 641 841 900 1360 2060 2200 2960 4090
2026-03-12 23:45 3.67 1180 7200 (2015) 391 (1954) 1640 507 641 841 900 1360 2060 2200 2960 4090
2026-03-12 22:45 3.67 1180 9410 (1952) 400 (1954) 1750 509 671 857 910 1330 2050 2310 3060 4870
2026-03-12 21:45 3.68 1180 9410 (1952) 400 (1954) 1750 509 671 857 910 1330 2050 2310 3060 4870
2026-03-12 20:45 3.68 1180 9410 (1952) 400 (1954) 1750 509 671 857 910 1330 2050 2310 3060 4870
2026-03-12 19:45 3.69 1190 9410 (1952) 400 (1954) 1750 509 671 857 910 1330 2050 2310 3060 4870
2026-03-12 18:45 3.67 1180 9410 (1952) 400 (1954) 1750 509 671 857 910 1330 2050 2310 3060 4870
2026-03-12 17:45 3.68 1180 9410 (1952) 400 (1954) 1750 509 671 857 910 1330 2050 2310 3060 4870
2026-03-12 16:45 3.68 1180 9410 (1952) 400 (1954) 1750 509 671 857 910 1330 2050 2310 3060 4870
2026-03-12 15:45 3.72 1210 9410 (1952) 400 (1954) 1750 509 671 857 910 1330 2050 2310 3060 4870
2026-03-12 14:45 3.70 1200 9410 (1952) 400 (1954) 1750 509 671 857 910 1330 2050 2310 3060 4870
2026-03-12 13:45 3.70 1200 9410 (1952) 400 (1954) 1750 509 671 857 910 1330 2050 2310 3060 4870
2026-03-12 12:45 3.74 1230 9410 (1952) 400 (1954) 1750 509 671 857 910 1330 2050 2310 3060 4870
2026-03-12 11:45 3.74 1230 9410 (1952) 400 (1954) 1750 509 671 857 910 1330 2050 2310 3060 4870
2026-03-12 10:45 3.74 1230 9410 (1952) 400 (1954) 1750 509 671 857 910 1330 2050 2310 3060 4870
2026-03-12 09:45 3.75 1240 9410 (1952) 400 (1954) 1750 509 671 857 910 1330 2050 2310 3060 4870
2026-03-12 08:45 3.75 1240 9410 (1952) 400 (1954) 1750 509 671 857 910 1330 2050 2310 3060 4870
2026-03-12 07:45 3.76 1250 9410 (1952) 400 (1954) 1750 509 671 857 910 1330 2050 2310 3060 4870
2026-03-12 06:45 3.77 1250 9410 (1952) 400 (1954) 1750 509 671 857 910 1330 2050 2310 3060 4870
2026-03-12 05:45 3.78 1260 9410 (1952) 400 (1954) 1750 509 671 857 910 1330 2050 2310 3060 4870
2026-03-12 04:45 3.79 1270 9410 (1952) 400 (1954) 1750 509 671 857 910 1330 2050 2310 3060 4870
2026-03-12 03:45 3.80 1280 9410 (1952) 400 (1954) 1750 509 671 857 910 1330 2050 2310 3060 4870
2026-03-12 02:45 3.82 1290 9410 (1952) 400 (1954) 1750 509 671 857 910 1330 2050 2310 3060 4870
2026-03-12 01:45 3.83 1300 9410 (1952) 400 (1954) 1750 509 671 857 910 1330 2050 2310 3060 4870
2026-03-12 00:45 3.84 1310 9410 (1952) 400 (1954) 1750 509 671 857 910 1330 2050 2310 3060 4870
2026-03-11 23:45 3.84 1310 9410 (1952) 400 (1954) 1750 509 671 857 910 1330 2050 2310 3060 4870
2026-03-11 22:45 3.84 1310 14400 (1973) 405 (1954) 1820 512 582 831 920 1280 2010 2280 2580 4040
2026-03-11 21:45 3.85 1310 14400 (1973) 405 (1954) 1820 512 582 831 920 1280 2010 2280 2580 4040
2026-03-11 20:45 3.86 1320 14400 (1973) 405 (1954) 1820 512 582 831 920 1280 2010 2280 2580 4040
2026-03-11 19:45 3.86 1320 14400 (1973) 405 (1954) 1820 512 582 831 920 1280 2010 2280 2580 4040
2026-03-11 18:45 3.87 1330 14400 (1973) 405 (1954) 1820 512 582 831 920 1280 2010 2280 2580 4040
2026-03-11 17:45 3.85 1310 14400 (1973) 405 (1954) 1820 512 582 831 920 1280 2010 2280 2580 4040
2026-03-11 16:45 3.89 1350 14400 (1973) 405 (1954) 1820 512 582 831 920 1280 2010 2280 2580 4040
2026-03-11 15:45 3.87 1330 14400 (1973) 405 (1954) 1820 512 582 831 920 1280 2010 2280 2580 4040
2026-03-11 14:45 3.87 1330 14400 (1973) 405 (1954) 1820 512 582 831 920 1280 2010 2280 2580 4040
2026-03-11 13:45 3.86 1320 14400 (1973) 405 (1954) 1820 512 582 831 920 1280 2010 2280 2580 4040
2026-03-11 12:45 3.87 1330 14400 (1973) 405 (1954) 1820 512 582 831 920 1280 2010 2280 2580 4040
2026-03-11 11:45 3.88 1340 14400 (1973) 405 (1954) 1820 512 582 831 920 1280 2010 2280 2580 4040
2026-03-11 10:45 3.88 1340 14400 (1973) 405 (1954) 1820 512 582 831 920 1280 2010 2280 2580 4040
2026-03-11 09:45 3.89 1350 14400 (1973) 405 (1954) 1820 512 582 831 920 1280 2010 2280 2580 4040
2026-03-11 08:45 3.86 1320 14400 (1973) 405 (1954) 1820 512 582 831 920 1280 2010 2280 2580 4040
2026-03-11 07:45 3.90 1350 14400 (1973) 405 (1954) 1820 512 582 831 920 1280 2010 2280 2580 4040
2026-03-11 06:45 3.91 1360 14400 (1973) 405 (1954) 1820 512 582 831 920 1280 2010 2280 2580 4040
2026-03-11 05:45 3.92 1370 14400 (1973) 405 (1954) 1820 512 582 831 920 1280 2010 2280 2580 4040
2026-03-11 04:45 3.93 1380 14400 (1973) 405 (1954) 1820 512 582 831 920 1280 2010 2280 2580 4040
2026-03-11 03:45 3.94 1380 14400 (1973) 405 (1954) 1820 512 582 831 920 1280 2010 2280 2580 4040
2026-03-11 02:45 3.95 1390 14400 (1973) 405 (1954) 1820 512 582 831 920 1280 2010 2280 2580 4040
2026-03-11 01:45 3.95 1390 14400 (1973) 405 (1954) 1820 512 582 831 920 1280 2010 2280 2580 4040
2026-03-11 00:45 3.97 1410 14400 (1973) 405 (1954) 1820 512 582 831 920 1280 2010 2280 2580 4040
2026-03-10 23:45 3.98 1420 14400 (1973) 405 (1954) 1820 512 582 831 920 1280 2010 2280 2580 4040
2026-03-10 22:45 3.98 1420 24300 (1964) 405 (1954) 1800 511 582 817 907 1350 2010 2190 2850 3550
2026-03-10 21:45 4.00 1430 24300 (1964) 405 (1954) 1800 511 582 817 907 1350 2010 2190 2850 3550
2026-03-10 20:45 4.00 1430 24300 (1964) 405 (1954) 1800 511 582 817 907 1350 2010 2190 2850 3550
2026-03-10 19:45 4.01 1440 24300 (1964) 405 (1954) 1800 511 582 817 907 1350 2010 2190 2850 3550
2026-03-10 18:45 4.02 1450 24300 (1964) 405 (1954) 1800 511 582 817 907 1350 2010 2190 2850 3550
2026-03-10 17:45 4.03 1450 24300 (1964) 405 (1954) 1800 511 582 817 907 1350 2010 2190 2850 3550
2026-03-10 16:45 4.04 1460 24300 (1964) 405 (1954) 1800 511 582 817 907 1350 2010 2190 2850 3550
2026-03-10 15:45 4.05 1470 24300 (1964) 405 (1954) 1800 511 582 817 907 1350 2010 2190 2850 3550
2026-03-10 14:45 4.06 1480 24300 (1964) 405 (1954) 1800 511 582 817 907 1350 2010 2190 2850 3550
2026-03-10 13:45 4.08 1490 24300 (1964) 405 (1954) 1800 511 582 817 907 1350 2010 2190 2850 3550
2026-03-10 12:45 4.09 1500 24300 (1964) 405 (1954) 1800 511 582 817 907 1350 2010 2190 2850 3550
2026-03-10 11:45 4.09 1500 24300 (1964) 405 (1954) 1800 511 582 817 907 1350 2010 2190 2850 3550
2026-03-10 10:45 4.09 1500 24300 (1964) 405 (1954) 1800 511 582 817 907 1350 2010 2190 2850 3550
2026-03-10 09:45 4.11 1520 24300 (1964) 405 (1954) 1800 511 582 817 907 1350 2010 2190 2850 3550
2026-03-10 08:45 4.12 1520 24300 (1964) 405 (1954) 1800 511 582 817 907 1350 2010 2190 2850 3550
2026-03-10 07:45 4.13 1530 24300 (1964) 405 (1954) 1800 511 582 817 907 1350 2010 2190 2850 3550
2026-03-10 06:45 4.14 1540 24300 (1964) 405 (1954) 1800 511 582 817 907 1350 2010 2190 2850 3550
2026-03-10 05:45 4.15 1550 24300 (1964) 405 (1954) 1800 511 582 817 907 1350 2010 2190 2850 3550
2026-03-10 04:45 4.17 1560 24300 (1964) 405 (1954) 1800 511 582 817 907 1350 2010 2190 2850 3550
2026-03-10 03:45 4.18 1570 24300 (1964) 405 (1954) 1800 511 582 817 907 1350 2010 2190 2850 3550
2026-03-10 02:45 4.19 1580 24300 (1964) 405 (1954) 1800 511 582 817 907 1350 2010 2190 2850 3550
2026-03-10 01:45 4.20 1590 24300 (1964) 405 (1954) 1800 511 582 817 907 1350 2010 2190 2850 3550
2026-03-10 00:45 4.21 1590 24300 (1964) 405 (1954) 1800 511 582 817 907 1350 2010 2190 2850 3550
2026-03-09 23:45 4.22 1600 24300 (1964) 405 (1954) 1800 511 582 817 907 1350 2010 2190 2850 3550
2026-03-09 22:45 4.24 1620 17800 (1964) 410 (1954) 1680 512 600 819 894 1340 2000 2190 2570 3370
2026-03-09 21:45 4.25 1620 17800 (1964) 410 (1954) 1680 512 600 819 894 1340 2000 2190 2570 3370
2026-03-09 20:45 4.26 1630 17800 (1964) 410 (1954) 1680 512 600 819 894 1340 2000 2190 2570 3370
2026-03-09 19:45 4.28 1650 17800 (1964) 410 (1954) 1680 512 600 819 894 1340 2000 2190 2570 3370
2026-03-09 18:45 4.29 1660 17800 (1964) 410 (1954) 1680 512 600 819 894 1340 2000 2190 2570 3370
2026-03-09 17:45 4.31 1670 17800 (1964) 410 (1954) 1680 512 600 819 894 1340 2000 2190 2570 3370
2026-03-09 16:45 4.32 1680 17800 (1964) 410 (1954) 1680 512 600 819 894 1340 2000 2190 2570 3370
2026-03-09 15:45 4.34 1690 17800 (1964) 410 (1954) 1680 512 600 819 894 1340 2000 2190 2570 3370
2026-03-09 14:45 4.35 1700 17800 (1964) 410 (1954) 1680 512 600 819 894 1340 2000 2190 2570 3370
2026-03-09 13:45 4.36 1710 17800 (1964) 410 (1954) 1680 512 600 819 894 1340 2000 2190 2570 3370
2026-03-09 12:45 4.37 1720 17800 (1964) 410 (1954) 1680 512 600 819 894 1340 2000 2190 2570 3370
2026-03-09 11:45 4.39 1730 17800 (1964) 410 (1954) 1680 512 600 819 894 1340 2000 2190 2570 3370
2026-03-09 10:45 4.40 1740 17800 (1964) 410 (1954) 1680 512 600 819 894 1340 2000 2190 2570 3370
2026-03-09 09:45 4.42 1760 17800 (1964) 410 (1954) 1680 512 600 819 894 1340 2000 2190 2570 3370
2026-03-09 08:45 4.43 1760 17800 (1964) 410 (1954) 1680 512 600 819 894 1340 2000 2190 2570 3370
2026-03-09 07:45 4.46 1790 17800 (1964) 410 (1954) 1680 512 600 819 894 1340 2000 2190 2570 3370
2026-03-09 06:45 4.48 1800 17800 (1964) 410 (1954) 1680 512 600 819 894 1340 2000 2190 2570 3370
2026-03-09 05:45 4.52 1830 17800 (1964) 410 (1954) 1680 512 600 819 894 1340 2000 2190 2570 3370
2026-03-09 04:45 4.55 1860 17800 (1964) 410 (1954) 1680 512 600 819 894 1340 2000 2190 2570 3370
2026-03-09 03:45 4.59 1890 17800 (1964) 410 (1954) 1680 512 600 819 894 1340 2000 2190 2570 3370
2026-03-09 02:45 4.63 1920 17800 (1964) 410 (1954) 1680 512 600 819 894 1340 2000 2190 2570 3370
2026-03-09 01:45 4.68 1950 17800 (1964) 410 (1954) 1680 512 600 819 894 1340 2000 2190 2570 3370
2026-03-09 00:45 4.73 1990 17800 (1964) 410 (1954) 1680 512 600 819 894 1340 2000 2190 2570 3370
2026-03-08 23:45 4.79 2040 17800 (1964) 410 (1954) 1680 512 600 819 894 1340 2000 2190 2570 3370
2026-03-08 22:45 4.85 2080 5260 (1945) 415 (1954) 1520 515 588 808 879 1250 1820 2100 2750 3660
2026-03-08 21:45 4.91 2130 5260 (1945) 415 (1954) 1520 515 588 808 879 1250 1820 2100 2750 3660
2026-03-08 20:45 4.98 2180 5260 (1945) 415 (1954) 1520 515 588 808 879 1250 1820 2100 2750 3660
2026-03-08 19:45 5.05 2230 5260 (1945) 415 (1954) 1520 515 588 808 879 1250 1820 2100 2750 3660
2026-03-08 18:45 5.12 2280 5260 (1945) 415 (1954) 1520 515 588 808 879 1250 1820 2100 2750 3660
2026-03-08 17:45 5.18 2330 5260 (1945) 415 (1954) 1520 515 588 808 879 1250 1820 2100 2750 3660
2026-03-08 16:45 5.20 2340 5260 (1945) 415 (1954) 1520 515 588 808 879 1250 1820 2100 2750 3660
2026-03-08 15:45 5.21 2350 5260 (1945) 415 (1954) 1520 515 588 808 879 1250 1820 2100 2750 3660
2026-03-08 14:45 5.17 2320 5260 (1945) 415 (1954) 1520 515 588 808 879 1250 1820 2100 2750 3660
2026-03-08 13:45 5.07 2250 5260 (1945) 415 (1954) 1520 515 588 808 879 1250 1820 2100 2750 3660
2026-03-08 12:45 4.94 2150 5260 (1945) 415 (1954) 1520 515 588 808 879 1250 1820 2100 2750 3660
2026-03-08 11:45 4.79 2040 5260 (1945) 415 (1954) 1520 515 588 808 879 1250 1820 2100 2750 3660
2026-03-08 10:45 4.65 1930 5260 (1945) 415 (1954) 1520 515 588 808 879 1250 1820 2100 2750 3660
2026-03-08 09:45 4.53 1840 5260 (1945) 415 (1954) 1520 515 588 808 879 1250 1820 2100 2750 3660
2026-03-08 08:45 4.44 1770 5260 (1945) 415 (1954) 1520 515 588 808 879 1250 1820 2100 2750 3660
2026-03-08 07:45 4.38 1730 5260 (1945) 415 (1954) 1520 515 588 808 879 1250 1820 2100 2750 3660
2026-03-08 06:45 4.35 1700 5260 (1945) 415 (1954) 1520 515 588 808 879 1250 1820 2100 2750 3660
2026-03-08 05:45 4.35 1700 5260 (1945) 415 (1954) 1520 515 588 808 879 1250 1820 2100 2750 3660
2026-03-08 04:45 4.36 1710 5260 (1945) 415 (1954) 1520 515 588 808 879 1250 1820 2100 2750 3660
2026-03-08 03:45 4.39 1730 5260 (1945) 415 (1954) 1520 515 588 808 879 1250 1820 2100 2750 3660
2026-03-08 01:45 4.44 1770 5260 (1945) 415 (1954) 1520 515 588 808 879 1250 1820 2100 2750 3660
2026-03-08 00:45 4.52 1830 5260 (1945) 415 (1954) 1520 515 588 808 879 1250 1820 2100 2750 3660
2026-03-07 23:45 4.62 1910 5260 (1945) 415 (1954) 1520 515 588 808 879 1250 1820 2100 2750 3660
2026-03-07 22:45 4.74 2000 8100 (1945) 420 (1954) 1590 484 600 773 876 1260 1780 1890 2990 4290
2026-03-07 21:45 4.89 2110 8100 (1945) 420 (1954) 1590 484 600 773 876 1260 1780 1890 2990 4290
2026-03-07 20:45 5.06 2240 8100 (1945) 420 (1954) 1590 484 600 773 876 1260 1780 1890 2990 4290
2026-03-07 19:45 5.26 2390 8100 (1945) 420 (1954) 1590 484 600 773 876 1260 1780 1890 2990 4290
2026-03-07 18:45 5.49 2560 8100 (1945) 420 (1954) 1590 484 600 773 876 1260 1780 1890 2990 4290
2026-03-07 17:45 5.70 2720 8100 (1945) 420 (1954) 1590 484 600 773 876 1260 1780 1890 2990 4290
2026-03-07 16:45 5.82 2810 8100 (1945) 420 (1954) 1590 484 600 773 876 1260 1780 1890 2990 4290
2026-03-07 15:45 5.75 2760 8100 (1945) 420 (1954) 1590 484 600 773 876 1260 1780 1890 2990 4290
2026-03-07 14:45 5.55 2610 8100 (1945) 420 (1954) 1590 484 600 773 876 1260 1780 1890 2990 4290
2026-03-07 13:45 5.43 2520 8100 (1945) 420 (1954) 1590 484 600 773 876 1260 1780 1890 2990 4290
2026-03-07 12:45 5.30 2420 8100 (1945) 420 (1954) 1590 484 600 773 876 1260 1780 1890 2990 4290
2026-03-07 11:45 4.83 2070 8100 (1945) 420 (1954) 1590 484 600 773 876 1260 1780 1890 2990 4290
2026-03-07 10:45 3.98 1420 8100 (1945) 420 (1954) 1590 484 600 773 876 1260 1780 1890 2990 4290
2026-03-07 09:45 3.47 1020 8100 (1945) 420 (1954) 1590 484 600 773 876 1260 1780 1890 2990 4290
2026-03-07 08:45 3.21 826 8100 (1945) 420 (1954) 1590 484 600 773 876 1260 1780 1890 2990 4290
2026-03-07 07:45 3.07 720 8100 (1945) 420 (1954) 1590 484 600 773 876 1260 1780 1890 2990 4290
2026-03-07 06:45 3.04 697 8100 (1945) 420 (1954) 1590 484 600 773 876 1260 1780 1890 2990 4290
2026-03-07 05:45 3.04 697 8100 (1945) 420 (1954) 1590 484 600 773 876 1260 1780 1890 2990 4290
2026-03-07 04:45 3.04 697 8100 (1945) 420 (1954) 1590 484 600 773 876 1260 1780 1890 2990 4290
2026-03-07 03:45 3.04 697 8100 (1945) 420 (1954) 1590 484 600 773 876 1260 1780 1890 2990 4290
2026-03-07 02:45 3.03 690 8100 (1945) 420 (1954) 1590 484 600 773 876 1260 1780 1890 2990 4290
2026-03-07 01:45 3.03 690 8100 (1945) 420 (1954) 1590 484 600 773 876 1260 1780 1890 2990 4290
2026-03-07 00:45 3.02 682 8100 (1945) 420 (1954) 1590 484 600 773 876 1260 1780 1890 2990 4290
2026-03-06 23:45 3.02 682 8100 (1945) 420 (1954) 1590 484 600 773 876 1260 1780 1890 2990 4290
2026-03-06 22:45 3.01 675 7940 (1939) 430 (1954) 1510 497 605 761 829 1210 1810 1890 2510 3710
2026-03-06 21:45 3.01 675 7940 (1939) 430 (1954) 1510 497 605 761 829 1210 1810 1890 2510 3710
2026-03-06 20:45 3.00 667 7940 (1939) 430 (1954) 1510 497 605 761 829 1210 1810 1890 2510 3710
2026-03-06 19:45 3.00 667 7940 (1939) 430 (1954) 1510 497 605 761 829 1210 1810 1890 2510 3710
2026-03-06 18:45 2.99 660 7940 (1939) 430 (1954) 1510 497 605 761 829 1210 1810 1890 2510 3710
2026-03-06 17:45 2.98 652 7940 (1939) 430 (1954) 1510 497 605 761 829 1210 1810 1890 2510 3710
2026-03-06 16:45 2.98 652 7940 (1939) 430 (1954) 1510 497 605 761 829 1210 1810 1890 2510 3710
2026-03-06 15:45 2.95 629 7940 (1939) 430 (1954) 1510 497 605 761 829 1210 1810 1890 2510 3710
2026-03-06 14:45 2.93 614 7940 (1939) 430 (1954) 1510 497 605 761 829 1210 1810 1890 2510 3710
2026-03-06 13:45 2.92 607 7940 (1939) 430 (1954) 1510 497 605 761 829 1210 1810 1890 2510 3710
2026-03-06 12:45 2.92 607 7940 (1939) 430 (1954) 1510 497 605 761 829 1210 1810 1890 2510 3710
2026-03-06 11:45 2.90 592 7940 (1939) 430 (1954) 1510 497 605 761 829 1210 1810 1890 2510 3710
2026-03-06 10:45 2.90 592 7940 (1939) 430 (1954) 1510 497 605 761 829 1210 1810 1890 2510 3710
2026-03-06 09:45 2.90 592 7940 (1939) 430 (1954) 1510 497 605 761 829 1210 1810 1890 2510 3710
2026-03-06 08:45 2.90 592 7940 (1939) 430 (1954) 1510 497 605 761 829 1210 1810 1890 2510 3710
2026-03-06 07:45 2.89 585 7940 (1939) 430 (1954) 1510 497 605 761 829 1210 1810 1890 2510 3710
2026-03-06 06:45 2.89 585 7940 (1939) 430 (1954) 1510 497 605 761 829 1210 1810 1890 2510 3710
2026-03-06 05:45 2.89 585 7940 (1939) 430 (1954) 1510 497 605 761 829 1210 1810 1890 2510 3710
2026-03-06 04:45 2.89 585 7940 (1939) 430 (1954) 1510 497 605 761 829 1210 1810 1890 2510 3710
2026-03-06 03:45 2.89 585 7940 (1939) 430 (1954) 1510 497 605 761 829 1210 1810 1890 2510 3710
2026-03-06 02:45 2.90 592 7940 (1939) 430 (1954) 1510 497 605 761 829 1210 1810 1890 2510 3710
2026-03-06 01:45 2.90 592 7940 (1939) 430 (1954) 1510 497 605 761 829 1210 1810 1890 2510 3710
2026-03-06 00:45 2.90 592 7940 (1939) 430 (1954) 1510 497 605 761 829 1210 1810 1890 2510 3710
2026-03-05 23:45 2.90 592 7940 (1939) 430 (1954) 1510 497 605 761 829 1210 1810 1890 2510 3710
2026-03-05 22:45 2.90 592 13500 (1939) 435 (1954) 1600 522 629 752 782 1230 1820 1960 2980 4130
2026-03-05 21:45 2.90 592 13500 (1939) 435 (1954) 1600 522 629 752 782 1230 1820 1960 2980 4130
2026-03-05 20:45 2.90 592 13500 (1939) 435 (1954) 1600 522 629 752 782 1230 1820 1960 2980 4130
2026-03-05 19:45 2.91 599 13500 (1939) 435 (1954) 1600 522 629 752 782 1230 1820 1960 2980 4130
2026-03-05 18:45 2.91 599 13500 (1939) 435 (1954) 1600 522 629 752 782 1230 1820 1960 2980 4130
2026-03-05 17:45 2.91 599 13500 (1939) 435 (1954) 1600 522 629 752 782 1230 1820 1960 2980 4130
2026-03-05 16:45 2.92 607 13500 (1939) 435 (1954) 1600 522 629 752 782 1230 1820 1960 2980 4130
2026-03-05 15:45 2.92 607 13500 (1939) 435 (1954) 1600 522 629 752 782 1230 1820 1960 2980 4130
2026-03-05 14:45 2.93 614 13500 (1939) 435 (1954) 1600 522 629 752 782 1230 1820 1960 2980 4130
2026-03-05 13:45 2.93 614 13500 (1939) 435 (1954) 1600 522 629 752 782 1230 1820 1960 2980 4130
2026-03-05 12:45 2.94 622 13500 (1939) 435 (1954) 1600 522 629 752 782 1230 1820 1960 2980 4130
2026-03-05 11:45 2.95 629 13500 (1939) 435 (1954) 1600 522 629 752 782 1230 1820 1960 2980 4130
2026-03-05 10:45 2.95 629 13500 (1939) 435 (1954) 1600 522 629 752 782 1230 1820 1960 2980 4130
2026-03-05 09:45 2.96 637 13500 (1939) 435 (1954) 1600 522 629 752 782 1230 1820 1960 2980 4130
2026-03-05 08:45 2.97 644 13500 (1939) 435 (1954) 1600 522 629 752 782 1230 1820 1960 2980 4130
2026-03-05 07:45 2.98 652 13500 (1939) 435 (1954) 1600 522 629 752 782 1230 1820 1960 2980 4130
2026-03-05 06:45 2.99 660 13500 (1939) 435 (1954) 1600 522 629 752 782 1230 1820 1960 2980 4130
2026-03-05 05:45 3.02 682 13500 (1939) 435 (1954) 1600 522 629 752 782 1230 1820 1960 2980 4130
2026-03-05 04:45 3.05 705 13500 (1939) 435 (1954) 1600 522 629 752 782 1230 1820 1960 2980 4130
2026-03-05 03:45 3.09 735 13500 (1939) 435 (1954) 1600 522 629 752 782 1230 1820 1960 2980 4130
2026-03-05 02:45 3.14 773 13500 (1939) 435 (1954) 1600 522 629 752 782 1230 1820 1960 2980 4130
2026-03-05 01:45 3.20 818 13500 (1939) 435 (1954) 1600 522 629 752 782 1230 1820 1960 2980 4130
2026-03-05 00:45 3.27 871 13500 (1939) 435 (1954) 1600 522 629 752 782 1230 1820 1960 2980 4130
2026-03-04 23:45 3.35 932 13500 (1939) 435 (1954) 1600 522 629 752 782 1230 1820 1960 2980 4130
2026-03-04 22:45 3.40 970 10100 (1979) 440 (1954) 1520 484 637 777 859 1180 1770 1890 2230 3240
2026-03-04 21:45 3.34 924 10100 (1979) 440 (1954) 1520 484 637 777 859 1180 1770 1890 2230 3240
2026-03-04 20:45 3.09 735 10100 (1979) 440 (1954) 1520 484 637 777 859 1180 1770 1890 2230 3240
2026-03-04 19:45 2.92 607 10100 (1979) 440 (1954) 1520 484 637 777 859 1180 1770 1890 2230 3240
2026-03-04 18:45 2.87 572 10100 (1979) 440 (1954) 1520 484 637 777 859 1180 1770 1890 2230 3240
2026-03-04 17:45 2.83 551 10100 (1979) 440 (1954) 1520 484 637 777 859 1180 1770 1890 2230 3240
2026-03-04 16:45 2.81 540 10100 (1979) 440 (1954) 1520 484 637 777 859 1180 1770 1890 2230 3240
2026-03-04 15:45 2.82 545 10100 (1979) 440 (1954) 1520 484 637 777 859 1180 1770 1890 2230 3240
2026-03-04 14:45 2.80 535 10100 (1979) 440 (1954) 1520 484 637 777 859 1180 1770 1890 2230 3240
2026-03-04 13:45 2.80 535 10100 (1979) 440 (1954) 1520 484 637 777 859 1180 1770 1890 2230 3240
2026-03-04 12:45 2.82 545 10100 (1979) 440 (1954) 1520 484 637 777 859 1180 1770 1890 2230 3240
2026-03-04 11:45 2.81 540 10100 (1979) 440 (1954) 1520 484 637 777 859 1180 1770 1890 2230 3240
2026-03-04 10:45 2.80 535 10100 (1979) 440 (1954) 1520 484 637 777 859 1180 1770 1890 2230 3240
2026-03-04 09:45 2.79 529 10100 (1979) 440 (1954) 1520 484 637 777 859 1180 1770 1890 2230 3240
2026-03-04 08:45 2.80 535 10100 (1979) 440 (1954) 1520 484 637 777 859 1180 1770 1890 2230 3240
2026-03-04 07:45 2.81 540 10100 (1979) 440 (1954) 1520 484 637 777 859 1180 1770 1890 2230 3240
2026-03-04 06:45 2.81 540 10100 (1979) 440 (1954) 1520 484 637 777 859 1180 1770 1890 2230 3240
2026-03-04 05:45 2.81 540 10100 (1979) 440 (1954) 1520 484 637 777 859 1180 1770 1890 2230 3240
2026-03-04 04:45 2.81 540 10100 (1979) 440 (1954) 1520 484 637 777 859 1180 1770 1890 2230 3240
2026-03-04 03:45 2.81 540 10100 (1979) 440 (1954) 1520 484 637 777 859 1180 1770 1890 2230 3240
2026-03-04 02:45 2.81 540 10100 (1979) 440 (1954) 1520 484 637 777 859 1180 1770 1890 2230 3240
2026-03-04 01:45 2.81 540 10100 (1979) 440 (1954) 1520 484 637 777 859 1180 1770 1890 2230 3240
2026-03-04 00:45 2.81 540 10100 (1979) 440 (1954) 1520 484 637 777 859 1180 1770 1890 2230 3240
2026-03-03 23:45 2.81 540 10100 (1979) 440 (1954) 1520 484 637 777 859 1180 1770 1890 2230 3240
2026-03-03 22:45 2.81 540 9400 (2023) 402 (1981) 1490 463 637 738 814 1210 1700 1890 2120 3250
2026-03-03 21:45 2.81 540 9400 (2023) 402 (1981) 1490 463 637 738 814 1210 1700 1890 2120 3250
2026-03-03 20:45 2.80 535 9400 (2023) 402 (1981) 1490 463 637 738 814 1210 1700 1890 2120 3250
2026-03-03 19:45 2.80 535 9400 (2023) 402 (1981) 1490 463 637 738 814 1210 1700 1890 2120 3250
2026-03-03 18:45 2.80 535 9400 (2023) 402 (1981) 1490 463 637 738 814 1210 1700 1890 2120 3250
2026-03-03 17:45 2.80 535 9400 (2023) 402 (1981) 1490 463 637 738 814 1210 1700 1890 2120 3250
2026-03-03 16:45 2.78 524 9400 (2023) 402 (1981) 1490 463 637 738 814 1210 1700 1890 2120 3250
2026-03-03 15:45 2.77 519 9400 (2023) 402 (1981) 1490 463 637 738 814 1210 1700 1890 2120 3250
2026-03-03 14:45 2.77 519 9400 (2023) 402 (1981) 1490 463 637 738 814 1210 1700 1890 2120 3250
2026-03-03 13:45 2.77 519 9400 (2023) 402 (1981) 1490 463 637 738 814 1210 1700 1890 2120 3250
2026-03-03 12:45 2.78 524 9400 (2023) 402 (1981) 1490 463 637 738 814 1210 1700 1890 2120 3250
2026-03-03 11:45 2.78 524 9400 (2023) 402 (1981) 1490 463 637 738 814 1210 1700 1890 2120 3250
2026-03-03 10:45 2.77 519 9400 (2023) 402 (1981) 1490 463 637 738 814 1210 1700 1890 2120 3250
2026-03-03 09:45 2.77 519 9400 (2023) 402 (1981) 1490 463 637 738 814 1210 1700 1890 2120 3250
2026-03-03 08:45 2.78 524 9400 (2023) 402 (1981) 1490 463 637 738 814 1210 1700 1890 2120 3250
2026-03-03 07:45 2.80 535 9400 (2023) 402 (1981) 1490 463 637 738 814 1210 1700 1890 2120 3250
2026-03-03 06:45 2.81 540 9400 (2023) 402 (1981) 1490 463 637 738 814 1210 1700 1890 2120 3250
2026-03-03 05:45 2.81 540 9400 (2023) 402 (1981) 1490 463 637 738 814 1210 1700 1890 2120 3250
2026-03-03 04:45 2.81 540 9400 (2023) 402 (1981) 1490 463 637 738 814 1210 1700 1890 2120 3250
2026-03-03 03:45 2.82 545 9400 (2023) 402 (1981) 1490 463 637 738 814 1210 1700 1890 2120 3250
2026-03-03 02:45 2.82 545 9400 (2023) 402 (1981) 1490 463 637 738 814 1210 1700 1890 2120 3250
2026-03-03 01:45 2.82 545 9400 (2023) 402 (1981) 1490 463 637 738 814 1210 1700 1890 2120 3250
2026-03-03 00:45 2.82 545 9400 (2023) 402 (1981) 1490 463 637 738 814 1210 1700 1890 2120 3250
2026-03-02 23:45 2.82 545 9400 (2023) 402 (1981) 1490 463 637 738 814 1210 1700 1890 2120 3250
2026-03-02 22:45 2.83 551 3760 (1945) 404 (1981) 1310 468 628 761 800 1170 1740 1960 2200 2720
2026-03-02 21:45 2.83 551 3760 (1945) 404 (1981) 1310 468 628 761 800 1170 1740 1960 2200 2720
2026-03-02 20:45 2.83 551 3760 (1945) 404 (1981) 1310 468 628 761 800 1170 1740 1960 2200 2720
2026-03-02 19:45 2.83 551 3760 (1945) 404 (1981) 1310 468 628 761 800 1170 1740 1960 2200 2720
2026-03-02 18:45 2.83 551 3760 (1945) 404 (1981) 1310 468 628 761 800 1170 1740 1960 2200 2720
2026-03-02 17:45 2.83 551 3760 (1945) 404 (1981) 1310 468 628 761 800 1170 1740 1960 2200 2720
2026-03-02 16:45 2.83 551 3760 (1945) 404 (1981) 1310 468 628 761 800 1170 1740 1960 2200 2720
2026-03-02 15:45 2.83 551 3760 (1945) 404 (1981) 1310 468 628 761 800 1170 1740 1960 2200 2720
2026-03-02 14:45 2.84 556 3760 (1945) 404 (1981) 1310 468 628 761 800 1170 1740 1960 2200 2720
2026-03-02 13:45 2.83 551 3760 (1945) 404 (1981) 1310 468 628 761 800 1170 1740 1960 2200 2720
2026-03-02 12:45 2.83 551 3760 (1945) 404 (1981) 1310 468 628 761 800 1170 1740 1960 2200 2720
2026-03-02 11:45 2.83 551 3760 (1945) 404 (1981) 1310 468 628 761 800 1170 1740 1960 2200 2720
2026-03-02 10:45 2.84 556 3760 (1945) 404 (1981) 1310 468 628 761 800 1170 1740 1960 2200 2720
2026-03-02 09:45 2.84 556 3760 (1945) 404 (1981) 1310 468 628 761 800 1170 1740 1960 2200 2720
2026-03-02 08:45 2.84 556 3760 (1945) 404 (1981) 1310 468 628 761 800 1170 1740 1960 2200 2720
2026-03-02 07:45 2.84 556 3760 (1945) 404 (1981) 1310 468 628 761 800 1170 1740 1960 2200 2720
2026-03-02 06:45 2.84 556 3760 (1945) 404 (1981) 1310 468 628 761 800 1170 1740 1960 2200 2720
2026-03-02 05:45 2.81 540 3760 (1945) 404 (1981) 1310 468 628 761 800 1170 1740 1960 2200 2720
2026-03-02 04:45 2.79 529 3760 (1945) 404 (1981) 1310 468 628 761 800 1170 1740 1960 2200 2720
2026-03-02 03:45 2.82 545 3760 (1945) 404 (1981) 1310 468 628 761 800 1170 1740 1960 2200 2720
2026-03-02 02:45 2.80 535 3760 (1945) 404 (1981) 1310 468 628 761 800 1170 1740 1960 2200 2720
2026-03-02 00:45 2.78 524 3760 (1945) 404 (1981) 1310 468 628 761 800 1170 1740 1960 2200 2720
2026-03-01 23:45 2.79 529 3760 (1945) 404 (1981) 1310 468 628 761 800 1170 1740 1960 2200 2720
2026-03-01 22:45 2.75 508 4190 (1945) 413 (1981) 1340 468 623 785 821 1120 1770 2080 2340 2730
2026-03-01 21:45 2.76 513 4190 (1945) 413 (1981) 1340 468 623 785 821 1120 1770 2080 2340 2730
2026-03-01 20:45 2.75 508 4190 (1945) 413 (1981) 1340 468 623 785 821 1120 1770 2080 2340 2730
2026-03-01 19:45 2.72 491 4190 (1945) 413 (1981) 1340 468 623 785 821 1120 1770 2080 2340 2730
2026-03-01 18:45 2.75 508 4190 (1945) 413 (1981) 1340 468 623 785 821 1120 1770 2080 2340 2730
2026-03-01 17:45 2.75 508 4190 (1945) 413 (1981) 1340 468 623 785 821 1120 1770 2080 2340 2730
2026-03-01 16:45 2.75 508 4190 (1945) 413 (1981) 1340 468 623 785 821 1120 1770 2080 2340 2730
2026-03-01 15:45 2.74 502 4190 (1945) 413 (1981) 1340 468 623 785 821 1120 1770 2080 2340 2730
2026-03-01 14:45 2.75 508 4190 (1945) 413 (1981) 1340 468 623 785 821 1120 1770 2080 2340 2730
2026-03-01 13:45 2.76 513 4190 (1945) 413 (1981) 1340 468 623 785 821 1120 1770 2080 2340 2730
2026-03-01 12:45 2.75 508 4190 (1945) 413 (1981) 1340 468 623 785 821 1120 1770 2080 2340 2730
2026-03-01 11:45 2.75 508 4190 (1945) 413 (1981) 1340 468 623 785 821 1120 1770 2080 2340 2730
2026-03-01 10:45 2.76 513 4190 (1945) 413 (1981) 1340 468 623 785 821 1120 1770 2080 2340 2730
2026-03-01 09:45 2.75 508 4190 (1945) 413 (1981) 1340 468 623 785 821 1120 1770 2080 2340 2730
2026-03-01 08:45 2.76 513 4190 (1945) 413 (1981) 1340 468 623 785 821 1120 1770 2080 2340 2730
2026-03-01 07:45 2.76 513 4190 (1945) 413 (1981) 1340 468 623 785 821 1120 1770 2080 2340 2730
2026-03-01 06:45 2.76 513 4190 (1945) 413 (1981) 1340 468 623 785 821 1120 1770 2080 2340 2730
2026-03-01 05:45 2.76 513 4190 (1945) 413 (1981) 1340 468 623 785 821 1120 1770 2080 2340 2730
2026-03-01 04:45 2.76 513 4190 (1945) 413 (1981) 1340 468 623 785 821 1120 1770 2080 2340 2730
2026-03-01 03:45 2.76 513 4190 (1945) 413 (1981) 1340 468 623 785 821 1120 1770 2080 2340 2730
2026-03-01 02:45 2.76 513 4190 (1945) 413 (1981) 1340 468 623 785 821 1120 1770 2080 2340 2730
2026-03-01 01:45 2.76 513 4190 (1945) 413 (1981) 1340 468 623 785 821 1120 1770 2080 2340 2730
2026-03-01 00:45 2.76 513 4190 (1945) 413 (1981) 1340 468 623 785 821 1120 1770 2080 2340 2730
2026-02-28 23:45 2.76 513 4190 (1945) 413 (1981) 1340 468 623 785 821 1120 1770 2080 2340 2730
2026-02-28 22:45 2.76 513 8710 (1945) 348 (1963) 1450 475 594 761 828 1210 1810 2080 2430 3060
2026-02-28 21:45 2.76 513 8710 (1945) 348 (1963) 1450 475 594 761 828 1210 1810 2080 2430 3060
2026-02-28 20:45 2.76 513 8710 (1945) 348 (1963) 1450 475 594 761 828 1210 1810 2080 2430 3060
2026-02-28 19:45 2.76 513 8710 (1945) 348 (1963) 1450 475 594 761 828 1210 1810 2080 2430 3060
2026-02-28 18:45 2.76 513 8710 (1945) 348 (1963) 1450 475 594 761 828 1210 1810 2080 2430 3060
2026-02-28 17:45 2.76 513 8710 (1945) 348 (1963) 1450 475 594 761 828 1210 1810 2080 2430 3060
2026-02-28 16:45 2.74 502 8710 (1945) 348 (1963) 1450 475 594 761 828 1210 1810 2080 2430 3060
2026-02-28 15:45 2.75 508 8710 (1945) 348 (1963) 1450 475 594 761 828 1210 1810 2080 2430 3060
2026-02-28 14:45 2.74 502 8710 (1945) 348 (1963) 1450 475 594 761 828 1210 1810 2080 2430 3060
2026-02-28 13:45 2.77 519 8710 (1945) 348 (1963) 1450 475 594 761 828 1210 1810 2080 2430 3060
2026-02-28 12:45 2.73 497 8710 (1945) 348 (1963) 1450 475 594 761 828 1210 1810 2080 2430 3060
2026-02-28 11:45 2.74 502 8710 (1945) 348 (1963) 1450 475 594 761 828 1210 1810 2080 2430 3060
2026-02-28 10:45 2.75 508 8710 (1945) 348 (1963) 1450 475 594 761 828 1210 1810 2080 2430 3060
2026-02-28 09:45 2.77 519 8710 (1945) 348 (1963) 1450 475 594 761 828 1210 1810 2080 2430 3060
2026-02-28 08:45 2.77 519 8710 (1945) 348 (1963) 1450 475 594 761 828 1210 1810 2080 2430 3060
2026-02-28 07:45 2.77 519 8710 (1945) 348 (1963) 1450 475 594 761 828 1210 1810 2080 2430 3060
2026-02-28 06:45 2.77 519 8710 (1945) 348 (1963) 1450 475 594 761 828 1210 1810 2080 2430 3060
2026-02-28 05:45 2.77 519 8710 (1945) 348 (1963) 1450 475 594 761 828 1210 1810 2080 2430 3060
2026-02-28 04:45 2.77 519 8710 (1945) 348 (1963) 1450 475 594 761 828 1210 1810 2080 2430 3060
2026-02-28 03:45 2.77 519 8710 (1945) 348 (1963) 1450 475 594 761 828 1210 1810 2080 2430 3060
2026-02-28 02:45 2.77 519 8710 (1945) 348 (1963) 1450 475 594 761 828 1210 1810 2080 2430 3060
2026-02-28 01:45 2.77 519 8710 (1945) 348 (1963) 1450 475 594 761 828 1210 1810 2080 2430 3060
2026-02-28 00:45 2.77 519 8710 (1945) 348 (1963) 1450 475 594 761 828 1210 1810 2080 2430 3060
2026-02-27 23:45 2.77 519 8710 (1945) 348 (1963) 1450 475 594 761 828 1210 1810 2080 2430 3060
2026-02-27 22:45 2.77 519 19800 (1945) 344 (1963) 1590 476 542 757 807 1170 1810 2090 2500 2930
2026-02-27 21:45 2.77 519 19800 (1945) 344 (1963) 1590 476 542 757 807 1170 1810 2090 2500 2930
2026-02-27 20:45 2.76 513 19800 (1945) 344 (1963) 1590 476 542 757 807 1170 1810 2090 2500 2930
2026-02-27 19:45 2.77 519 19800 (1945) 344 (1963) 1590 476 542 757 807 1170 1810 2090 2500 2930
2026-02-27 18:45 2.77 519 19800 (1945) 344 (1963) 1590 476 542 757 807 1170 1810 2090 2500 2930
2026-02-27 17:45 2.77 519 19800 (1945) 344 (1963) 1590 476 542 757 807 1170 1810 2090 2500 2930
2026-02-27 16:45 2.77 519 19800 (1945) 344 (1963) 1590 476 542 757 807 1170 1810 2090 2500 2930
2026-02-27 15:45 2.78 524 19800 (1945) 344 (1963) 1590 476 542 757 807 1170 1810 2090 2500 2930
2026-02-27 14:45 2.78 524 19800 (1945) 344 (1963) 1590 476 542 757 807 1170 1810 2090 2500 2930
2026-02-27 13:45 2.78 524 19800 (1945) 344 (1963) 1590 476 542 757 807 1170 1810 2090 2500 2930
2026-02-27 12:45 2.79 529 19800 (1945) 344 (1963) 1590 476 542 757 807 1170 1810 2090 2500 2930
2026-02-27 11:45 2.76 513 19800 (1945) 344 (1963) 1590 476 542 757 807 1170 1810 2090 2500 2930
2026-02-27 10:45 2.77 519 19800 (1945) 344 (1963) 1590 476 542 757 807 1170 1810 2090 2500 2930
2026-02-27 09:45 2.78 524 19800 (1945) 344 (1963) 1590 476 542 757 807 1170 1810 2090 2500 2930
2026-02-27 08:45 2.78 524 19800 (1945) 344 (1963) 1590 476 542 757 807 1170 1810 2090 2500 2930
2026-02-27 07:45 2.78 524 19800 (1945) 344 (1963) 1590 476 542 757 807 1170 1810 2090 2500 2930
2026-02-27 06:45 2.78 524 19800 (1945) 344 (1963) 1590 476 542 757 807 1170 1810 2090 2500 2930
2026-02-27 05:45 2.78 524 19800 (1945) 344 (1963) 1590 476 542 757 807 1170 1810 2090 2500 2930
2026-02-27 04:45 2.78 524 19800 (1945) 344 (1963) 1590 476 542 757 807 1170 1810 2090 2500 2930
2026-02-27 03:45 2.79 529 19800 (1945) 344 (1963) 1590 476 542 757 807 1170 1810 2090 2500 2930
2026-02-27 02:45 2.79 529 19800 (1945) 344 (1963) 1590 476 542 757 807 1170 1810 2090 2500 2930
2026-02-27 01:45 2.79 529 19800 (1945) 344 (1963) 1590 476 542 757 807 1170 1810 2090 2500 2930
2026-02-27 00:45 2.79 529 19800 (1945) 344 (1963) 1590 476 542 757 807 1170 1810 2090 2500 2930
2026-02-26 23:45 2.79 529 19800 (1945) 344 (1963) 1590 476 542 757 807 1170 1810 2090 2500 2930
2026-02-26 22:45 2.79 529 6890 (1962) 348 (1963) 1510 460 530 755 819 1210 1840 2230 2640 4040
2026-02-26 21:45 2.79 529 6890 (1962) 348 (1963) 1510 460 530 755 819 1210 1840 2230 2640 4040
2026-02-26 20:45 2.79 529 6890 (1962) 348 (1963) 1510 460 530 755 819 1210 1840 2230 2640 4040
2026-02-26 19:45 2.79 529 6890 (1962) 348 (1963) 1510 460 530 755 819 1210 1840 2230 2640 4040
2026-02-26 18:45 2.79 529 6890 (1962) 348 (1963) 1510 460 530 755 819 1210 1840 2230 2640 4040
2026-02-26 17:45 2.79 529 6890 (1962) 348 (1963) 1510 460 530 755 819 1210 1840 2230 2640 4040
2026-02-26 16:45 2.77 519 6890 (1962) 348 (1963) 1510 460 530 755 819 1210 1840 2230 2640 4040
2026-02-26 15:45 2.79 529 6890 (1962) 348 (1963) 1510 460 530 755 819 1210 1840 2230 2640 4040
2026-02-26 14:45 2.80 535 6890 (1962) 348 (1963) 1510 460 530 755 819 1210 1840 2230 2640 4040
2026-02-26 13:45 2.80 535 6890 (1962) 348 (1963) 1510 460 530 755 819 1210 1840 2230 2640 4040
2026-02-26 12:45 2.80 535 6890 (1962) 348 (1963) 1510 460 530 755 819 1210 1840 2230 2640 4040
2026-02-26 11:45 2.79 529 6890 (1962) 348 (1963) 1510 460 530 755 819 1210 1840 2230 2640 4040
2026-02-26 10:45 2.79 529 6890 (1962) 348 (1963) 1510 460 530 755 819 1210 1840 2230 2640 4040
2026-02-26 09:45 2.79 529 6890 (1962) 348 (1963) 1510 460 530 755 819 1210 1840 2230 2640 4040
2026-02-26 08:45 2.79 529 6890 (1962) 348 (1963) 1510 460 530 755 819 1210 1840 2230 2640 4040
2026-02-26 07:45 2.79 529 6890 (1962) 348 (1963) 1510 460 530 755 819 1210 1840 2230 2640 4040
2026-02-26 06:45 2.79 529 6890 (1962) 348 (1963) 1510 460 530 755 819 1210 1840 2230 2640 4040
2026-02-26 05:45 2.79 529 6890 (1962) 348 (1963) 1510 460 530 755 819 1210 1840 2230 2640 4040
2026-02-26 04:45 2.79 529 6890 (1962) 348 (1963) 1510 460 530 755 819 1210 1840 2230 2640 4040
2026-02-26 03:45 2.79 529 6890 (1962) 348 (1963) 1510 460 530 755 819 1210 1840 2230 2640 4040
2026-02-26 02:45 2.79 529 6890 (1962) 348 (1963) 1510 460 530 755 819 1210 1840 2230 2640 4040
2026-02-26 01:45 2.79 529 6890 (1962) 348 (1963) 1510 460 530 755 819 1210 1840 2230 2640 4040
2026-02-26 00:45 2.79 529 6890 (1962) 348 (1963) 1510 460 530 755 819 1210 1840 2230 2640 4040
2026-02-25 23:45 2.79 529 6890 (1962) 348 (1963) 1510 460 530 755 819 1210 1840 2230 2640 4040
2026-02-25 22:45 2.79 529 8390 (1985) 348 (1963) 1530 460 530 767 839 1230 1710 2040 2850 3440
2026-02-25 21:45 2.79 529 8390 (1985) 348 (1963) 1530 460 530 767 839 1230 1710 2040 2850 3440
2026-02-25 20:45 2.79 529 8390 (1985) 348 (1963) 1530 460 530 767 839 1230 1710 2040 2850 3440
2026-02-25 19:45 2.79 529 8390 (1985) 348 (1963) 1530 460 530 767 839 1230 1710 2040 2850 3440
2026-02-25 18:45 2.79 529 8390 (1985) 348 (1963) 1530 460 530 767 839 1230 1710 2040 2850 3440
2026-02-25 17:45 2.79 529 8390 (1985) 348 (1963) 1530 460 530 767 839 1230 1710 2040 2850 3440
2026-02-25 16:45 2.79 529 8390 (1985) 348 (1963) 1530 460 530 767 839 1230 1710 2040 2850 3440
2026-02-25 15:45 2.77 519 8390 (1985) 348 (1963) 1530 460 530 767 839 1230 1710 2040 2850 3440
2026-02-25 14:45 2.79 529 8390 (1985) 348 (1963) 1530 460 530 767 839 1230 1710 2040 2850 3440
2026-02-25 13:45 2.79 529 8390 (1985) 348 (1963) 1530 460 530 767 839 1230 1710 2040 2850 3440
2026-02-25 12:45 2.79 529 8390 (1985) 348 (1963) 1530 460 530 767 839 1230 1710 2040 2850 3440
2026-02-25 11:45 2.79 529 8390 (1985) 348 (1963) 1530 460 530 767 839 1230 1710 2040 2850 3440
2026-02-25 10:45 2.78 524 8390 (1985) 348 (1963) 1530 460 530 767 839 1230 1710 2040 2850 3440
2026-02-25 09:45 2.79 529 8390 (1985) 348 (1963) 1530 460 530 767 839 1230 1710 2040 2850 3440
2026-02-25 08:45 2.79 529 8390 (1985) 348 (1963) 1530 460 530 767 839 1230 1710 2040 2850 3440
2026-02-25 07:45 2.79 529 8390 (1985) 348 (1963) 1530 460 530 767 839 1230 1710 2040 2850 3440
2026-02-25 06:45 2.79 529 8390 (1985) 348 (1963) 1530 460 530 767 839 1230 1710 2040 2850 3440
2026-02-25 05:45 2.79 529 8390 (1985) 348 (1963) 1530 460 530 767 839 1230 1710 2040 2850 3440
2026-02-25 04:45 2.79 529 8390 (1985) 348 (1963) 1530 460 530 767 839 1230 1710 2040 2850 3440
2026-02-25 03:45 2.79 529 8390 (1985) 348 (1963) 1530 460 530 767 839 1230 1710 2040 2850 3440
2026-02-25 02:45 2.79 529 8390 (1985) 348 (1963) 1530 460 530 767 839 1230 1710 2040 2850 3440
2026-02-25 01:45 2.79 529 8390 (1985) 348 (1963) 1530 460 530 767 839 1230 1710 2040 2850 3440
2026-02-25 00:45 2.78 524 8390 (1985) 348 (1963) 1530 460 530 767 839 1230 1710 2040 2850 3440
2026-02-24 23:45 2.78 524 8390 (1985) 348 (1963) 1530 460 530 767 839 1230 1710 2040 2850 3440
2026-02-24 22:45 2.78 524 8620 (1985) 353 (1963) 1540 446 524 762 822 1180 1780 2180 2570 3710
2026-02-24 21:45 2.77 519 8620 (1985) 353 (1963) 1540 446 524 762 822 1180 1780 2180 2570 3710
2026-02-24 20:45 2.77 519 8620 (1985) 353 (1963) 1540 446 524 762 822 1180 1780 2180 2570 3710
2026-02-24 19:45 2.78 524 8620 (1985) 353 (1963) 1540 446 524 762 822 1180 1780 2180 2570 3710
2026-02-24 18:45 2.78 524 8620 (1985) 353 (1963) 1540 446 524 762 822 1180 1780 2180 2570 3710
2026-02-24 17:45 2.78 524 8620 (1985) 353 (1963) 1540 446 524 762 822 1180 1780 2180 2570 3710
2026-02-24 16:45 2.77 519 8620 (1985) 353 (1963) 1540 446 524 762 822 1180 1780 2180 2570 3710
2026-02-24 15:45 2.75 508 8620 (1985) 353 (1963) 1540 446 524 762 822 1180 1780 2180 2570 3710
2026-02-24 14:45 2.75 508 8620 (1985) 353 (1963) 1540 446 524 762 822 1180 1780 2180 2570 3710
2026-02-24 13:45 2.76 513 8620 (1985) 353 (1963) 1540 446 524 762 822 1180 1780 2180 2570 3710
2026-02-24 12:45 2.77 519 8620 (1985) 353 (1963) 1540 446 524 762 822 1180 1780 2180 2570 3710
2026-02-24 11:45 2.75 508 8620 (1985) 353 (1963) 1540 446 524 762 822 1180 1780 2180 2570 3710
2026-02-24 10:45 2.75 508 8620 (1985) 353 (1963) 1540 446 524 762 822 1180 1780 2180 2570 3710
2026-02-24 09:45 2.74 502 8620 (1985) 353 (1963) 1540 446 524 762 822 1180 1780 2180 2570 3710
2026-02-24 08:45 2.76 513 8620 (1985) 353 (1963) 1540 446 524 762 822 1180 1780 2180 2570 3710
2026-02-24 07:45 2.78 524 8620 (1985) 353 (1963) 1540 446 524 762 822 1180 1780 2180 2570 3710
2026-02-24 06:45 2.78 524 8620 (1985) 353 (1963) 1540 446 524 762 822 1180 1780 2180 2570 3710
2026-02-24 05:45 2.79 529 8620 (1985) 353 (1963) 1540 446 524 762 822 1180 1780 2180 2570 3710
2026-02-24 04:45 2.79 529 8620 (1985) 353 (1963) 1540 446 524 762 822 1180 1780 2180 2570 3710
2026-02-24 03:45 2.79 529 8620 (1985) 353 (1963) 1540 446 524 762 822 1180 1780 2180 2570 3710
2026-02-24 02:45 2.79 529 8620 (1985) 353 (1963) 1540 446 524 762 822 1180 1780 2180 2570 3710
2026-02-24 01:45 2.79 529 8620 (1985) 353 (1963) 1540 446 524 762 822 1180 1780 2180 2570 3710
2026-02-24 00:45 2.79 529 8620 (1985) 353 (1963) 1540 446 524 762 822 1180 1780 2180 2570 3710
2026-02-23 23:45 2.79 529 8620 (1985) 353 (1963) 1540 446 524 762 822 1180 1780 2180 2570 3710
2026-02-23 22:45 2.79 529 5140 (1979) 344 (1963) 1540 429 489 761 815 1150 1750 2050 3200 4480
2026-02-23 21:45 2.79 529 5140 (1979) 344 (1963) 1540 429 489 761 815 1150 1750 2050 3200 4480
2026-02-23 20:45 2.79 529 5140 (1979) 344 (1963) 1540 429 489 761 815 1150 1750 2050 3200 4480
2026-02-23 19:45 2.79 529 5140 (1979) 344 (1963) 1540 429 489 761 815 1150 1750 2050 3200 4480
2026-02-23 18:45 2.79 529 5140 (1979) 344 (1963) 1540 429 489 761 815 1150 1750 2050 3200 4480
2026-02-23 17:45 2.79 529 5140 (1979) 344 (1963) 1540 429 489 761 815 1150 1750 2050 3200 4480
2026-02-23 16:45 2.79 529 5140 (1979) 344 (1963) 1540 429 489 761 815 1150 1750 2050 3200 4480
2026-02-23 15:45 2.80 535 5140 (1979) 344 (1963) 1540 429 489 761 815 1150 1750 2050 3200 4480
2026-02-23 14:45 2.80 535 5140 (1979) 344 (1963) 1540 429 489 761 815 1150 1750 2050 3200 4480
2026-02-23 13:45 2.80 535 5140 (1979) 344 (1963) 1540 429 489 761 815 1150 1750 2050 3200 4480
2026-02-23 12:45 2.77 519 5140 (1979) 344 (1963) 1540 429 489 761 815 1150 1750 2050 3200 4480
2026-02-23 11:45 2.77 519 5140 (1979) 344 (1963) 1540 429 489 761 815 1150 1750 2050 3200 4480
2026-02-23 10:45 2.80 535 5140 (1979) 344 (1963) 1540 429 489 761 815 1150 1750 2050 3200 4480
2026-02-23 09:45 2.78 524 5140 (1979) 344 (1963) 1540 429 489 761 815 1150 1750 2050 3200 4480
2026-02-23 08:45 2.76 513 5140 (1979) 344 (1963) 1540 429 489 761 815 1150 1750 2050 3200 4480
2026-02-23 07:45 2.75 508 5140 (1979) 344 (1963) 1540 429 489 761 815 1150 1750 2050 3200 4480
2026-02-23 06:45 2.79 529 5140 (1979) 344 (1963) 1540 429 489 761 815 1150 1750 2050 3200 4480
2026-02-23 05:45 2.80 535 5140 (1979) 344 (1963) 1540 429 489 761 815 1150 1750 2050 3200 4480
2026-02-23 04:45 2.80 535 5140 (1979) 344 (1963) 1540 429 489 761 815 1150 1750 2050 3200 4480
2026-02-23 03:45 2.80 535 5140 (1979) 344 (1963) 1540 429 489 761 815 1150 1750 2050 3200 4480
2026-02-23 02:45 2.80 535 5140 (1979) 344 (1963) 1540 429 489 761 815 1150 1750 2050 3200 4480
2026-02-23 01:45 2.80 535 5140 (1979) 344 (1963) 1540 429 489 761 815 1150 1750 2050 3200 4480
2026-02-23 00:45 2.80 535 5140 (1979) 344 (1963) 1540 429 489 761 815 1150 1750 2050 3200 4480
2026-02-22 23:45 2.80 535 5140 (1979) 344 (1963) 1540 429 489 761 815 1150 1750 2050 3200 4480
2026-02-22 22:45 2.80 535 8450 (1974) 344 (1963) 1530 408 492 773 835 1180 1820 1970 2990 3700
2026-02-22 21:45 2.80 535 8450 (1974) 344 (1963) 1530 408 492 773 835 1180 1820 1970 2990 3700
2026-02-22 20:45 2.80 535 8450 (1974) 344 (1963) 1530 408 492 773 835 1180 1820 1970 2990 3700
2026-02-22 19:45 2.81 540 8450 (1974) 344 (1963) 1530 408 492 773 835 1180 1820 1970 2990 3700
2026-02-22 18:45 2.81 540 8450 (1974) 344 (1963) 1530 408 492 773 835 1180 1820 1970 2990 3700
2026-02-22 17:45 2.80 535 8450 (1974) 344 (1963) 1530 408 492 773 835 1180 1820 1970 2990 3700
2026-02-22 16:45 2.81 540 8450 (1974) 344 (1963) 1530 408 492 773 835 1180 1820 1970 2990 3700
2026-02-22 15:45 2.78 524 8450 (1974) 344 (1963) 1530 408 492 773 835 1180 1820 1970 2990 3700
2026-02-22 14:45 2.79 529 8450 (1974) 344 (1963) 1530 408 492 773 835 1180 1820 1970 2990 3700
2026-02-22 13:45 2.78 524 8450 (1974) 344 (1963) 1530 408 492 773 835 1180 1820 1970 2990 3700
2026-02-22 12:45 2.80 535 8450 (1974) 344 (1963) 1530 408 492 773 835 1180 1820 1970 2990 3700
2026-02-22 11:45 2.78 524 8450 (1974) 344 (1963) 1530 408 492 773 835 1180 1820 1970 2990 3700
2026-02-22 10:45 2.79 529 8450 (1974) 344 (1963) 1530 408 492 773 835 1180 1820 1970 2990 3700
2026-02-22 09:45 2.78 524 8450 (1974) 344 (1963) 1530 408 492 773 835 1180 1820 1970 2990 3700
2026-02-22 08:45 2.78 524 8450 (1974) 344 (1963) 1530 408 492 773 835 1180 1820 1970 2990 3700
2026-02-22 07:45 2.78 524 8450 (1974) 344 (1963) 1530 408 492 773 835 1180 1820 1970 2990 3700
2026-02-22 06:45 2.82 545 8450 (1974) 344 (1963) 1530 408 492 773 835 1180 1820 1970 2990 3700
2026-02-22 05:45 2.82 545 8450 (1974) 344 (1963) 1530 408 492 773 835 1180 1820 1970 2990 3700
2026-02-22 04:45 2.82 545 8450 (1974) 344 (1963) 1530 408 492 773 835 1180 1820 1970 2990 3700
2026-02-22 03:45 2.82 545 8450 (1974) 344 (1963) 1530 408 492 773 835 1180 1820 1970 2990 3700
2026-02-22 02:45 2.80 535 8450 (1974) 344 (1963) 1530 408 492 773 835 1180 1820 1970 2990 3700
2026-02-22 01:45 2.82 545 8450 (1974) 344 (1963) 1530 408 492 773 835 1180 1820 1970 2990 3700
2026-02-22 00:45 2.83 551 8450 (1974) 344 (1963) 1530 408 492 773 835 1180 1820 1970 2990 3700
2026-02-21 23:45 2.83 551 8450 (1974) 344 (1963) 1530 408 492 773 835 1180 1820 1970 2990 3700
2026-02-21 22:45 2.83 551 10000 (1951) 348 (1963) 1490 406 509 767 809 1170 1650 1840 2780 3990
2026-02-21 21:45 2.83 551 10000 (1951) 348 (1963) 1490 406 509 767 809 1170 1650 1840 2780 3990
2026-02-21 20:45 2.83 551 10000 (1951) 348 (1963) 1490 406 509 767 809 1170 1650 1840 2780 3990
2026-02-21 19:45 2.83 551 10000 (1951) 348 (1963) 1490 406 509 767 809 1170 1650 1840 2780 3990
2026-02-21 18:45 2.83 551 10000 (1951) 348 (1963) 1490 406 509 767 809 1170 1650 1840 2780 3990
2026-02-21 17:45 2.83 551 10000 (1951) 348 (1963) 1490 406 509 767 809 1170 1650 1840 2780 3990
2026-02-21 16:45 2.84 556 10000 (1951) 348 (1963) 1490 406 509 767 809 1170 1650 1840 2780 3990
2026-02-21 15:45 2.84 556 10000 (1951) 348 (1963) 1490 406 509 767 809 1170 1650 1840 2780 3990
2026-02-21 14:45 2.85 561 10000 (1951) 348 (1963) 1490 406 509 767 809 1170 1650 1840 2780 3990
2026-02-21 13:45 2.85 561 10000 (1951) 348 (1963) 1490 406 509 767 809 1170 1650 1840 2780 3990
2026-02-21 12:45 2.85 561 10000 (1951) 348 (1963) 1490 406 509 767 809 1170 1650 1840 2780 3990
2026-02-21 11:45 2.85 561 10000 (1951) 348 (1963) 1490 406 509 767 809 1170 1650 1840 2780 3990
2026-02-21 10:45 2.85 561 10000 (1951) 348 (1963) 1490 406 509 767 809 1170 1650 1840 2780 3990
2026-02-21 09:45 2.85 561 10000 (1951) 348 (1963) 1490 406 509 767 809 1170 1650 1840 2780 3990
2026-02-21 08:45 2.85 561 10000 (1951) 348 (1963) 1490 406 509 767 809 1170 1650 1840 2780 3990
2026-02-21 07:45 2.85 561 10000 (1951) 348 (1963) 1490 406 509 767 809 1170 1650 1840 2780 3990
2026-02-21 06:45 2.85 561 10000 (1951) 348 (1963) 1490 406 509 767 809 1170 1650 1840 2780 3990
2026-02-21 05:45 2.85 561 10000 (1951) 348 (1963) 1490 406 509 767 809 1170 1650 1840 2780 3990
2026-02-21 04:45 2.86 567 10000 (1951) 348 (1963) 1490 406 509 767 809 1170 1650 1840 2780 3990
2026-02-21 03:45 2.86 567 10000 (1951) 348 (1963) 1490 406 509 767 809 1170 1650 1840 2780 3990
2026-02-21 02:45 2.86 567 10000 (1951) 348 (1963) 1490 406 509 767 809 1170 1650 1840 2780 3990
2026-02-21 01:45 2.86 567 10000 (1951) 348 (1963) 1490 406 509 767 809 1170 1650 1840 2780 3990
2026-02-21 00:45 2.84 556 10000 (1951) 348 (1963) 1490 406 509 767 809 1170 1650 1840 2780 3990
2026-02-20 23:45 2.82 545 10000 (1951) 348 (1963) 1490 406 509 767 809 1170 1650 1840 2780 3990
2026-02-20 22:45 2.84 556 8210 (1938) 348 (1963) 1430 413 509 665 785 1150 1670 1790 2330 3260
2026-02-20 21:45 2.85 561 8210 (1938) 348 (1963) 1430 413 509 665 785 1150 1670 1790 2330 3260
2026-02-20 20:45 2.85 561 8210 (1938) 348 (1963) 1430 413 509 665 785 1150 1670 1790 2330 3260
2026-02-20 19:45 2.85 561 8210 (1938) 348 (1963) 1430 413 509 665 785 1150 1670 1790 2330 3260
2026-02-20 18:45 2.85 561 8210 (1938) 348 (1963) 1430 413 509 665 785 1150 1670 1790 2330 3260
2026-02-20 17:45 2.86 567 8210 (1938) 348 (1963) 1430 413 509 665 785 1150 1670 1790 2330 3260
2026-02-20 16:45 2.86 567 8210 (1938) 348 (1963) 1430 413 509 665 785 1150 1670 1790 2330 3260
2026-02-20 15:45 2.86 567 8210 (1938) 348 (1963) 1430 413 509 665 785 1150 1670 1790 2330 3260
2026-02-20 14:45 2.86 567 8210 (1938) 348 (1963) 1430 413 509 665 785 1150 1670 1790 2330 3260
2026-02-20 13:45 2.87 572 8210 (1938) 348 (1963) 1430 413 509 665 785 1150 1670 1790 2330 3260
2026-02-20 12:45 2.86 567 8210 (1938) 348 (1963) 1430 413 509 665 785 1150 1670 1790 2330 3260
2026-02-20 11:45 2.83 551 8210 (1938) 348 (1963) 1430 413 509 665 785 1150 1670 1790 2330 3260
2026-02-20 10:45 2.86 567 8210 (1938) 348 (1963) 1430 413 509 665 785 1150 1670 1790 2330 3260
2026-02-20 09:45 2.83 551 8210 (1938) 348 (1963) 1430 413 509 665 785 1150 1670 1790 2330 3260
2026-02-20 08:45 2.86 567 8210 (1938) 348 (1963) 1430 413 509 665 785 1150 1670 1790 2330 3260
2026-02-20 07:45 2.86 567 8210 (1938) 348 (1963) 1430 413 509 665 785 1150 1670 1790 2330 3260
2026-02-20 06:45 2.86 567 8210 (1938) 348 (1963) 1430 413 509 665 785 1150 1670 1790 2330 3260
2026-02-20 05:45 2.84 556 8210 (1938) 348 (1963) 1430 413 509 665 785 1150 1670 1790 2330 3260
2026-02-20 04:45 2.87 572 8210 (1938) 348 (1963) 1430 413 509 665 785 1150 1670 1790 2330 3260
2026-02-20 03:45 2.87 572 8210 (1938) 348 (1963) 1430 413 509 665 785 1150 1670 1790 2330 3260
2026-02-20 02:45 2.86 567 8210 (1938) 348 (1963) 1430 413 509 665 785 1150 1670 1790 2330 3260
2026-02-20 01:45 2.87 572 8210 (1938) 348 (1963) 1430 413 509 665 785 1150 1670 1790 2330 3260
2026-02-20 00:45 2.83 551 8210 (1938) 348 (1963) 1430 413 509 665 785 1150 1670 1790 2330 3260
2026-02-19 23:45 2.83 551 8210 (1938) 348 (1963) 1430 413 509 665 785 1150 1670 1790 2330 3260
2026-02-19 22:45 2.84 556 12800 (1938) 348 (1963) 1410 410 504 648 744 1160 1690 1790 2510 3240
2026-02-19 21:45 2.84 556 12800 (1938) 348 (1963) 1410 410 504 648 744 1160 1690 1790 2510 3240
2026-02-19 20:45 2.87 572 12800 (1938) 348 (1963) 1410 410 504 648 744 1160 1690 1790 2510 3240
2026-02-19 19:45 2.86 567 12800 (1938) 348 (1963) 1410 410 504 648 744 1160 1690 1790 2510 3240
2026-02-19 18:45 2.86 567 12800 (1938) 348 (1963) 1410 410 504 648 744 1160 1690 1790 2510 3240
2026-02-19 17:45 2.88 577 12800 (1938) 348 (1963) 1410 410 504 648 744 1160 1690 1790 2510 3240
2026-02-19 16:45 2.88 577 12800 (1938) 348 (1963) 1410 410 504 648 744 1160 1690 1790 2510 3240
2026-02-19 15:45 2.86 567 12800 (1938) 348 (1963) 1410 410 504 648 744 1160 1690 1790 2510 3240
2026-02-19 14:45 2.85 561 12800 (1938) 348 (1963) 1410 410 504 648 744 1160 1690 1790 2510 3240
2026-02-19 13:45 2.86 567 12800 (1938) 348 (1963) 1410 410 504 648 744 1160 1690 1790 2510 3240
2026-02-19 12:45 2.86 567 12800 (1938) 348 (1963) 1410 410 504 648 744 1160 1690 1790 2510 3240
2026-02-19 11:45 2.85 561 12800 (1938) 348 (1963) 1410 410 504 648 744 1160 1690 1790 2510 3240
2026-02-19 10:45 2.87 572 12800 (1938) 348 (1963) 1410 410 504 648 744 1160 1690 1790 2510 3240
2026-02-19 09:45 2.87 572 12800 (1938) 348 (1963) 1410 410 504 648 744 1160 1690 1790 2510 3240
2026-02-19 08:45 2.88 577 12800 (1938) 348 (1963) 1410 410 504 648 744 1160 1690 1790 2510 3240
2026-02-19 07:45 2.88 577 12800 (1938) 348 (1963) 1410 410 504 648 744 1160 1690 1790 2510 3240
2026-02-19 06:45 2.88 577 12800 (1938) 348 (1963) 1410 410 504 648 744 1160 1690 1790 2510 3240
2026-02-19 05:45 2.88 577 12800 (1938) 348 (1963) 1410 410 504 648 744 1160 1690 1790 2510 3240
2026-02-19 04:45 2.88 577 12800 (1938) 348 (1963) 1410 410 504 648 744 1160 1690 1790 2510 3240
2026-02-19 03:45 2.89 585 12800 (1938) 348 (1963) 1410 410 504 648 744 1160 1690 1790 2510 3240
2026-02-19 02:45 2.89 585 12800 (1938) 348 (1963) 1410 410 504 648 744 1160 1690 1790 2510 3240
2026-02-19 01:45 2.89 585 12800 (1938) 348 (1963) 1410 410 504 648 744 1160 1690 1790 2510 3240
2026-02-19 00:45 2.89 585 12800 (1938) 348 (1963) 1410 410 504 648 744 1160 1690 1790 2510 3240
2026-02-18 23:45 2.89 585 12800 (1938) 348 (1963) 1410 410 504 648 744 1160 1690 1790 2510 3240
2026-02-18 22:45 2.88 577 10300 (1938) 344 (1955) 1430 417 508 683 742 1170 1710 1820 2710 3530
2026-02-18 21:45 2.89 585 10300 (1938) 344 (1955) 1430 417 508 683 742 1170 1710 1820 2710 3530
2026-02-18 20:45 2.89 585 10300 (1938) 344 (1955) 1430 417 508 683 742 1170 1710 1820 2710 3530
2026-02-18 19:45 2.89 585 10300 (1938) 344 (1955) 1430 417 508 683 742 1170 1710 1820 2710 3530
2026-02-18 18:45 2.89 585 10300 (1938) 344 (1955) 1430 417 508 683 742 1170 1710 1820 2710 3530
2026-02-18 17:45 2.89 585 10300 (1938) 344 (1955) 1430 417 508 683 742 1170 1710 1820 2710 3530
2026-02-18 16:45 2.88 577 10300 (1938) 344 (1955) 1430 417 508 683 742 1170 1710 1820 2710 3530
2026-02-18 15:45 2.88 577 10300 (1938) 344 (1955) 1430 417 508 683 742 1170 1710 1820 2710 3530
2026-02-18 14:45 2.90 592 10300 (1938) 344 (1955) 1430 417 508 683 742 1170 1710 1820 2710 3530
2026-02-18 13:45 2.90 592 10300 (1938) 344 (1955) 1430 417 508 683 742 1170 1710 1820 2710 3530
2026-02-18 12:45 2.89 585 10300 (1938) 344 (1955) 1430 417 508 683 742 1170 1710 1820 2710 3530
2026-02-18 11:45 2.90 592 10300 (1938) 344 (1955) 1430 417 508 683 742 1170 1710 1820 2710 3530
2026-02-18 10:45 2.90 592 10300 (1938) 344 (1955) 1430 417 508 683 742 1170 1710 1820 2710 3530
2026-02-18 09:45 2.89 585 10300 (1938) 344 (1955) 1430 417 508 683 742 1170 1710 1820 2710 3530
2026-02-18 08:45 2.90 592 10300 (1938) 344 (1955) 1430 417 508 683 742 1170 1710 1820 2710 3530
2026-02-18 07:45 2.89 585 10300 (1938) 344 (1955) 1430 417 508 683 742 1170 1710 1820 2710 3530
2026-02-18 06:45 2.89 585 10300 (1938) 344 (1955) 1430 417 508 683 742 1170 1710 1820 2710 3530
2026-02-18 05:45 2.89 585 10300 (1938) 344 (1955) 1430 417 508 683 742 1170 1710 1820 2710 3530
2026-02-18 04:45 2.90 592 10300 (1938) 344 (1955) 1430 417 508 683 742 1170 1710 1820 2710 3530
2026-02-18 03:45 2.89 585 10300 (1938) 344 (1955) 1430 417 508 683 742 1170 1710 1820 2710 3530
2026-02-18 02:45 2.90 592 10300 (1938) 344 (1955) 1430 417 508 683 742 1170 1710 1820 2710 3530
2026-02-18 01:45 2.90 592 10300 (1938) 344 (1955) 1430 417 508 683 742 1170 1710 1820 2710 3530
2026-02-18 00:45 2.90 592 10300 (1938) 344 (1955) 1430 417 508 683 742 1170 1710 1820 2710 3530
2026-02-17 23:45 2.88 577 10300 (1938) 344 (1955) 1430 417 508 683 742 1170 1710 1820 2710 3530
2026-02-17 22:45 2.87 572 5300 (1989) 348 (1955) 1410 406 460 665 780 1200 1750 1850 2700 3550
2026-02-17 21:45 2.87 572 5300 (1989) 348 (1955) 1410 406 460 665 780 1200 1750 1850 2700 3550
2026-02-17 20:45 2.87 572 5300 (1989) 348 (1955) 1410 406 460 665 780 1200 1750 1850 2700 3550
2026-02-17 19:45 2.88 577 5300 (1989) 348 (1955) 1410 406 460 665 780 1200 1750 1850 2700 3550
2026-02-17 18:45 2.87 572 5300 (1989) 348 (1955) 1410 406 460 665 780 1200 1750 1850 2700 3550
2026-02-17 17:45 2.89 585 5300 (1989) 348 (1955) 1410 406 460 665 780 1200 1750 1850 2700 3550
2026-02-17 16:45 2.89 585 5300 (1989) 348 (1955) 1410 406 460 665 780 1200 1750 1850 2700 3550
2026-02-17 15:45 2.88 577 5300 (1989) 348 (1955) 1410 406 460 665 780 1200 1750 1850 2700 3550
2026-02-17 14:45 2.88 577 5300 (1989) 348 (1955) 1410 406 460 665 780 1200 1750 1850 2700 3550
2026-02-17 13:45 2.88 577 5300 (1989) 348 (1955) 1410 406 460 665 780 1200 1750 1850 2700 3550
2026-02-17 12:45 2.90 592 5300 (1989) 348 (1955) 1410 406 460 665 780 1200 1750 1850 2700 3550
2026-02-17 11:45 2.89 585 5300 (1989) 348 (1955) 1410 406 460 665 780 1200 1750 1850 2700 3550
2026-02-17 10:45 2.90 592 5300 (1989) 348 (1955) 1410 406 460 665 780 1200 1750 1850 2700 3550
2026-02-17 09:45 2.90 592 5300 (1989) 348 (1955) 1410 406 460 665 780 1200 1750 1850 2700 3550
2026-02-17 08:45 2.91 599 5300 (1989) 348 (1955) 1410 406 460 665 780 1200 1750 1850 2700 3550
2026-02-17 07:45 2.91 599 5300 (1989) 348 (1955) 1410 406 460 665 780 1200 1750 1850 2700 3550
2026-02-17 06:45 2.91 599 5300 (1989) 348 (1955) 1410 406 460 665 780 1200 1750 1850 2700 3550
2026-02-17 05:45 2.91 599 5300 (1989) 348 (1955) 1410 406 460 665 780 1200 1750 1850 2700 3550
2026-02-17 04:45 2.91 599 5300 (1989) 348 (1955) 1410 406 460 665 780 1200 1750 1850 2700 3550
2026-02-17 03:45 2.92 607 5300 (1989) 348 (1955) 1410 406 460 665 780 1200 1750 1850 2700 3550
2026-02-17 02:45 2.91 599 5300 (1989) 348 (1955) 1410 406 460 665 780 1200 1750 1850 2700 3550
2026-02-17 01:45 2.92 607 5300 (1989) 348 (1955) 1410 406 460 665 780 1200 1750 1850 2700 3550
2026-02-17 00:45 2.92 607 5300 (1989) 348 (1955) 1410 406 460 665 780 1200 1750 1850 2700 3550
2026-02-16 23:45 2.92 607 5300 (1989) 348 (1955) 1410 406 460 665 780 1200 1750 1850 2700 3550
2026-02-16 22:45 2.92 607 8200 (1989) 308 (1945) 1460 370 437 670 732 1140 1620 1760 2820 4280
2026-02-16 21:45 2.92 607 8200 (1989) 308 (1945) 1460 370 437 670 732 1140 1620 1760 2820 4280
2026-02-16 20:45 2.92 607 8200 (1989) 308 (1945) 1460 370 437 670 732 1140 1620 1760 2820 4280
2026-02-16 19:45 2.92 607 8200 (1989) 308 (1945) 1460 370 437 670 732 1140 1620 1760 2820 4280
2026-02-16 18:45 2.92 607 8200 (1989) 308 (1945) 1460 370 437 670 732 1140 1620 1760 2820 4280
2026-02-16 17:45 2.92 607 8200 (1989) 308 (1945) 1460 370 437 670 732 1140 1620 1760 2820 4280
2026-02-16 16:45 2.92 607 8200 (1989) 308 (1945) 1460 370 437 670 732 1140 1620 1760 2820 4280
2026-02-16 15:45 2.91 599 8200 (1989) 308 (1945) 1460 370 437 670 732 1140 1620 1760 2820 4280
2026-02-16 14:45 2.89 585 8200 (1989) 308 (1945) 1460 370 437 670 732 1140 1620 1760 2820 4280
2026-02-16 13:45 2.89 585 8200 (1989) 308 (1945) 1460 370 437 670 732 1140 1620 1760 2820 4280
2026-02-16 12:45 2.88 577 8200 (1989) 308 (1945) 1460 370 437 670 732 1140 1620 1760 2820 4280
2026-02-16 11:45 2.89 585 8200 (1989) 308 (1945) 1460 370 437 670 732 1140 1620 1760 2820 4280
2026-02-16 10:45 2.90 592 8200 (1989) 308 (1945) 1460 370 437 670 732 1140 1620 1760 2820 4280
2026-02-16 09:45 2.91 599 8200 (1989) 308 (1945) 1460 370 437 670 732 1140 1620 1760 2820 4280
2026-02-16 08:45 2.90 592 8200 (1989) 308 (1945) 1460 370 437 670 732 1140 1620 1760 2820 4280
2026-02-16 07:45 2.90 592 8200 (1989) 308 (1945) 1460 370 437 670 732 1140 1620 1760 2820 4280
2026-02-16 06:45 2.90 592 8200 (1989) 308 (1945) 1460 370 437 670 732 1140 1620 1760 2820 4280
2026-02-16 05:45 2.89 585 8200 (1989) 308 (1945) 1460 370 437 670 732 1140 1620 1760 2820 4280
2026-02-16 04:45 2.89 585 8200 (1989) 308 (1945) 1460 370 437 670 732 1140 1620 1760 2820 4280
2026-02-16 03:45 2.88 577 8200 (1989) 308 (1945) 1460 370 437 670 732 1140 1620 1760 2820 4280
2026-02-16 02:45 2.88 577 8200 (1989) 308 (1945) 1460 370 437 670 732 1140 1620 1760 2820 4280
2026-02-16 01:45 2.87 572 8200 (1989) 308 (1945) 1460 370 437 670 732 1140 1620 1760 2820 4280
2026-02-16 00:45 2.87 572 8200 (1989) 308 (1945) 1460 370 437 670 732 1140 1620 1760 2820 4280
2026-02-15 23:45 2.87 572 8200 (1989) 308 (1945) 1460 370 437 670 732 1140 1620 1760 2820 4280
2026-02-15 22:45 2.86 567 10200 (1989) 313 (1945) 1540 350 427 669 731 1110 1600 1710 2470 4830
2026-02-15 21:45 2.86 567 10200 (1989) 313 (1945) 1540 350 427 669 731 1110 1600 1710 2470 4830
2026-02-15 20:45 2.86 567 10200 (1989) 313 (1945) 1540 350 427 669 731 1110 1600 1710 2470 4830
2026-02-15 19:45 2.85 561 10200 (1989) 313 (1945) 1540 350 427 669 731 1110 1600 1710 2470 4830
2026-02-15 18:45 2.85 561 10200 (1989) 313 (1945) 1540 350 427 669 731 1110 1600 1710 2470 4830
2026-02-15 17:45 2.85 561 10200 (1989) 313 (1945) 1540 350 427 669 731 1110 1600 1710 2470 4830
2026-02-15 16:45 2.85 561 10200 (1989) 313 (1945) 1540 350 427 669 731 1110 1600 1710 2470 4830
2026-02-15 15:45 2.84 556 10200 (1989) 313 (1945) 1540 350 427 669 731 1110 1600 1710 2470 4830
2026-02-15 14:45 2.86 567 10200 (1989) 313 (1945) 1540 350 427 669 731 1110 1600 1710 2470 4830
2026-02-15 13:45 2.82 545 10200 (1989) 313 (1945) 1540 350 427 669 731 1110 1600 1710 2470 4830
2026-02-15 12:45 2.86 567 10200 (1989) 313 (1945) 1540 350 427 669 731 1110 1600 1710 2470 4830
2026-02-15 11:45 2.86 567 10200 (1989) 313 (1945) 1540 350 427 669 731 1110 1600 1710 2470 4830
2026-02-15 10:45 2.87 572 10200 (1989) 313 (1945) 1540 350 427 669 731 1110 1600 1710 2470 4830
2026-02-15 09:45 2.87 572 10200 (1989) 313 (1945) 1540 350 427 669 731 1110 1600 1710 2470 4830
2026-02-15 08:45 2.87 572 10200 (1989) 313 (1945) 1540 350 427 669 731 1110 1600 1710 2470 4830
2026-02-15 07:45 2.87 572 10200 (1989) 313 (1945) 1540 350 427 669 731 1110 1600 1710 2470 4830
2026-02-15 06:45 2.87 572 10200 (1989) 313 (1945) 1540 350 427 669 731 1110 1600 1710 2470 4830
2026-02-15 05:45 2.86 567 10200 (1989) 313 (1945) 1540 350 427 669 731 1110 1600 1710 2470 4830
2026-02-15 04:45 2.86 567 10200 (1989) 313 (1945) 1540 350 427 669 731 1110 1600 1710 2470 4830
2026-02-15 03:45 2.85 561 10200 (1989) 313 (1945) 1540 350 427 669 731 1110 1600 1710 2470 4830
2026-02-15 02:45 2.83 551 10200 (1989) 313 (1945) 1540 350 427 669 731 1110 1600 1710 2470 4830
2026-02-15 01:45 2.83 551 10200 (1989) 313 (1945) 1540 350 427 669 731 1110 1600 1710 2470 4830
2026-02-15 00:45 2.82 545 10200 (1989) 313 (1945) 1540 350 427 669 731 1110 1600 1710 2470 4830
2026-02-14 23:45 2.80 535 10200 (1989) 313 (1945) 1540 350 427 669 731 1110 1600 1710 2470 4830
2026-02-14 22:45 2.81 540 14100 (1949) 313 (1945) 1660 353 433 640 690 1080 1480 1700 2170 8040
2026-02-14 21:45 2.81 540 14100 (1949) 313 (1945) 1660 353 433 640 690 1080 1480 1700 2170 8040
2026-02-14 20:45 2.78 524 14100 (1949) 313 (1945) 1660 353 433 640 690 1080 1480 1700 2170 8040
2026-02-14 19:45 2.79 529 14100 (1949) 313 (1945) 1660 353 433 640 690 1080 1480 1700 2170 8040
2026-02-14 18:45 2.81 540 14100 (1949) 313 (1945) 1660 353 433 640 690 1080 1480 1700 2170 8040
2026-02-14 17:45 2.81 540 14100 (1949) 313 (1945) 1660 353 433 640 690 1080 1480 1700 2170 8040
2026-02-14 16:45 2.81 540 14100 (1949) 313 (1945) 1660 353 433 640 690 1080 1480 1700 2170 8040
2026-02-14 15:45 2.81 540 14100 (1949) 313 (1945) 1660 353 433 640 690 1080 1480 1700 2170 8040
2026-02-14 14:45 2.81 540 14100 (1949) 313 (1945) 1660 353 433 640 690 1080 1480 1700 2170 8040
2026-02-14 13:45 2.79 529 14100 (1949) 313 (1945) 1660 353 433 640 690 1080 1480 1700 2170 8040
2026-02-14 12:45 2.81 540 14100 (1949) 313 (1945) 1660 353 433 640 690 1080 1480 1700 2170 8040
2026-02-14 11:45 2.80 535 14100 (1949) 313 (1945) 1660 353 433 640 690 1080 1480 1700 2170 8040
2026-02-14 10:45 2.80 535 14100 (1949) 313 (1945) 1660 353 433 640 690 1080 1480 1700 2170 8040
2026-02-14 09:45 2.78 524 14100 (1949) 313 (1945) 1660 353 433 640 690 1080 1480 1700 2170 8040
2026-02-14 08:45 2.78 524 14100 (1949) 313 (1945) 1660 353 433 640 690 1080 1480 1700 2170 8040
2026-02-14 07:45 2.78 524 14100 (1949) 313 (1945) 1660 353 433 640 690 1080 1480 1700 2170 8040
2026-02-14 06:45 2.74 502 14100 (1949) 313 (1945) 1660 353 433 640 690 1080 1480 1700 2170 8040
2026-02-14 05:45 2.71 486 14100 (1949) 313 (1945) 1660 353 433 640 690 1080 1480 1700 2170 8040
2026-02-14 04:45 2.75 508 14100 (1949) 313 (1945) 1660 353 433 640 690 1080 1480 1700 2170 8040
2026-02-14 03:45 2.75 508 14100 (1949) 313 (1945) 1660 353 433 640 690 1080 1480 1700 2170 8040
2026-02-14 02:45 2.75 508 14100 (1949) 313 (1945) 1660 353 433 640 690 1080 1480 1700 2170 8040
2026-02-14 01:45 2.75 508 14100 (1949) 313 (1945) 1660 353 433 640 690 1080 1480 1700 2170 8040
2026-02-14 00:45 2.75 508 14100 (1949) 313 (1945) 1660 353 433 640 690 1080 1480 1700 2170 8040
2026-02-13 23:45 2.75 508 14100 (1949) 313 (1945) 1660 353 433 640 690 1080 1480 1700 2170 8040
2026-02-13 22:45 2.75 508 13600 (1950) 316 (1945) 1490 350 429 600 688 1080 1480 1630 2290 4930
2026-02-13 21:45 2.75 508 13600 (1950) 316 (1945) 1490 350 429 600 688 1080 1480 1630 2290 4930
2026-02-13 20:45 2.75 508 13600 (1950) 316 (1945) 1490 350 429 600 688 1080 1480 1630 2290 4930
2026-02-13 19:45 2.75 508 13600 (1950) 316 (1945) 1490 350 429 600 688 1080 1480 1630 2290 4930
2026-02-13 18:45 2.75 508 13600 (1950) 316 (1945) 1490 350 429 600 688 1080 1480 1630 2290 4930
2026-02-13 17:45 2.75 508 13600 (1950) 316 (1945) 1490 350 429 600 688 1080 1480 1630 2290 4930
2026-02-13 16:45 2.75 508 13600 (1950) 316 (1945) 1490 350 429 600 688 1080 1480 1630 2290 4930
2026-02-13 15:45 2.75 508 13600 (1950) 316 (1945) 1490 350 429 600 688 1080 1480 1630 2290 4930
2026-02-13 14:45 2.75 508 13600 (1950) 316 (1945) 1490 350 429 600 688 1080 1480 1630 2290 4930
2026-02-13 13:45 2.75 508 13600 (1950) 316 (1945) 1490 350 429 600 688 1080 1480 1630 2290 4930
2026-02-13 12:45 2.73 497 13600 (1950) 316 (1945) 1490 350 429 600 688 1080 1480 1630 2290 4930
2026-02-13 11:45 2.74 502 13600 (1950) 316 (1945) 1490 350 429 600 688 1080 1480 1630 2290 4930
2026-02-13 10:45 2.74 502 13600 (1950) 316 (1945) 1490 350 429 600 688 1080 1480 1630 2290 4930
2026-02-13 09:45 2.75 508 13600 (1950) 316 (1945) 1490 350 429 600 688 1080 1480 1630 2290 4930
2026-02-13 08:45 2.76 513 13600 (1950) 316 (1945) 1490 350 429 600 688 1080 1480 1630 2290 4930
2026-02-13 07:45 2.75 508 13600 (1950) 316 (1945) 1490 350 429 600 688 1080 1480 1630 2290 4930
2026-02-13 06:45 2.75 508 13600 (1950) 316 (1945) 1490 350 429 600 688 1080 1480 1630 2290 4930
2026-02-13 05:45 2.75 508 13600 (1950) 316 (1945) 1490 350 429 600 688 1080 1480 1630 2290 4930
2026-02-13 04:45 2.76 513 13600 (1950) 316 (1945) 1490 350 429 600 688 1080 1480 1630 2290 4930
2026-02-13 03:45 2.76 513 13600 (1950) 316 (1945) 1490 350 429 600 688 1080 1480 1630 2290 4930
2026-02-13 02:45 2.76 513 13600 (1950) 316 (1945) 1490 350 429 600 688 1080 1480 1630 2290 4930
2026-02-13 01:45 2.76 513 13600 (1950) 316 (1945) 1490 350 429 600 688 1080 1480 1630 2290 4930
2026-02-13 00:45 2.76 513 13600 (1950) 316 (1945) 1490 350 429 600 688 1080 1480 1630 2290 4930
2026-02-12 23:45 2.76 513 13600 (1950) 316 (1945) 1490 350 429 600 688 1080 1480 1630 2290 4930
2026-02-12 22:45 2.76 513 9610 (2019) 310 (1945) 1300 353 427 559 659 1070 1500 1630 2100 3260
2026-02-12 21:45 2.76 513 9610 (2019) 310 (1945) 1300 353 427 559 659 1070 1500 1630 2100 3260
2026-02-12 20:45 2.75 508 9610 (2019) 310 (1945) 1300 353 427 559 659 1070 1500 1630 2100 3260
2026-02-12 19:45 2.75 508 9610 (2019) 310 (1945) 1300 353 427 559 659 1070 1500 1630 2100 3260
2026-02-12 18:45 2.75 508 9610 (2019) 310 (1945) 1300 353 427 559 659 1070 1500 1630 2100 3260
2026-02-12 17:45 2.76 513 9610 (2019) 310 (1945) 1300 353 427 559 659 1070 1500 1630 2100 3260
2026-02-12 16:45 2.76 513 9610 (2019) 310 (1945) 1300 353 427 559 659 1070 1500 1630 2100 3260
2026-02-12 15:45 2.75 508 9610 (2019) 310 (1945) 1300 353 427 559 659 1070 1500 1630 2100 3260
2026-02-12 14:45 2.75 508 9610 (2019) 310 (1945) 1300 353 427 559 659 1070 1500 1630 2100 3260
2026-02-12 13:45 2.75 508 9610 (2019) 310 (1945) 1300 353 427 559 659 1070 1500 1630 2100 3260
2026-02-12 12:45 2.74 502 9610 (2019) 310 (1945) 1300 353 427 559 659 1070 1500 1630 2100 3260
2026-02-12 11:45 2.74 502 9610 (2019) 310 (1945) 1300 353 427 559 659 1070 1500 1630 2100 3260
2026-02-12 10:45 2.75 508 9610 (2019) 310 (1945) 1300 353 427 559 659 1070 1500 1630 2100 3260
2026-02-12 09:45 2.73 497 9610 (2019) 310 (1945) 1300 353 427 559 659 1070 1500 1630 2100 3260
2026-02-12 08:45 2.76 513 9610 (2019) 310 (1945) 1300 353 427 559 659 1070 1500 1630 2100 3260
2026-02-12 07:45 2.76 513 9610 (2019) 310 (1945) 1300 353 427 559 659 1070 1500 1630 2100 3260
2026-02-12 06:45 2.76 513 9610 (2019) 310 (1945) 1300 353 427 559 659 1070 1500 1630 2100 3260
2026-02-12 05:45 2.76 513 9610 (2019) 310 (1945) 1300 353 427 559 659 1070 1500 1630 2100 3260
2026-02-12 04:45 2.76 446 9610 (2019) 310 (1945) 1300 353 427 559 659 1070 1500 1630 2100 3260
2026-02-12 03:45 2.76 446 9610 (2019) 310 (1945) 1300 353 427 559 659 1070 1500 1630 2100 3260
2026-02-12 02:45 2.77 452 9610 (2019) 310 (1945) 1300 353 427 559 659 1070 1500 1630 2100 3260
2026-02-12 01:45 2.77 452 9610 (2019) 310 (1945) 1300 353 427 559 659 1070 1500 1630 2100 3260
2026-02-12 00:45 2.77 452 9610 (2019) 310 (1945) 1300 353 427 559 659 1070 1500 1630 2100 3260
2026-02-11 23:45 2.77 452 9610 (2019) 310 (1945) 1300 353 427 559 659 1070 1500 1630 2100 3260
2026-02-11 22:45 2.77 452 13900 (1966) 308 (1945) 1370 362 413 573 663 1010 1510 1630 2090 2980
2026-02-11 21:45 2.77 452 13900 (1966) 308 (1945) 1370 362 413 573 663 1010 1510 1630 2090 2980
2026-02-11 20:45 2.77 452 13900 (1966) 308 (1945) 1370 362 413 573 663 1010 1510 1630 2090 2980
2026-02-11 19:45 2.77 452 13900 (1966) 308 (1945) 1370 362 413 573 663 1010 1510 1630 2090 2980
2026-02-11 18:45 2.77 452 13900 (1966) 308 (1945) 1370 362 413 573 663 1010 1510 1630 2090 2980
2026-02-11 17:45 2.77 452 13900 (1966) 308 (1945) 1370 362 413 573 663 1010 1510 1630 2090 2980
2026-02-11 16:45 2.77 452 13900 (1966) 308 (1945) 1370 362 413 573 663 1010 1510 1630 2090 2980
2026-02-11 15:45 2.78 457 13900 (1966) 308 (1945) 1370 362 413 573 663 1010 1510 1630 2090 2980
2026-02-11 14:45 2.78 457 13900 (1966) 308 (1945) 1370 362 413 573 663 1010 1510 1630 2090 2980
2026-02-11 13:45 2.78 457 13900 (1966) 308 (1945) 1370 362 413 573 663 1010 1510 1630 2090 2980
2026-02-11 12:45 2.78 457 13900 (1966) 308 (1945) 1370 362 413 573 663 1010 1510 1630 2090 2980
2026-02-11 11:45 2.78 457 13900 (1966) 308 (1945) 1370 362 413 573 663 1010 1510 1630 2090 2980
2026-02-11 10:45 2.78 457 13900 (1966) 308 (1945) 1370 362 413 573 663 1010 1510 1630 2090 2980
2026-02-11 09:45 2.78 457 13900 (1966) 308 (1945) 1370 362 413 573 663 1010 1510 1630 2090 2980
2026-02-11 08:45 2.78 457 13900 (1966) 308 (1945) 1370 362 413 573 663 1010 1510 1630 2090 2980
2026-02-11 07:45 2.78 457 13900 (1966) 308 (1945) 1370 362 413 573 663 1010 1510 1630 2090 2980
2026-02-11 06:45 2.78 457 13900 (1966) 308 (1945) 1370 362 413 573 663 1010 1510 1630 2090 2980
2026-02-11 05:45 2.78 457 13900 (1966) 308 (1945) 1370 362 413 573 663 1010 1510 1630 2090 2980
2026-02-11 04:45 2.78 457 13900 (1966) 308 (1945) 1370 362 413 573 663 1010 1510 1630 2090 2980
2026-02-11 03:45 2.78 457 13900 (1966) 308 (1945) 1370 362 413 573 663 1010 1510 1630 2090 2980
2026-02-11 02:45 2.78 457 13900 (1966) 308 (1945) 1370 362 413 573 663 1010 1510 1630 2090 2980
2026-02-11 01:45 2.78 457 13900 (1966) 308 (1945) 1370 362 413 573 663 1010 1510 1630 2090 2980
2026-02-11 00:45 2.78 457 13900 (1966) 308 (1945) 1370 362 413 573 663 1010 1510 1630 2090 2980
2026-02-10 23:45 2.78 457 13900 (1966) 308 (1945) 1370 362 413 573 663 1010 1510 1630 2090 2980
2026-02-10 22:45 2.78 457 6210 (1966) 310 (1945) 1230 365 411 571 653 1010 1520 1630 2160 2720
2026-02-10 21:45 2.78 457 6210 (1966) 310 (1945) 1230 365 411 571 653 1010 1520 1630 2160 2720
2026-02-10 20:45 2.78 457 6210 (1966) 310 (1945) 1230 365 411 571 653 1010 1520 1630 2160 2720
2026-02-10 19:45 2.78 457 6210 (1966) 310 (1945) 1230 365 411 571 653 1010 1520 1630 2160 2720
2026-02-10 18:45 2.78 457 6210 (1966) 310 (1945) 1230 365 411 571 653 1010 1520 1630 2160 2720
2026-02-10 17:45 2.78 457 6210 (1966) 310 (1945) 1230 365 411 571 653 1010 1520 1630 2160 2720
2026-02-10 16:45 2.78 457 6210 (1966) 310 (1945) 1230 365 411 571 653 1010 1520 1630 2160 2720
2026-02-10 15:45 2.77 452 6210 (1966) 310 (1945) 1230 365 411 571 653 1010 1520 1630 2160 2720
2026-02-10 14:45 2.78 457 6210 (1966) 310 (1945) 1230 365 411 571 653 1010 1520 1630 2160 2720
2026-02-10 13:45 2.77 452 6210 (1966) 310 (1945) 1230 365 411 571 653 1010 1520 1630 2160 2720
2026-02-10 12:45 2.77 452 6210 (1966) 310 (1945) 1230 365 411 571 653 1010 1520 1630 2160 2720
2026-02-10 11:45 2.76 446 6210 (1966) 310 (1945) 1230 365 411 571 653 1010 1520 1630 2160 2720
2026-02-10 10:45 2.77 452 6210 (1966) 310 (1945) 1230 365 411 571 653 1010 1520 1630 2160 2720
2026-02-10 09:45 2.78 457 6210 (1966) 310 (1945) 1230 365 411 571 653 1010 1520 1630 2160 2720
2026-02-10 08:45 2.78 457 6210 (1966) 310 (1945) 1230 365 411 571 653 1010 1520 1630 2160 2720
2026-02-10 07:45 2.78 457 6210 (1966) 310 (1945) 1230 365 411 571 653 1010 1520 1630 2160 2720
2026-02-10 06:45 2.78 457 6210 (1966) 310 (1945) 1230 365 411 571 653 1010 1520 1630 2160 2720
2026-02-10 05:45 2.78 457 6210 (1966) 310 (1945) 1230 365 411 571 653 1010 1520 1630 2160 2720
2026-02-10 04:45 2.78 457 6210 (1966) 310 (1945) 1230 365 411 571 653 1010 1520 1630 2160 2720
2026-02-10 03:45 2.78 457 6210 (1966) 310 (1945) 1230 365 411 571 653 1010 1520 1630 2160 2720
2026-02-10 02:45 2.78 457 6210 (1966) 310 (1945) 1230 365 411 571 653 1010 1520 1630 2160 2720
2026-02-10 01:45 2.78 457 6210 (1966) 310 (1945) 1230 365 411 571 653 1010 1520 1630 2160 2720
2026-02-10 00:45 2.78 457 6210 (1966) 310 (1945) 1230 365 411 571 653 1010 1520 1630 2160 2720
2026-02-09 23:45 2.78 457 6210 (1966) 310 (1945) 1230 365 411 571 653 1010 1520 1630 2160 2720
2026-02-09 22:45 2.78 457 7870 (2023) 310 (1945) 1230 360 404 580 669 1040 1520 1630 2230 2650
2026-02-09 21:45 2.78 457 7870 (2023) 310 (1945) 1230 360 404 580 669 1040 1520 1630 2230 2650
2026-02-09 20:45 2.78 457 7870 (2023) 310 (1945) 1230 360 404 580 669 1040 1520 1630 2230 2650
2026-02-09 19:45 2.78 457 7870 (2023) 310 (1945) 1230 360 404 580 669 1040 1520 1630 2230 2650
2026-02-09 18:45 2.78 457 7870 (2023) 310 (1945) 1230 360 404 580 669 1040 1520 1630 2230 2650
2026-02-09 17:45 2.78 457 7870 (2023) 310 (1945) 1230 360 404 580 669 1040 1520 1630 2230 2650
2026-02-09 16:45 2.78 457 7870 (2023) 310 (1945) 1230 360 404 580 669 1040 1520 1630 2230 2650
2026-02-09 15:45 2.77 452 7870 (2023) 310 (1945) 1230 360 404 580 669 1040 1520 1630 2230 2650
2026-02-09 14:45 2.76 446 7870 (2023) 310 (1945) 1230 360 404 580 669 1040 1520 1630 2230 2650
2026-02-09 13:45 2.77 452 7870 (2023) 310 (1945) 1230 360 404 580 669 1040 1520 1630 2230 2650
2026-02-09 12:45 2.77 452 7870 (2023) 310 (1945) 1230 360 404 580 669 1040 1520 1630 2230 2650
2026-02-09 11:45 2.78 457 7870 (2023) 310 (1945) 1230 360 404 580 669 1040 1520 1630 2230 2650
2026-02-09 10:45 2.78 457 7870 (2023) 310 (1945) 1230 360 404 580 669 1040 1520 1630 2230 2650
2026-02-09 09:45 2.78 457 7870 (2023) 310 (1945) 1230 360 404 580 669 1040 1520 1630 2230 2650
2026-02-09 08:45 2.78 457 7870 (2023) 310 (1945) 1230 360 404 580 669 1040 1520 1630 2230 2650
2026-02-09 07:45 2.78 457 7870 (2023) 310 (1945) 1230 360 404 580 669 1040 1520 1630 2230 2650
2026-02-09 06:45 2.78 457 7870 (2023) 310 (1945) 1230 360 404 580 669 1040 1520 1630 2230 2650
2026-02-09 05:45 2.78 457 7870 (2023) 310 (1945) 1230 360 404 580 669 1040 1520 1630 2230 2650
2026-02-09 04:45 2.78 457 7870 (2023) 310 (1945) 1230 360 404 580 669 1040 1520 1630 2230 2650
2026-02-09 03:45 2.78 457 7870 (2023) 310 (1945) 1230 360 404 580 669 1040 1520 1630 2230 2650
2026-02-09 02:45 2.78 457 7870 (2023) 310 (1945) 1230 360 404 580 669 1040 1520 1630 2230 2650
2026-02-09 01:45 2.78 457 7870 (2023) 310 (1945) 1230 360 404 580 669 1040 1520 1630 2230 2650
2026-02-09 00:45 2.78 457 7870 (2023) 310 (1945) 1230 360 404 580 669 1040 1520 1630 2230 2650
2026-02-08 23:45 2.78 457 7870 (2023) 310 (1945) 1230 360 404 580 669 1040 1520 1630 2230 2650
2026-02-08 22:45 2.78 457 5640 (2019) 310 (1945) 1230 362 405 574 667 992 1550 1720 2510 2830
2026-02-08 21:45 2.78 457 5640 (2019) 310 (1945) 1230 362 405 574 667 992 1550 1720 2510 2830
2026-02-08 20:45 2.78 457 5640 (2019) 310 (1945) 1230 362 405 574 667 992 1550 1720 2510 2830
2026-02-08 19:45 2.78 457 5640 (2019) 310 (1945) 1230 362 405 574 667 992 1550 1720 2510 2830
2026-02-08 18:45 2.78 457 5640 (2019) 310 (1945) 1230 362 405 574 667 992 1550 1720 2510 2830
2026-02-08 17:45 2.78 457 5640 (2019) 310 (1945) 1230 362 405 574 667 992 1550 1720 2510 2830
2026-02-08 16:45 2.78 457 5640 (2019) 310 (1945) 1230 362 405 574 667 992 1550 1720 2510 2830
2026-02-08 15:45 2.77 452 5640 (2019) 310 (1945) 1230 362 405 574 667 992 1550 1720 2510 2830
2026-02-08 14:45 2.78 457 5640 (2019) 310 (1945) 1230 362 405 574 667 992 1550 1720 2510 2830
2026-02-08 13:45 2.76 446 5640 (2019) 310 (1945) 1230 362 405 574 667 992 1550 1720 2510 2830
2026-02-08 12:45 2.76 446 5640 (2019) 310 (1945) 1230 362 405 574 667 992 1550 1720 2510 2830
2026-02-08 11:45 2.76 446 5640 (2019) 310 (1945) 1230 362 405 574 667 992 1550 1720 2510 2830
2026-02-08 10:45 2.76 446 5640 (2019) 310 (1945) 1230 362 405 574 667 992 1550 1720 2510 2830
2026-02-08 09:45 2.76 446 5640 (2019) 310 (1945) 1230 362 405 574 667 992 1550 1720 2510 2830
2026-02-08 08:45 2.78 457 5640 (2019) 310 (1945) 1230 362 405 574 667 992 1550 1720 2510 2830
2026-02-08 07:45 2.78 457 5640 (2019) 310 (1945) 1230 362 405 574 667 992 1550 1720 2510 2830
2026-02-08 06:45 2.78 457 5640 (2019) 310 (1945) 1230 362 405 574 667 992 1550 1720 2510 2830
2026-02-08 05:45 2.78 457 5640 (2019) 310 (1945) 1230 362 405 574 667 992 1550 1720 2510 2830
2026-02-08 04:45 2.78 457 5640 (2019) 310 (1945) 1230 362 405 574 667 992 1550 1720 2510 2830
2026-02-08 03:45 2.78 457 5640 (2019) 310 (1945) 1230 362 405 574 667 992 1550 1720 2510 2830
2026-02-08 02:45 2.78 457 5640 (2019) 310 (1945) 1230 362 405 574 667 992 1550 1720 2510 2830
2026-02-08 01:45 2.78 457 5640 (2019) 310 (1945) 1230 362 405 574 667 992 1550 1720 2510 2830
2026-02-08 00:45 2.78 457 5640 (2019) 310 (1945) 1230 362 405 574 667 992 1550 1720 2510 2830
2026-02-07 23:45 2.77 452 5640 (2019) 310 (1945) 1230 362 405 574 667 992 1550 1720 2510 2830

A total of 2191 rows are displayed for years 1930 through 2025.